[[{"header":{"parameterUnit":"m.s-1","parameterCategory":1,"la1":31.0,"la2":29.5877,"lo1":-88.7671,"lo2":-86.6584,"dy":0.0162,"dx":0.0185,"nx":115,"ny":88,"refTime":"2023-09-12T12:00:00:Z","depth":0,"parameterNumber":2,"parameterNumberName":"U-component_of_WINDS"},"data":[0.0,0.0,0.0,0.0,0.0,0.0,0.0,0.0,0.0,0.0,0.0,0.0,0.0,0.0,0.0,0.0,0.0,0.0,0.0,0.0,0.0,0.0,0.0,0.0,0.0,0.0,0.0,0.0,0.0,0.0,0.0,0.0,0.0,0.0,0.0,0.0,0.0,0.0,0.0,0.0,0.0,0.0,0.0,0.0,0.0,0.0,0.0,0.0,0.0,0.0,0.0,0.0,0.0,0.0,0.0,0.0,0.0,0.0,0.0,0.0,0.0,0.0,0.0,0.0,0.0,0.0,0.0,0.0,0.0,0.0,0.0,0.0,0.0,0.0,0.0,0.0,0.0,0.0,0.0,0.0,0.0,0.0,0.0,0.0,0.0,0.0,0.0,0.0,0.0,0.0,0.0,0.0,0.0,0.0,0.0,0.0,0.0,0.0,0.0,0.0,0.0,0.0,0.0,0.0,0.0,0.0,0.0,0.0,0.0,0.0,0.0,0.0,0.0,0.0,0.0,0.0,0.0,0.0,0.0,0.0,0.0,0.0,0.0,0.0,0.0,0.0,0.0,0.0,0.0,0.0,0.0,0.0,0.0,0.0,0.0,0.0,0.0,0.0,0.0,0.0,0.0,0.0,0.0,0.0,0.0,0.0,0.0,0.0,0.0,0.0,0.0,0.0,0.0,0.0,0.0,0.0,0.0,0.0,0.0,0.0,0.0,0.0,0.0,0.0,0.0,0.0,0.0,0.0,0.0,0.0,0.0,0.0,0.0,0.0,0.0,0.0,0.0,0.0,0.0,0.0,0.0,0.0,0.0,0.0,0.0,0.0,0.0,0.0,0.0,0.0,0.0,0.0,0.0,0.0,0.0,0.0,0.0,0.0,0.0,0.0,0.0,0.0,0.0,0.0,0.0,0.0,0.0,0.0,0.0,0.0,0.0,0.0,0.0,0.0,0.0,0.0,0.0,0.0,0.0,0.0,0.0,0.0,0.0,0.0,0.0,0.0,0.0,0.0,0.0,0.0,0.0,0.0,0.0,0.0,0.0,0.0,0.0,0.0,0.0,0.0,0.0,0.0,0.0,0.0,0.0,0.0,0.0,0.0,0.0,0.0,0.0,0.0,0.0,0.0,0.0,0.0,0.0,0.0,0.0,0.0,0.0,0.0,0.0,0.0,0.0,0.0,0.0,0.0,0.0,0.0,0.0,0.0,0.0,0.0,0.0,0.0,0.0,0.0,0.0,0.0,0.0,0.0,0.0,0.0,0.0,0.0,0.0,0.0,0.0,0.0,0.0,0.0,0.0,0.0,0.0,0.0,0.0,0.0,0.0,0.0,0.0,0.0,0.0,0.0,0.0,0.0,0.0,0.0,0.0,0.0,0.0,0.0,0.0,0.0,0.0,0.0,0.0,0.0,0.0,0.0,0.0,0.0,0.0,0.0,0.0,0.0,0.0,0.0,0.0,0.0,0.0,0.0,0.0,0.0,0.0,0.0,0.0,0.0,0.0,0.0,0.0,0.0,0.0,0.0,0.0,0.0,0.0,0.0,0.0,0.0,0.0,0.0,0.0,0.0,0.0,0.0,0.0,0.0,0.0,0.0,0.0,0.0,0.0,0.0,0.0,0.0,0.0,0.0,0.0,0.0,0.0,0.0,0.0,0.0,0.0,0.0,0.0,0.0,0.0,0.0,0.0,0.0,0.0,0.0,0.0,0.0,0.0,0.0,0.0,0.0,0.0,0.0,0.0,0.0,0.0,0.0,0.0,0.0,0.0,0.0,0.0,0.0,0.0,0.0,0.0,0.0,0.0,0.0,0.0,0.0,0.0,0.0,0.0,0.0,0.0,0.0,0.0,0.0,0.0,0.0,0.0,0.0,0.0,0.0,0.0,0.0,0.0,0.0,0.0,0.0,0.0,0.0,0.0,0.0,0.0,0.0,0.0,0.0,0.0,0.0,0.0,0.0,0.0,0.0,0.0,0.0,0.0,0.0,0.0,0.0,0.0,0.0,0.0,0.0,0.0,0.0,0.0,0.0,0.0,0.0,0.0,0.0,0.0,0.0,0.0,0.0,0.0,0.0,0.0,0.0,0.0,0.0,0.0,0.0,0.0,0.0,0.0,0.0,0.0,0.0,0.0,0.0,0.0,0.0,0.0,0.0,0.0,0.0,0.0,0.0,0.0,0.0,0.0,0.0,0.0,0.0,0.0,0.0,0.0,0.0,0.0,0.0,0.0,0.0,0.0,0.0,0.0,0.0,0.0,0.0,0.0,0.0,0.0,0.0,0.0,0.0,0.0,0.0,0.0,0.0,0.0,0.0,0.0,0.0,0.0,0.0,0.0,0.0,0.0,0.0,0.0,0.0,0.0,0.0,0.0,0.0,0.0,0.0,0.0,0.0,0.0,0.0,0.0,0.0,0.0,0.0,0.0,0.0,0.0,0.0,0.0,0.0,0.0,0.0,0.0,0.0,0.0,0.0,0.0,0.0,0.0,0.0,0.0,0.0,0.0,0.0,0.0,0.0,0.0,0.0,0.0,0.0,0.0,0.0,0.0,0.0,0.0,0.0,0.0,0.0,0.0,0.0,0.0,0.0,0.0,0.0,0.0,0.0,0.0,0.0,0.0,0.0,0.0,0.0,0.0,0.0,0.0,0.0,0.0,0.0,0.0,0.0,0.0,0.0,0.0,0.0,0.0,0.0,0.0,0.0,0.0,0.0,0.0,0.0,0.0,0.0,0.0,0.0,0.0,0.0,0.0,0.0,0.0,0.0,0.0,0.0,0.0,0.0,0.0,0.0,0.0,0.0,0.0,0.0,0.0,0.0,0.0,0.0,0.0,0.0,0.0,0.0,0.0,0.0,0.0,0.0,0.0,0.0,0.0,0.0,0.0,0.0,0.0,0.0,0.0,0.0,0.0,0.0,0.0,0.0,0.0,0.0,0.0,0.0,0.0,0.0,0.0,0.0,0.0,0.0,0.0,0.0,0.0,0.0,0.0,0.0,0.0,0.0,0.0,0.0,0.0,0.0,0.0,0.0,0.0,0.0,0.0,0.0,0.0,0.0,0.0,0.0,0.0,0.0,0.0,0.0,0.0,0.0,0.0,0.0,0.0,0.0,0.0,0.0,0.0,0.0,0.0,0.0,0.0,0.0,0.0,0.0,0.0,0.0,0.0,0.0,0.0,0.0,0.0,0.0,0.0,0.0,0.0,0.0,0.0,0.0,0.0,0.0,0.0,0.0,0.0,0.0,0.0,0.0,0.0,0.0,0.0,0.0,0.0,0.0,0.0,0.0,0.0,0.0,0.0,0.0,0.0,0.0,0.0,0.0,0.0,0.0,0.0,0.0,0.0,0.0,0.0,0.0,0.0,0.0,0.0,0.0,0.0,0.0,0.0,0.0,0.0,0.0,0.0,0.0,0.0,0.0,0.0,0.0,0.0,0.0,0.0,0.0,0.0,0.0,0.0,0.0,0.0,0.0,0.0,0.0,0.0,0.0,0.0,0.0,0.0,0.0,0.0,0.0,0.0,0.0,0.0,0.0,0.0,0.0,0.0,0.0,0.0,0.0,0.0,0.0,0.0,0.0,0.0,0.0,0.0,0.0,0.0,0.0,0.0,0.0,0.0,0.0,0.0,0.0,0.0,0.0,0.0,0.0,0.0,0.0,0.0,0.0,0.0,0.0,0.0,0.0,0.0,0.0,0.0,0.0,0.0,0.0,0.0,0.0,0.0,0.0,0.0,0.0,0.0,0.0,0.0,0.0,0.0,0.0,0.0,0.0,0.0,0.0,0.0,0.0,0.0,0.0,0.0,0.0,0.0,0.0,0.0,0.0,0.0,0.0,0.0,0.0,0.0,0.0,0.0,0.0,0.0,0.0,0.0,0.0,0.0,0.0,0.0,0.0,0.0,0.0,0.0,0.0,0.0,0.0,0.0,0.0,0.0,0.0,0.0,0.0,0.0,0.0,0.0,0.0,0.0,0.0,0.0,0.0,0.0,0.0,0.0,0.0,0.0,0.0,0.0,0.0,0.0,0.0,0.0,0.0,0.0,0.0,0.0,0.0,0.0,0.0,0.0,0.0,0.0,0.0,0.0,0.0,0.0,0.0,0.0,0.0,0.0,0.0,0.0,0.0,0.0,0.0,0.0,0.0,0.0,0.0,0.0,0.0,0.0,0.0,0.0,0.0,0.0,0.0,0.0,0.0,0.0,0.0,0.0,0.0,0.0,0.0,0.0,0.0,0.0,0.0,0.0,0.0,0.0,0.0,0.0,0.0,0.0,0.0,1.5704,0.0,0.0,0.0,0.0,0.0,0.0,0.0,0.0,0.0,0.0,0.0,0.0,0.0,0.0,0.0,0.0,0.0,0.0,0.0,0.0,0.0,0.0,0.0,0.0,0.0,0.0,0.0,0.0,0.0,0.0,0.0,0.0,0.0,0.0,0.0,0.0,0.0,0.0,0.0,0.0,0.0,0.0,0.0,0.0,0.0,0.0,0.0,0.0,0.0,0.0,0.0,0.0,0.0,0.0,0.0,0.0,0.0,0.0,0.0,0.0,0.0,0.0,0.0,0.0,0.0,0.0,0.0,0.0,0.0,0.0,0.0,0.0,0.0,0.0,0.0,0.0,0.0,0.0,0.0,0.0,0.0,0.0,0.0,0.0,0.0,0.0,0.0,0.0,0.0,0.0,0.0,0.0,0.0,0.0,0.0,0.0,0.0,0.0,0.0,0.0,0.0,0.0,0.0,0.0,0.0,0.0,0.0,0.0,0.0,0.0,1.6019,1.6019,1.6001,1.6186,1.6539,0.0,0.0,0.0,0.0,0.0,0.0,0.0,0.0,0.0,0.0,0.0,0.0,0.0,0.0,0.0,0.0,0.0,0.0,0.0,0.0,0.0,0.0,0.0,0.0,0.0,0.0,0.0,0.0,0.0,0.0,0.0,0.0,0.0,0.0,0.0,0.0,0.0,0.0,0.0,0.0,0.0,0.0,0.0,0.0,0.0,0.0,0.0,0.0,0.0,0.0,0.0,0.0,0.0,0.0,0.0,0.0,0.0,0.0,0.0,0.0,0.0,0.0,0.0,0.0,0.0,0.0,0.0,0.0,0.0,0.0,0.0,0.0,0.0,0.0,0.0,0.0,0.0,0.0,0.0,0.0,0.0,0.0,0.0,0.0,0.0,0.0,0.0,0.0,0.0,0.0,0.0,0.0,0.0,0.0,0.0,0.0,0.0,0.0,0.0,0.0,0.0,0.0,0.0,0.0,0.0,0.0,0.0,0.0,0.0,0.0,0.0,0.0,1.7096,1.7188,1.7393,0.0,0.0,0.0,0.0,0.0,0.0,0.0,0.0,0.0,0.0,0.0,0.0,0.0,0.0,0.0,0.0,0.0,0.0,0.0,0.0,0.0,0.0,0.0,0.0,0.0,0.0,0.0,0.0,0.0,0.0,0.0,0.0,0.0,0.0,0.0,0.0,0.0,0.0,0.0,0.0,0.0,0.0,0.0,0.0,0.0,0.0,0.0,0.0,0.0,0.0,0.0,0.0,0.0,0.0,0.0,0.0,0.0,0.0,0.0,0.0,0.0,0.0,0.0,0.0,0.0,0.0,0.0,0.0,0.0,0.0,0.0,0.0,0.0,0.0,0.0,0.0,0.0,0.0,0.0,0.0,0.0,0.0,0.0,0.0,0.0,0.0,0.0,0.0,0.0,0.0,0.0,0.0,0.0,0.0,0.0,0.0,0.0,0.0,0.0,0.0,0.0,0.0,0.0,0.0,0.0,0.0,0.0,0.0,0.0,0.0,1.6353,1.7059,1.7114,0.0,1.8172,0.0,0.0,0.0,0.0,0.0,0.0,0.0,0.0,0.0,0.0,0.0,0.0,0.0,0.0,0.0,0.0,0.0,0.0,0.0,0.0,0.0,0.0,0.0,0.0,0.0,0.0,0.0,0.0,0.0,0.0,0.0,0.0,0.0,0.0,0.0,0.0,0.0,0.0,0.0,0.0,0.0,0.0,0.0,0.0,0.0,0.0,0.0,0.0,0.0,0.0,0.0,0.0,0.0,0.0,0.0,0.0,0.0,0.0,0.0,0.0,0.0,0.0,0.0,0.0,0.0,0.0,0.0,0.0,0.0,0.0,0.0,0.0,0.0,0.0,0.0,0.0,0.0,0.0,0.0,0.0,0.0,0.0,0.0,0.0,0.0,0.0,0.0,0.0,0.0,0.0,0.0,0.0,0.0,0.0,0.0,0.0,0.0,0.0,0.0,0.0,0.0,0.0,0.0,0.0,0.0,0.0,0.0,0.0,0.0,0.0,1.7727,1.8562,1.8581,1.8748,0.0,0.0,0.0,0.0,0.0,0.0,0.0,0.0,0.0,0.0,0.0,0.0,0.0,0.0,0.0,0.0,0.0,0.0,0.0,0.0,0.0,0.0,0.0,0.0,0.0,0.0,0.0,0.0,0.0,0.0,0.0,0.0,0.0,0.0,0.0,0.0,0.0,0.0,0.0,0.0,0.0,0.0,0.0,0.0,0.0,0.0,0.0,0.0,0.0,0.0,0.0,0.0,0.0,0.0,0.0,0.0,0.0,0.0,0.0,0.0,0.0,0.0,0.0,0.0,0.0,0.0,0.0,0.0,0.0,0.0,0.0,0.0,0.0,0.0,0.0,0.0,0.0,0.0,0.0,0.0,0.0,0.0,0.0,0.0,0.0,0.0,0.0,0.0,0.0,0.0,0.0,0.0,0.0,0.0,0.0,0.0,0.0,0.0,0.0,0.0,0.0,0.0,0.0,0.0,0.0,0.0,0.0,0.0,0.0,0.0,1.756,1.8488,1.9527,1.9583,1.9583,1.9583,0.0,0.0,0.0,0.0,0.0,0.0,0.0,0.0,0.0,0.0,0.0,0.0,0.0,0.0,0.0,0.0,0.0,0.0,0.0,0.0,0.0,0.0,0.0,0.0,0.0,0.0,0.0,0.0,0.0,0.0,0.0,0.0,0.0,0.0,0.0,0.0,0.0,0.0,0.0,0.0,0.0,0.0,0.0,0.0,0.0,0.0,0.0,0.0,0.0,0.0,0.0,0.0,0.0,0.0,0.0,0.0,0.0,0.0,0.0,0.0,0.0,0.0,0.0,0.0,0.0,0.0,0.0,0.0,0.0,0.0,0.0,0.0,0.0,0.0,0.0,0.0,0.0,0.0,0.0,0.0,0.0,0.0,0.0,0.0,0.0,0.0,0.0,0.0,0.0,0.0,0.0,0.0,0.0,0.0,0.0,0.0,0.0,0.0,0.0,0.0,0.0,0.0,0.0,0.0,0.0,0.0,0.0,0.0,1.5963,1.678,1.795,1.9509,1.9583,1.9583,0.0,0.0,0.0,0.0,0.0,0.0,0.0,0.0,0.0,0.0,0.0,0.0,0.0,0.0,0.0,0.0,0.0,0.0,0.0,0.0,0.0,0.0,0.0,0.0,0.0,0.0,0.0,0.0,0.0,0.0,0.0,0.0,0.0,0.0,0.0,0.0,0.0,0.0,0.0,0.0,0.0,0.0,0.0,0.0,0.0,0.0,0.0,0.0,0.0,0.0,0.0,0.0,0.0,0.0,0.0,0.0,0.0,0.0,0.0,0.0,0.0,0.0,0.0,0.0,0.0,0.0,0.0,0.0,0.0,0.0,0.0,0.0,0.0,0.0,0.0,0.0,0.0,0.0,0.0,0.0,0.0,0.0,0.0,0.0,0.0,0.0,0.0,0.0,0.0,0.0,0.0,0.0,0.0,0.0,0.0,0.0,0.0,0.0,0.0,0.0,0.0,0.0,0.0,0.0,0.0,0.0,0.0,0.0,0.0,1.665,1.7987,1.8711,1.8785,1.8785,1.8766,0.0,0.0,0.0,0.0,0.0,0.0,0.0,0.0,0.0,0.0,0.0,0.0,0.0,0.0,0.0,0.0,0.0,0.0,0.0,0.0,0.0,0.0,0.0,0.0,0.0,0.0,0.0,0.0,0.0,0.0,0.0,0.0,0.0,0.0,0.0,0.0,0.0,0.0,0.0,0.0,0.0,0.0,0.0,0.0,0.0,0.0,0.0,0.0,0.0,0.0,0.0,0.0,0.0,0.0,0.0,0.0,0.0,0.0,0.0,0.0,0.0,0.0,0.0,0.0,0.0,0.0,0.0,0.0,0.0,0.0,0.0,0.0,0.0,0.0,0.0,0.0,0.0,0.0,0.0,0.0,0.0,0.0,0.0,0.0,0.0,0.0,0.0,0.0,0.0,0.0,0.0,0.0,0.0,0.0,0.0,0.0,0.0,0.0,0.0,0.0,0.0,0.0,0.0,0.0,0.0,0.0,0.0,0.0,0.0,1.7059,0.0,1.9026,1.8748,1.8729,1.8599,0.0,0.0,0.0,0.0,0.0,0.0,0.0,0.0,0.0,0.0,0.0,0.0,0.0,0.0,0.0,0.0,0.0,0.0,0.0,0.0,0.0,0.0,0.0,0.0,0.0,0.0,0.0,0.0,0.0,0.0,0.0,0.0,0.0,0.0,0.0,0.0,0.0,0.0,0.0,0.0,0.0,0.0,0.0,0.0,0.0,0.0,0.0,0.0,0.0,0.0,0.0,0.0,0.0,0.0,0.0,0.0,0.0,0.0,0.0,0.0,0.0,0.0,0.0,0.0,0.0,0.0,0.0,0.0,0.0,0.0,0.0,0.0,0.0,0.0,0.0,0.0,0.0,0.0,0.0,0.0,0.0,0.0,0.0,0.0,0.0,0.0,0.0,0.0,0.0,0.0,0.0,0.0,0.0,0.0,0.0,0.0,0.0,0.0,0.0,0.0,0.0,0.0,0.0,0.0,0.0,0.0,0.0,0.0,1.5555,1.7114,1.7968,1.8822,1.9564,1.9546,1.9156,0.0,0.0,0.0,0.0,0.0,0.0,0.0,0.0,0.0,0.0,0.0,0.0,0.0,0.0,0.0,0.0,0.0,0.0,0.0,0.0,0.0,0.0,0.0,0.0,0.0,0.0,0.0,0.0,0.0,0.0,0.0,0.0,0.0,0.0,0.0,0.0,0.0,0.0,0.0,0.0,0.0,0.0,0.0,0.0,0.0,0.0,0.0,0.0,0.0,0.0,0.0,0.0,0.0,0.0,0.0,0.0,0.0,0.0,0.0,0.0,0.0,0.0,0.0,0.0,0.0,0.0,0.0,0.0,0.0,0.0,0.0,0.0,0.0,0.0,0.0,0.0,0.0,0.0,0.0,0.0,0.0,0.0,0.0,0.0,0.0,0.0,0.0,0.0,0.0,0.0,0.0,0.0,0.0,0.0,0.0,0.0,0.0,0.0,0.0,0.0,0.0,0.0,0.0,0.0,0.0,0.0,0.0,0.0,0.0,1.8785,1.9602,1.988,1.962,1.9583,1.8933,0.0,0.0,0.0,0.0,0.0,0.0,0.0,0.0,0.0,0.0,0.0,0.0,0.0,0.0,0.0,0.0,0.0,0.0,0.0,0.0,0.0,0.0,0.0,0.0,0.0,0.0,0.0,0.0,0.0,0.0,0.0,0.0,0.0,0.0,0.0,0.0,0.0,0.0,0.0,0.0,0.0,0.0,0.0,0.0,0.0,0.0,0.0,0.0,0.0,0.0,0.0,0.0,0.0,0.0,0.0,0.0,0.0,0.0,0.0,0.0,0.0,0.0,0.0,0.0,0.0,0.0,0.0,0.0,0.0,0.0,0.0,0.0,0.0,0.0,0.0,0.0,0.0,0.0,0.0,0.0,0.0,0.0,0.0,0.0,0.0,0.0,0.0,0.0,0.0,0.0,0.0,0.0,0.0,0.0,0.0,0.0,0.0,0.0,0.0,0.0,0.0,0.0,0.0,0.0,0.0,0.0,0.0,0.0,0.0,2.1789,2.1752,2.1606,2.1436,2.1124,2.0148,1.8522,0.0,0.0,0.0,0.0,0.0,0.0,0.0,0.0,0.0,0.0,0.0,0.0,0.0,0.0,0.0,0.0,0.0,0.0,0.0,0.0,0.0,0.0,0.0,0.0,0.0,0.0,0.0,0.0,0.0,0.0,0.0,0.0,0.0,0.0,0.0,0.0,0.0,0.0,0.0,0.0,0.0,0.0,0.0,0.0,0.0,0.0,0.0,0.0,0.0,0.0,0.0,0.0,0.0,0.0,0.0,0.0,0.0,0.0,0.0,0.0,0.0,0.0,0.0,0.0,0.0,0.0,0.0,0.0,0.0,0.0,0.0,0.0,0.0,0.0,0.0,0.0,0.0,0.0,0.0,0.0,0.0,0.0,0.0,0.0,0.0,0.0,0.0,0.0,0.0,0.0,0.0,0.0,0.0,0.0,0.0,0.0,0.0,0.0,0.0,0.0,0.0,0.0,0.0,0.0,0.0,0.0,0.0,0.0,2.5782,2.4409,2.4038,2.4631,2.3781,2.2523,0.0,0.0,0.0,0.0,0.0,0.0,0.0,0.0,0.0,0.0,0.0,0.0,0.0,0.0,0.0,0.0,0.0,0.0,0.0,0.0,0.0,0.0,0.0,0.0,0.0,0.0,0.0,0.0,0.0,0.0,0.0,0.0,0.0,0.0,0.0,0.0,0.0,0.0,0.0,0.0,0.0,0.0,0.0,0.0,0.0,0.0,0.0,0.0,0.0,0.0,0.0,0.0,0.0,0.0,0.0,0.0,0.0,0.0,0.0,0.0,0.0,0.0,0.0,0.0,0.0,0.0,0.0,0.0,0.0,0.0,0.0,0.0,0.0,0.0,0.0,0.0,0.0,0.0,0.0,0.0,0.0,0.0,0.0,0.0,0.0,0.0,0.0,0.0,0.0,0.0,0.0,0.0,0.0,0.0,0.0,0.0,0.0,0.0,0.0,0.0,0.0,0.0,0.0,0.0,0.0,0.0,0.0,0.0,0.0,2.7343,2.8767,2.8727,2.7136,2.5727,2.3877,0.0,0.0,0.0,0.0,0.0,0.0,0.0,0.0,0.0,0.0,0.0,0.0,0.0,0.0,0.0,0.0,0.0,0.0,0.0,0.0,0.0,0.0,0.0,0.0,0.0,0.0,0.0,0.0,0.0,0.0,0.0,0.0,0.0,0.0,0.0,0.0,0.0,0.0,0.0,0.0,0.0,0.0,0.0,0.0,0.0,0.0,0.0,0.0,0.0,0.0,0.0,0.0,0.0,0.0,0.0,0.0,0.0,0.0,0.0,0.0,0.0,0.0,0.0,0.0,0.0,0.0,0.0,0.0,0.0,0.0,0.0,0.0,0.0,0.0,0.0,0.0,0.0,0.0,0.0,0.0,0.0,0.0,0.0,0.0,0.0,0.0,0.0,0.0,0.0,0.0,0.0,0.0,0.0,0.0,0.0,0.0,0.0,0.0,0.0,0.0,0.0,0.0,0.0,0.0,0.0,0.0,0.0,0.0,2.6449,3.0005,3.213,3.2828,3.204,2.9123,2.6407,0.0,0.0,0.0,0.0,0.0,0.0,0.0,0.0,0.0,0.0,0.0,0.0,0.0,0.0,0.0,0.0,0.0,0.0,0.0,0.0,0.0,0.0,0.0,0.0,0.0,0.0,0.0,0.0,0.0,0.0,0.0,0.0,0.0,0.0,0.0,0.0,0.0,0.0,0.0,0.0,0.0,0.0,0.0,0.0,0.0,0.0,0.0,0.0,0.0,0.0,0.0,0.0,0.0,0.0,0.0,0.0,0.0,0.0,0.0,0.0,0.0,0.0,0.0,0.0,0.0,0.0,0.0,0.0,0.0,0.0,0.0,0.0,0.0,0.0,0.0,0.0,0.0,0.0,0.0,0.0,0.0,0.0,0.0,0.0,0.0,0.0,0.0,0.0,0.0,0.0,0.0,0.0,0.0,0.0,0.0,0.0,0.0,0.0,0.0,0.0,0.0,0.0,0.0,0.0,0.0,0.0,0.0,0.0,2.8941,3.2828,3.4726,3.6325,3.7503,3.3066,2.9402,0.0,0.0,0.0,0.0,0.0,0.0,0.0,0.0,0.0,0.0,0.0,0.0,0.0,0.0,0.0,0.0,0.0,0.0,0.0,0.0,0.0,0.0,0.0,0.0,0.0,0.0,0.0,0.0,0.0,0.0,0.0,0.0,0.0,0.0,0.0,0.0,0.0,0.0,0.0,0.0,0.0,0.0,0.0,0.0,0.0,0.0,0.0,0.0,0.0,0.0,0.0,0.0,0.0,0.0,0.0,0.0,0.0,0.0,0.0,0.0,0.0,0.0,0.0,0.0,0.0,0.0,0.0,0.0,0.0,0.0,0.0,0.0,0.0,0.0,0.0,0.0,0.0,0.0,0.0,0.0,0.0,0.0,0.0,0.0,0.0,0.0,0.0,0.0,0.0,0.0,0.0,0.0,0.0,0.0,0.0,0.0,0.0,0.0,0.0,0.0,0.0,0.0,0.0,0.0,0.0,0.0,0.0,0.0,3.03,3.3753,3.6611,3.8214,3.8497,3.441,3.1035,0.0,0.0,0.0,0.0,0.0,0.0,0.0,0.0,0.0,0.0,0.0,0.0,0.0,0.0,0.0,0.0,0.0,0.0,0.0,0.0,0.0,0.0,0.0,0.0,0.0,0.0,0.0,0.0,0.0,0.0,0.0,0.0,0.0,0.0,0.0,0.0,0.0,0.0,0.0,0.0,0.0,0.0,0.0,0.0,0.0,0.0,0.0,0.0,1.9583,0.0,0.0,0.0,0.0,0.0,0.0,0.0,0.0,0.0,0.0,0.0,0.0,0.0,0.0,0.0,0.0,0.0,0.0,0.0,0.0,0.0,0.0,0.0,0.0,0.0,0.0,0.0,0.0,0.0,0.0,0.0,0.0,0.0,0.0,0.0,0.0,0.0,0.0,0.0,0.0,0.0,0.0,0.0,0.0,0.0,0.0,0.0,0.0,0.0,0.0,0.0,0.0,0.0,0.0,0.0,0.0,0.0,0.0,0.0,3.1617,3.5606,3.8074,3.9534,3.9724,3.6323,3.2878,0.0,0.0,0.0,0.0,0.0,0.0,0.0,0.0,0.0,0.0,0.0,0.0,0.0,0.0,0.0,0.0,0.0,0.0,0.0,0.0,0.0,0.0,0.0,0.0,0.0,0.0,0.0,0.0,0.0,0.0,0.0,0.0,0.0,0.0,0.0,0.0,0.0,0.0,0.0,0.0,0.0,0.0,0.0,0.0,0.0,0.0,0.0,0.0,0.0,0.0,0.0,0.0,0.0,0.0,0.0,0.0,0.0,0.0,0.0,0.0,0.0,0.0,0.0,0.0,0.0,0.0,0.0,0.0,0.0,0.0,0.0,0.0,0.0,0.0,0.0,0.0,0.0,0.0,0.0,0.0,0.0,0.0,0.0,0.0,0.0,0.0,0.0,0.0,0.0,0.0,0.0,0.0,0.0,0.0,0.0,0.0,0.0,0.0,0.0,0.0,0.0,0.0,0.0,0.0,0.0,0.0,0.0,2.8754,3.2764,3.7342,3.9118,4.0276,4.0836,3.779,3.4247,3.032,0.0,0.0,0.0,0.0,0.0,0.0,0.0,0.0,0.0,0.0,0.0,0.0,0.0,0.0,0.0,0.0,0.0,0.0,0.0,0.0,0.0,0.0,0.0,0.0,0.0,0.0,0.0,0.0,0.0,0.0,0.0,0.0,0.0,0.0,0.0,0.0,0.0,0.0,1.8766,2.0604,0.0,0.0,0.0,0.0,0.0,0.0,0.0,0.0,1.9861,0.0,0.0,0.0,0.0,0.0,0.0,0.0,0.0,0.0,0.0,0.0,0.0,0.0,0.0,0.0,0.0,0.0,0.0,0.0,0.0,0.0,0.0,0.0,0.0,0.0,0.0,0.0,0.0,0.0,0.0,0.0,0.0,0.0,0.0,0.0,0.0,0.0,0.0,0.0,0.0,0.0,0.0,0.0,0.0,0.0,0.0,0.0,0.0,0.0,0.0,0.0,0.0,0.0,0.0,0.0,0.0,2.5462,2.9265,3.329,3.7474,3.9105,3.9987,4.001,3.6927,3.366,3.0283,0.0,0.0,0.0,0.0,0.0,0.0,0.0,0.0,0.0,0.0,0.0,0.0,0.0,0.0,0.0,0.0,0.0,0.0,0.0,0.0,0.0,0.0,0.0,0.0,0.0,0.0,0.0,0.0,0.0,0.0,0.0,0.0,0.0,0.0,0.0,0.0,0.0,0.0,0.0,2.1328,2.2293,0.0,0.0,0.0,0.0,0.0,0.0,0.0,0.0,2.0604,0.0,0.0,0.0,0.0,0.0,0.0,0.0,0.0,0.0,0.0,0.0,0.0,0.0,0.0,0.0,0.0,0.0,0.0,0.0,0.0,0.0,0.0,0.0,0.0,0.0,0.0,0.0,0.0,0.0,0.0,0.0,0.0,0.0,0.0,0.0,0.0,0.0,0.0,0.0,0.0,0.0,0.0,0.0,0.0,0.0,0.0,0.0,0.0,0.0,0.0,0.0,0.0,0.0,0.0,0.0,2.6709,3.0215,3.3834,3.7445,3.9087,3.968,3.9221,3.6091,3.2855,0.0,0.0,0.0,0.0,0.0,0.0,0.0,0.0,0.0,0.0,0.0,0.0,0.0,0.0,0.0,0.0,0.0,0.0,0.0,0.0,0.0,0.0,0.0,0.0,0.0,0.0,0.0,0.0,0.0,0.0,0.0,0.0,0.0,0.0,0.0,0.0,0.0,0.0,0.0,0.0,2.2386,2.2924,2.3776,0.0,0.0,0.0,0.0,0.0,0.0,2.168,2.1421,0.0,0.0,0.0,0.0,0.0,0.0,0.0,0.0,0.0,0.0,0.0,0.0,0.0,0.0,0.0,0.0,0.0,0.0,0.0,0.0,0.0,0.0,0.0,0.0,0.0,0.0,0.0,0.0,0.0,0.0,0.0,0.0,0.0,0.0,0.0,0.0,0.0,0.0,0.0,0.0,0.0,0.0,0.0,0.0,0.0,0.0,0.0,0.0,0.0,0.0,0.0,0.0,0.0,0.0,0.0,2.7769,3.098,3.4192,3.7367,3.8744,3.9019,3.8193,3.5017,3.1759,0.0,0.0,0.0,0.0,0.0,0.0,0.0,0.0,0.0,0.0,0.0,0.0,0.0,0.0,0.0,0.0,0.0,0.0,0.0,0.0,0.0,0.0,0.0,0.0,0.0,0.0,0.0,0.0,0.0,0.0,0.0,0.0,0.0,0.0,0.0,0.0,0.0,0.0,0.0,0.0,0.0,2.3776,2.463,2.4148,0.0,0.0,0.0,0.0,2.2961,2.272,0.0,0.0,0.0,0.0,0.0,0.0,0.0,0.0,0.0,0.0,0.0,0.0,0.0,0.0,0.0,0.0,0.0,0.0,0.0,0.0,0.0,0.0,0.0,0.0,0.0,0.0,0.0,0.0,0.0,0.0,0.0,0.0,0.0,0.0,0.0,0.0,0.0,0.0,0.0,0.0,0.0,0.0,0.0,0.0,0.0,0.0,0.0,0.0,0.0,0.0,0.0,0.0,0.0,0.0,0.0,0.0,2.7769,3.0962,3.4211,3.7294,3.7709,3.7386,3.656,3.3332,3.0081,0.0,0.0,0.0,0.0,0.0,0.0,0.0,0.0,0.0,0.0,0.0,0.0,0.0,0.0,0.0,0.0,0.0,0.0,0.0,0.0,0.0,0.0,0.0,0.0,0.0,0.0,0.0,0.0,0.0,0.0,0.0,0.0,0.0,0.0,0.0,0.0,0.0,0.0,0.0,0.0,0.0,2.463,2.5448,2.5466,2.5671,0.0,0.0,2.5522,2.6228,2.515,0.0,0.0,0.0,0.0,0.0,0.0,0.0,0.0,0.0,0.0,0.0,0.0,0.0,0.0,0.0,0.0,0.0,0.0,0.0,0.0,0.0,0.0,0.0,0.0,0.0,0.0,0.0,0.0,0.0,0.0,0.0,0.0,0.0,0.0,0.0,0.0,0.0,0.0,0.0,0.0,0.0,0.0,0.0,0.0,0.0,0.0,0.0,0.0,0.0,0.0,0.0,0.0,0.0,0.0,0.0,2.5273,2.8466,3.1659,3.4431,3.6725,3.7257,3.6872,3.5585,3.2291,2.898,0.0,0.0,0.0,0.0,0.0,0.0,0.0,0.0,0.0,0.0,0.0,0.0,0.0,0.0,0.0,0.0,0.0,0.0,0.0,0.0,0.0,0.0,0.0,0.0,0.0,0.0,0.0,0.0,0.0,0.0,0.0,0.0,0.0,0.0,0.0,0.0,0.0,0.0,0.0,0.0,0.0,0.0,2.5652,2.6098,0.0,0.0,0.0,2.7195,2.7529,0.0,0.0,0.0,0.0,0.0,0.0,0.0,0.0,0.0,0.0,0.0,0.0,0.0,0.0,0.0,0.0,0.0,0.0,0.0,0.0,0.0,0.0,0.0,0.0,0.0,0.0,0.0,0.0,0.0,0.0,0.0,0.0,0.0,0.0,0.0,0.0,0.0,0.0,0.0,0.0,0.0,0.0,0.0,0.0,0.0,0.0,0.0,0.0,0.0,0.0,0.0,0.0,0.0,0.0,0.0,0.0,0.0,2.8975,3.1946,3.4321,3.5917,3.6541,3.6072,3.4385,3.1316,0.0,0.0,0.0,0.0,0.0,0.0,0.0,0.0,0.0,0.0,0.0,0.0,0.0,0.0,0.0,0.0,0.0,0.0,0.0,0.0,0.0,0.0,0.0,0.0,0.0,0.0,0.0,1.9583,0.0,0.0,0.0,0.0,0.0,0.0,0.0,0.0,0.0,0.0,0.0,0.0,0.0,0.0,2.6396,2.66,2.7492,2.8143,0.0,0.0,2.9256,2.9031,2.8827,2.8363,0.0,0.0,0.0,0.0,0.0,0.0,0.0,0.0,0.0,0.0,0.0,0.0,0.0,0.0,0.0,0.0,0.0,0.0,0.0,0.0,0.0,0.0,0.0,0.0,0.0,0.0,0.0,0.0,0.0,0.0,0.0,0.0,0.0,0.0,0.0,0.0,0.0,0.0,0.0,0.0,0.0,0.0,0.0,0.0,0.0,0.0,0.0,0.0,0.0,0.0,0.0,0.0,0.0,0.0,0.0,2.885,3.1414,3.3476,3.5009,3.5137,3.4367,3.27,3.017,2.7224,0.0,0.0,0.0,0.0,0.0,0.0,0.0,0.0,0.0,0.0,0.0,0.0,0.0,0.0,0.0,0.0,0.0,0.0,0.0,0.0,0.0,0.0,0.0,0.0,0.0,0.0,0.0,0.0,0.0,0.0,0.0,0.0,0.0,0.0,0.0,0.0,0.0,0.0,0.0,0.0,0.0,2.8216,2.9035,3.0482,3.1448,0.0,0.0,3.2391,3.1584,3.0802,2.9798,2.8181,0.0,0.0,0.0,0.0,0.0,0.0,0.0,0.0,0.0,0.0,0.0,0.0,0.0,0.0,0.0,0.0,0.0,0.0,0.0,0.0,0.0,0.0,0.0,0.0,0.0,0.0,0.0,0.0,0.0,0.0,0.0,0.0,0.0,0.0,0.0,0.0,0.0,0.0,0.0,0.0,0.0,0.0,0.0,0.0,0.0,0.0,0.0,0.0,0.0,0.0,0.0,0.0,0.0,2.5667,2.885,3.129,3.3331,3.4871,3.4962,3.4091,3.2347,2.9888,2.7198,0.0,0.0,0.0,0.0,0.0,0.0,0.0,0.0,0.0,0.0,0.0,0.0,0.0,0.0,0.0,0.0,0.0,0.0,0.0,0.0,0.0,0.0,0.0,0.0,0.0,0.0,0.0,0.0,1.9583,1.9583,1.9583,0.0,0.0,0.0,0.0,0.0,0.0,0.0,0.0,0.0,0.0,2.8402,2.9277,3.0739,0.0,0.0,3.2376,3.2593,3.1769,3.1362,3.0457,2.8329,2.6759,0.0,0.0,0.0,0.0,0.0,0.0,0.0,0.0,0.0,0.0,0.0,0.0,0.0,0.0,0.0,0.0,0.0,0.0,0.0,0.0,0.0,0.0,0.0,0.0,0.0,0.0,0.0,0.0,0.0,0.0,0.0,0.0,0.0,0.0,0.0,0.0,0.0,0.0,0.0,0.0,0.0,0.0,0.0,0.0,0.0,0.0,0.0,0.0,0.0,0.0,0.0,0.0,2.5327,2.8779,3.0757,3.2647,3.4457,3.4483,3.3632,3.1864,2.9629,2.7215,0.0,0.0,0.0,0.0,0.0,0.0,0.0,0.0,0.0,0.0,0.0,0.0,0.0,0.0,0.0,0.0,0.0,0.0,0.0,0.0,0.0,0.0,0.0,0.0,0.0,0.0,0.0,0.0,1.9731,1.9583,1.9583,0.0,0.0,0.0,0.0,0.0,0.0,0.0,0.0,0.0,0.0,2.8792,2.9606,3.0865,3.1668,3.1644,3.2281,3.2515,3.1636,3.1525,3.0746,2.8588,0.0,0.0,0.0,0.0,0.0,0.0,0.0,0.0,0.0,0.0,0.0,0.0,0.0,0.0,0.0,0.0,0.0,0.0,0.0,0.0,0.0,0.0,0.0,0.0,0.0,0.0,0.0,0.0,0.0,0.0,1.936,0.0,0.0,0.0,0.0,0.0,0.0,0.0,0.0,0.0,0.0,0.0,0.0,0.0,0.0,0.0,0.0,0.0,0.0,0.0,0.0,0.0,0.0,2.4675,2.8529,2.9635,3.1253,3.355,3.3538,3.2754,3.1075,2.9242,2.7102,2.4548,0.0,0.0,0.0,0.0,0.0,0.0,0.0,0.0,0.0,0.0,0.0,0.0,0.0,0.0,0.0,0.0,0.0,0.0,0.0,0.0,0.0,0.0,0.0,0.0,0.0,0.0,2.0734,2.0066,1.9583,0.0,0.0,0.0,0.0,0.0,0.0,0.0,0.0,0.0,0.0,2.831,2.9646,3.0379,3.1172,3.1644,3.1507,3.2226,3.244,3.1426,3.1272,3.0734,0.0,0.0,0.0,0.0,0.0,0.0,0.0,0.0,0.0,0.0,0.0,0.0,0.0,0.0,0.0,0.0,0.0,0.0,0.0,0.0,0.0,0.0,0.0,0.0,0.0,0.0,0.0,2.1752,2.1367,0.0,0.0,0.0,0.0,0.0,0.0,0.0,0.0,0.0,0.0,0.0,2.4266,2.4857,0.0,0.0,0.0,0.0,0.0,0.0,0.0,0.0,0.0,0.0,0.0,0.0,2.5135,2.8474,2.995,3.1574,3.3408,3.3411,3.2516,3.0794,2.953,2.7154,2.3509,0.0,0.0,0.0,0.0,0.0,0.0,0.0,0.0,0.0,0.0,0.0,0.0,0.0,0.0,0.0,0.0,0.0,0.0,0.0,0.0,0.0,0.0,0.0,0.0,0.0,2.0507,0.0,0.0,0.0,0.0,0.0,0.0,0.0,0.0,0.0,0.0,0.0,2.5523,2.7395,2.86,2.9601,3.0331,3.1057,3.1458,0.0,0.0,0.0,0.0,0.0,0.0,0.0,0.0,0.0,0.0,0.0,0.0,0.0,0.0,2.6089,2.5515,2.5364,2.5136,2.4646,0.0,0.0,0.0,0.0,0.0,0.0,0.0,0.0,0.0,0.0,0.0,0.0,0.0,0.0,2.4196,0.0,2.3959,0.0,0.0,0.0,0.0,0.0,0.0,0.0,0.0,2.5366,2.6364,2.7195,2.8049,2.8141,0.0,2.7285,2.614,0.0,0.0,0.0,0.0,0.0,0.0,0.0,0.0,2.5023,2.8384,2.9818,3.1408,3.3196,3.3214,3.2355,3.0636,2.906,2.6542,2.292,2.2272,2.1263,0.0,0.0,0.0,0.0,0.0,0.0,0.0,0.0,0.0,0.0,0.0,0.0,0.0,0.0,0.0,0.0,0.0,0.0,0.0,0.0,0.0,0.0,0.0,2.0683,0.0,0.0,0.0,0.0,0.0,0.0,0.0,0.0,0.0,2.4281,2.4875,2.5893,2.7761,2.8682,2.94,2.9853,0.0,0.0,0.0,0.0,0.0,0.0,0.0,2.9881,2.9368,2.9548,2.9801,3.0016,2.979,2.9655,2.9952,0.0,0.0,2.7588,2.7177,2.6944,2.6504,2.6327,2.6123,2.5703,2.5677,2.5884,0.0,0.0,0.0,0.0,0.0,0.0,0.0,0.0,2.7354,2.7705,0.0,2.6891,0.0,0.0,0.0,0.0,0.0,2.3715,0.0,0.0,2.8402,2.9641,3.052,3.1348,3.1679,3.1587,3.0785,2.9868,2.8717,2.4905,0.0,0.0,0.0,0.0,0.0,0.0,2.4454,2.8246,2.9251,3.0787,3.2996,3.2961,3.2152,3.057,2.7965,2.5418,2.3076,2.2824,2.2031,2.0532,1.9792,0.0,0.0,0.0,0.0,0.0,0.0,0.0,0.0,0.0,0.0,0.0,0.0,0.0,0.0,0.0,0.0,0.0,0.0,0.0,0.0,2.2825,0.0,0.0,0.0,0.0,0.0,0.0,0.0,0.0,0.0,0.0,2.4469,2.5798,2.7089,2.7975,0.0,0.0,0.0,0.0,2.9992,2.9853,3.0314,3.0686,3.0635,3.0564,3.0553,3.0695,0.0,0.0,3.2912,3.2268,3.1902,3.2795,3.2834,3.1974,2.9251,2.8729,2.8612,2.8655,2.8621,2.854,2.8619,2.8644,2.8644,3.1743,0.0,0.0,0.0,0.0,2.8655,2.9375,2.9644,3.0504,3.0567,3.0075,2.9813,0.0,0.0,0.0,0.0,0.0,0.0,2.8221,2.989,3.2145,3.3643,3.4476,3.5889,3.5944,3.4788,3.4503,3.3031,3.0448,2.9148,2.6609,2.279,0.0,0.0,0.0,0.0,2.6348,2.9034,3.0427,3.1714,3.2961,3.2722,3.1782,3.0071,2.8167,2.6506,2.5207,2.4091,2.303,2.2065,2.1325,0.0,0.0,0.0,0.0,0.0,0.0,0.0,0.0,0.0,0.0,0.0,0.0,0.0,0.0,0.0,0.0,0.0,0.0,0.0,2.2518,2.2058,2.1325,0.0,0.0,0.0,0.0,0.0,0.0,0.0,0.0,0.0,2.6348,2.7596,2.8635,0.0,0.0,3.0542,3.042,3.055,3.0567,3.0409,3.0485,0.0,3.1107,3.1164,3.1554,3.269,3.3521,3.4107,3.432,3.411,3.4021,3.4286,3.4321,3.4002,3.3235,3.2161,3.1533,3.1559,3.1528,3.1515,3.1619,3.1649,3.1643,3.7541,3.3436,3.2955,3.2128,3.135,3.2631,3.3196,3.3226,3.4068,3.4158,3.3732,3.3087,3.2065,3.0756,2.8845,0.0,0.0,0.0,3.1617,3.2965,3.5478,3.6885,3.7444,3.8715,3.8824,3.7863,3.7535,3.595,3.3286,3.2853,3.0546,2.6494,0.0,0.0,2.4366,2.5661,2.7629,3.0178,3.1373,3.237,3.3148,3.24,3.125,2.981,2.8531,2.7276,2.6143,2.5229,2.4201,2.3168,2.2436,2.148,0.0,0.0,0.0,0.0,0.0,0.0,0.0,0.0,0.0,0.0,0.0,1.9076,1.9578,0.0,0.0,0.0,2.2154,2.2666,2.2246,2.2172,0.0,0.0,0.0,0.0,0.0,0.0,0.0,2.4704,2.5415,2.6322,2.7707,2.9196,3.0083,2.9937,3.0531,3.0957,3.0846,0.0,3.1565,3.1457,3.188,3.2335,3.268,3.2717,3.3176,3.4465,3.5012,3.5454,3.5736,3.5717,3.5735,3.5735,3.5753,3.5735,3.5753,3.5012,3.4182,3.3736,3.3578,3.3578,3.3661,3.3695,3.3728,4.2876,4.1118,3.7631,3.6073,3.5982,3.6805,3.7075,3.7039,3.7739,3.8026,3.7846,3.6427,3.5313,3.4347,3.2247,0.0,3.2355,3.3934,3.508,3.5969,3.8257,3.9373,3.9481,4.0275,4.0619,4.0492,3.9805,3.8561,3.6924,3.5928,3.388,3.079,2.7804,2.6145,2.5941,2.6657,2.8494,3.1352,3.2086,3.2826,3.3512,3.2004,3.0697,2.9694,2.8951,2.7794,2.6195,2.604,2.5333,2.3874,2.3108,2.2358,2.1643,0.0,0.0,0.0,0.0,0.0,0.0,0.0,0.0,0.0,0.0,0.0,0.0,0.0,0.0,0.0,2.1844,0.0,2.2883,2.2883,0.0,0.0,0.0,2.4194,2.4956,2.5708,2.6207,2.6327,0.0,0.0,2.8576,3.0481,3.1379,3.0006,3.0481,3.0944,3.0945,3.2107,3.2882,3.2849,3.3934,3.4764,3.4711,3.4796,3.5076,3.5854,3.6066,3.6295,3.6841,3.696,3.6992,3.6921,3.6952,3.6935,3.6952,3.6833,3.6591,3.526,3.4994,3.4975,3.5066,3.4977,3.4889,4.507,4.3927,4.2493,4.0965,3.9536,4.0455,4.0517,4.006,4.0277,4.0123,3.9552,3.8582,3.7397,3.6052,3.6088,3.589,3.5603,3.7129,3.7918,3.8223,3.9851,4.0674,4.0692,4.1461,4.1554,4.0981,4.0745,3.9812,3.82,3.7269,3.5721,3.3635,3.2213,3.0404,2.8311,2.8903,2.9892,3.1245,3.2459,3.3122,3.3186,3.2246,3.1028,2.9575,2.9368,2.8265,2.6195,2.5574,2.4833,2.3839,2.3081,2.2367,2.1643,2.1468,0.0,0.0,0.0,0.0,0.0,0.0,0.0,0.0,0.0,2.0424,2.0486,0.0,2.0682,0.0,2.1475,2.2278,2.3495,2.3601,0.0,0.0,2.4902,2.5343,2.5458,2.6205,2.6943,2.7585,2.8504,2.9326,2.9857,3.0945,3.172,3.1803,3.2577,3.3303,3.3823,3.4127,3.4358,3.4306,3.457,3.4974,3.5445,3.6057,3.6426,3.6728,3.6728,3.6816,3.6974,3.7027,3.697,3.697,3.697,3.697,3.6935,3.697,3.6904,3.6573,3.6503,3.6464,3.6485,3.601,3.5588,4.6961,4.6405,4.5603,4.4585,4.3483,4.3102,4.2705,4.2427,4.2097,4.1772,4.1413,4.0289,3.9111,3.8005,3.8415,3.8397,3.8094,3.9156,3.9669,3.9722,4.0831,4.1339,4.1339,4.1782,4.1747,4.1339,4.1321,4.0678,3.9405,3.8866,3.7607,3.5612,3.5021,3.3589,3.141,3.1078,3.1497,3.2616,3.3328,3.3651,3.3519,3.2152,3.0784,2.9541,2.8868,2.7764,2.6174,2.5461,2.4717,2.3967,2.3534,2.2981,2.2219,2.2235,2.2027,0.0,0.0,0.0,0.0,0.0,0.0,0.0,0.0,0.0,0.0,0.0,2.138,2.2164,2.2629,2.3394,2.4685,2.4743,2.51,2.6111,2.6569,2.7023,2.7604,2.811,2.8599,2.9053,2.9793,3.0401,3.0765,3.1491,3.2237,3.2861,3.3406,3.4005,3.4658,3.4799,3.4799,3.4744,3.4744,3.4867,3.5267,3.5671,3.5969,3.5969,3.5952,3.5969,3.5952,3.5969,3.5969,3.5987,3.6233,3.6338,3.6057,3.6268,3.6373,3.6039,3.5969,3.6092,3.6391,3.6127,3.5741,4.8381,4.8258,4.7317,4.6969,4.6795,4.489,4.4138,4.412,4.348,4.3102,4.297,4.1538,4.0512,3.9876,3.9876,3.9876,3.9888,4.0458,4.0715,4.0725,4.1288,4.156,4.1542,4.1542,4.156,4.156,4.1542,4.1209,4.0517,4.0324,3.9233,3.7254,3.6915,3.6028,3.4649,3.3283,3.3254,3.4471,3.4289,3.4177,3.4059,3.1955,3.042,2.9506,2.8107,2.6899,2.6108,2.5363,2.4646,2.3971,2.3946,2.3685,2.311,2.3058,2.3093,0.0,2.3868,0.0,0.0,0.0,0.0,0.0,0.0,0.0,0.0,2.1551,2.2207,2.3631,2.4516,2.5308,2.6083,2.6229,2.681,2.8113,2.8287,2.8824,3.0084,3.0349,3.0402,3.0402,3.114,3.1568,3.1469,3.2068,3.2737,3.3319,3.3476,3.381,3.4512,3.4725,3.4725,3.4688,3.4688,3.4723,3.4758,3.474,3.4776,3.474,3.4811,3.4688,3.4776,3.4758,3.474,3.4793,3.5267,3.546,3.4811,3.5267,3.5425,3.4916,3.4828,3.5004,3.5495,3.5495,3.5302,4.8855,4.8588,4.722,4.6667,4.6564,4.5546,4.492,4.4673,4.4515,4.384,4.272,4.1824,4.135,4.1209,4.1209,4.1209,4.1209,4.1235,4.1243,4.1261,4.1293,4.1255,4.1255,4.1255,4.13,4.1255,4.13,4.1185,4.1028,4.0346,3.9735,3.9302,3.8563,3.7759,3.6861,0.0,0.0,0.0,3.4426,3.4133,3.4024,3.2455,3.0939,2.9609,2.8155,0.0,2.5449,2.4667,2.3919,2.3172,2.3119,0.0,0.0,0.0,0.0,0.0,0.0,0.0,0.0,0.0,0.0,0.0,2.4875,2.4567,2.4619,2.4696,2.4888,2.5214,2.5985,2.6801,2.7593,2.8223,2.8894,2.9756,2.9819,2.9898,3.012,3.0665,3.1017,3.1067,3.172,3.2194,3.2194,3.2352,3.2686,3.3301,3.3512,3.3845,3.4547,3.4635,3.467,3.4688,3.4582,3.4653,3.4688,3.4635,3.4547,3.4688,3.4688,3.4653,3.4618,3.4618,3.467,3.4635,3.4811,3.4863,3.4688,3.4828,3.4846,3.4705,3.4653,3.4723,3.4846,3.4372,3.388,4.9464,0.0,4.7786,4.7148,0.0,4.5924,4.5304,4.5093,4.4779,4.406,4.3039,4.2719,4.2352,4.1985,4.2002,4.1775,4.1408,4.129,4.1261,4.1261,4.1105,4.1041,4.1041,4.1041,4.1041,4.1041,4.1041,4.1041,4.1024,4.0614,4.0205,3.9807,3.9364,3.8767,3.8043,3.7646,3.6697,3.5197,3.4818,3.4495,3.4103,3.2651,3.1166,2.9728,2.8251,0.0,0.0,0.0,0.0,0.0,0.0,0.0,0.0,2.4769,0.0,2.5275,2.5705,2.596,2.5978,2.6643,2.711,2.7139,2.749,2.7069,2.5596,2.6186,2.6654,2.6753,2.7794,2.867,2.9119,2.943,2.9947,3.0656,3.073,3.0838,3.1194,3.1563,3.1774,3.1809,3.2142,3.2406,3.2406,3.2406,3.2546,3.288,3.2967,3.309,3.3494,3.388,3.4021,3.3652,3.3564,3.3564,3.3547,3.3547,3.3582,3.3564,3.3564,3.3564,3.3547,3.3547,3.3564,3.3599,3.3828,3.4003,3.367,3.3845,3.3986,3.3652,3.3564,3.3564,3.3582,3.3512,3.3389,5.0011,4.9873,4.8355,4.7717,4.7596,4.6008,4.5441,4.5372,0.0,0.0,0.0,4.3496,4.3145,4.2571,4.2554,4.2119,4.1343,4.1267,4.1168,4.1047,4.0935,4.0871,4.0871,4.0871,4.0871,4.0871,4.0871,4.0871,4.0871,4.0871,4.056,3.9974,3.9905,3.9526,3.8836,3.8784,3.7784,3.5928,3.5687,3.5296,3.4597,3.3006,3.1532,3.0245,2.8606,2.74,2.6737,2.595,2.5487,2.5401,2.5401,2.5524,2.5788,2.5805,2.5928,2.6244,2.6858,2.7227,2.7245,2.8403,2.9105,2.9105,2.972,2.9018,2.6402,2.7403,2.817,2.8282,2.9505,3.0314,3.0378,3.0472,3.0738,3.1352,3.1405,3.1686,3.2283,3.2406,3.2371,3.2406,3.2388,3.2406,3.2388,3.2248,3.2195,3.216,3.2037,3.1984,3.2125,3.2757,3.3161,3.2669,3.2616,3.2493,3.2441,3.2493,3.2406,3.2546,3.2493,3.2406,3.2406,3.2406,3.2406,3.2546,3.2932,3.3003,3.2599,3.2932,3.3055,3.2529,3.2265,3.2195,3.223,3.2564,3.2722,5.0011,4.9873,4.8355,4.7717,4.7596,4.6079,4.5441,4.5372,4.4647,4.4285,4.4129,4.3558,4.3212,4.3108,4.3091,4.2676,4.1885,4.1885,4.154,4.0953,4.0888,4.0871,4.0871,4.0871,4.0871,4.0871,4.0871,4.0871,4.0871,4.0871,4.0819,4.0733,4.0716,4.0319,3.9595,3.9543,3.9122,3.8295,3.7603,3.6936,3.6173,3.4102,3.2666,3.183,2.9767,2.8277,2.7531,2.683,2.6093,2.5437,2.5401,2.5998,2.728,2.7385,2.7999,2.9316,2.9544,2.9614,2.9597,2.9825,2.993,2.993,3.0053,2.9895,2.9509,2.9632,2.9772,2.9825,3.0562,3.1036,3.1105,3.1616,3.2037,3.216,3.223,3.2283,3.2388,3.2406,3.2406,3.2406,3.2406,3.2388,3.2283,3.1791,3.1423,3.13,3.0896,3.0475,3.0633,3.1651,3.2423,3.2423,3.2406,3.2406,3.2248,3.2371,3.2265,3.2406,3.23,3.223,3.2213,3.2213,3.2213,3.2335,3.2371,3.2406,3.23,3.2458,3.2406,3.2177,3.1774,3.1388,3.1352,3.1089,3.1072,5.0011,4.9821,4.8355,4.7717,4.7596,4.6079,4.5441,4.5353,4.5061,4.4889,4.4872,4.4544,4.4165,4.3836,4.3768,4.3354,4.2662,4.2181,4.1802,4.1457,4.1078,4.0871,4.0871,4.0871,4.0871,4.0871,4.0871,4.0871,4.0871,4.0871,4.0871,4.0871,4.0871,4.0698,4.0371,4.0336,4.0274,4.0019,3.8443,3.729,3.665,3.5262,3.382,3.2354,3.1233,3.0179,2.9053,2.8684,2.8333,2.7964,2.7964,2.828,2.8947,2.9,2.9351,3.0053,3.0106,3.0106,3.0106,3.0475,3.0896,3.1317,3.1352,3.1352,3.1352,3.0949,3.0703,3.072,3.1388,3.1844,3.1844,3.2177,3.2406,3.2406,3.2406,3.2406,3.2406,3.2406,3.2406,3.2406,3.2406,3.223,3.1791,3.1423,3.1019,3.065,2.993,2.9334,2.8912,2.9386,3.0194,3.0949,3.1142,3.1159,3.1177,3.1159,3.1159,3.1177,3.1159,3.1159,3.1159,3.1177,3.1177,3.1159,3.1159,3.1159,3.1177,3.1142,3.1159,3.1124,3.0914,3.0633,3.0545,3.0317,3.0422,5.0011,4.9873,4.8338,4.7527,4.7113,4.5941,4.5441,4.5441,4.5423,4.5441,4.5441,4.5441,4.5079,4.4561,4.4527,4.4113,4.3406,4.2785,4.2319,4.194,4.1405,4.1043,4.0888,4.0871,4.0871,4.0871,4.0871,4.0871,4.0871,4.0871,4.0871,4.0871,4.0871,4.0871,4.0871,4.0935,4.0982,4.1001,3.918,3.7937,3.7335,3.6269,3.4911,3.3354,3.3003,3.2213,3.0738,3.0633,3.0475,3.0141,3.0106,3.0176,3.0352,3.0352,3.044,3.0598,3.0633,3.0615,3.065,3.1124,3.1739,3.2335,3.2406,3.2406,3.2353,3.1826,3.1458,3.1528,3.2019,3.2388,3.2371,3.2388,3.2406,3.2406,3.2406,3.2406,3.2406,3.2406,3.2406,3.2406,3.2406,3.209,3.1405,3.1036,3.0545,2.9632,2.9,2.8386,2.7824,2.7701,2.828,2.9141,2.9702,2.9983,3.0036,3.0159,3.0176,3.0106,3.0159,3.0246,3.0229,3.0159,3.0124,3.0229,3.0176,3.0246,3.0159,3.0159,3.0211,3.0246,3.0053,2.9772,2.9527,2.9457,2.9737,5.0011,4.9769,4.8372,4.6906,4.5698,4.551,4.5441,4.5441,4.5441,4.5441,4.5441,4.5441,4.5389,4.5337,4.5303,4.4889,4.4199,4.4096,4.3302,4.2112,4.1923,4.1543,4.0922,4.0871,4.0871,4.0871,4.0871,4.0871,4.0871,4.0871,4.0871,4.0871,4.0871,4.0888,4.0935,4.0982,4.1123,4.1192,4.0446,3.9652,3.8821,3.6856,3.5668,3.5475,3.4828,3.3757,3.2265,3.2177,3.1545,3.0264,3.0176,3.044,3.1001,3.1107,3.1405,3.2072,3.216,3.2177,3.2177,3.2248,3.23,3.2388,3.2406,3.2406,3.2406,3.2335,3.2283,3.2265,3.2353,3.2406,3.2406,3.2406,3.2406,3.2406,3.2406,3.2406,3.2406,3.2406,3.2406,3.2406,3.2406,3.209,3.1247,3.0527,2.9562,2.8245,2.7964,2.7719,2.749,2.7455,2.7543,2.7982,2.8491,2.9228,2.9737,3.0088,2.9843,2.9913,3.0053,2.9913,2.9825,2.9878,3.0053,2.9632,2.9895,2.986,2.9913,3.0088,2.9983,2.9702,2.9334,2.8825,2.8175,2.807,2.8544,5.0011,4.9907,4.8821,4.751,4.6182,4.563,4.5441,4.5441,4.5441,4.5441,4.5441,4.5441,4.5441,4.5441,4.5441,4.5234,4.4923,4.4492,4.3716,4.2699,4.2216,4.1595,4.094,4.0871,4.0871,4.0871,4.0871,4.0871,4.0871,4.0871,4.0871,4.0871,4.0871,4.0918,4.1047,4.1064,4.1169,4.13,4.063,4.0176,3.9729,3.8088,3.6724,3.5881,3.5513,3.4881,3.3898,3.3757,3.3231,3.2213,3.2107,3.2037,3.1914,3.1897,3.2037,3.2371,3.2406,3.2406,3.2406,3.2406,3.2406,3.2406,3.2406,3.2406,3.2406,3.2406,3.2406,3.2406,3.2406,3.2406,3.2406,3.2406,3.2406,3.2406,3.2406,3.2406,3.2406,3.2406,3.2406,3.2406,3.2406,3.1897,3.0685,2.9457,2.8298,2.728,2.7069,2.6999,2.6507,2.6349,2.656,2.6964,2.735,2.7824,2.8509,2.828,2.8333,2.8579,2.8684,2.8684,2.8754,2.8684,2.8667,2.8719,2.8807,2.8789,2.8596,2.8684,2.8667,2.8667,2.8596,2.807,2.7754,2.7701,2.8087,5.0011,4.9855,4.8941,4.7786,4.6562,4.5751,4.5441,4.5441,4.5441,4.5441,4.5441,4.5441,4.5441,4.5441,4.5441,4.5441,4.5354,4.4837,4.4061,4.3199,4.2561,4.1802,4.0957,4.0871,4.0871,4.0871,4.0871,4.0871,4.0871,4.0871,4.0871,4.0935,4.0935,4.0982,4.1111,4.1157,4.1261,4.1346,4.0884,4.0622,4.0358,3.9357,3.8023,3.6619,3.6443,3.5987,3.5056,3.5004,3.4635,3.3845,3.3828,3.3459,3.2757,3.2704,3.2616,3.2423,3.2406,3.2406,3.2406,3.2406,3.2406,3.2406,3.2406,3.2406,3.2406,3.2406,3.2406,3.2406,3.2406,3.2406,3.2406,3.2406,3.2406,3.2406,3.2406,3.2406,3.2406,3.2406,3.2406,3.2406,3.2406,3.1826,3.0334,2.9,2.7894,2.7192,2.6946,2.6753,2.6191,2.6174,2.6367,2.6788,2.6771,2.6946,2.749,2.7508,2.7245,2.7438,2.7824,2.7859,2.7701,2.7719,2.7719,2.8157,2.7824,2.7754,2.7999,2.7877,2.7771,2.7719,2.7719,2.7736,2.7701,2.7701,2.7701,5.0011,4.9804,4.839,4.7355,4.6562,4.5768,4.5441,4.5441,4.5441,4.5441,4.5441,4.5441,4.5441,4.5441,4.5441,4.5441,4.5371,4.5354,4.4561,4.337,4.3147,4.2368,4.094,4.0871,4.0905,4.0991,4.0991,4.0957,4.094,4.0905,4.0871,4.0905,4.1017,4.1093,4.114,4.1307,4.138,4.1408,4.1428,4.12,4.0604,4.0411,3.9568,3.8181,3.797,3.7233,3.6004,3.5776,3.5425,3.467,3.4618,3.4266,3.3529,3.3441,3.3125,3.2546,3.2406,3.2406,3.2406,3.2406,3.2406,3.2406,3.2406,3.2406,3.2406,3.2406,3.2406,3.2406,3.2406,3.2406,3.2406,3.2406,3.2406,3.2406,3.2406,3.2406,3.2406,3.2406,3.2406,3.2388,3.2335,3.1668,3.0282,2.9386,2.8473,2.7824,2.7613,2.7526,2.742,2.7455,2.749,2.7385,2.7139,2.6876,2.7508,2.7368,2.7455,2.7683,2.7701,2.7701,2.7701,2.7701,2.7683,2.7701,2.7701,2.7701,2.7701,2.7701,2.7719,2.7701,2.7701,2.7701,2.7701,2.7701,2.7701,5.0011,4.9855,4.8372,4.7562,4.7182,4.5975,4.5441,4.5441,4.5441,4.5441,4.5441,4.5441,4.5441,4.5441,4.5441,4.5441,4.5441,4.5441,4.4854,4.3958,4.3889,4.3387,4.244,4.2403,4.2092,4.163,4.1578,4.1595,4.1578,4.1595,4.1595,4.1522,4.1254,4.1123,4.118,4.1318,4.1426,4.1515,4.1587,4.1464,4.1218,4.12,4.0674,3.9656,3.862,3.7848,3.7286,3.6829,3.6197,3.5443,3.5425,3.5056,3.4319,3.3775,3.3388,3.3108,3.2669,3.2406,3.2406,3.2406,3.2406,3.2406,3.2406,3.2406,3.2406,3.2406,3.2406,3.2406,3.2406,3.2406,3.2406,3.2406,3.2406,3.2406,3.2406,3.2406,3.2406,3.2406,3.2406,3.2335,3.2002,3.1194,3.0369,2.9421,2.8596,2.7877,2.7701,2.7701,2.7701,2.7701,2.7701,2.7666,2.749,2.7385,2.7596,2.7245,2.7104,2.7508,2.7701,2.7666,2.7648,2.7526,2.7473,2.7526,2.7578,2.7631,2.7613,2.7701,2.7701,2.7701,2.7701,2.7701,2.7701,2.7701,2.7701,4.9855,4.9441,4.8252,4.7579,4.72,4.5975,4.5441,4.5441,4.5441,4.5441,4.5441,4.5441,4.5441,4.5441,4.5441,4.5441,4.5441,4.5423,4.5027,4.432,4.4337,4.3939,4.3318,4.3232,4.2955,4.244,4.2371,4.2354,4.2371,4.2371,4.2233,4.1957,4.1618,4.1395,4.1279,4.1363,4.1515,4.1604,4.1604,4.1604,4.1604,4.1604,4.1376,4.0744,3.955,3.8585,3.8128,3.7391,3.6759,3.6285,3.618,3.5846,3.5092,3.4337,3.3775,3.3476,3.3055,3.2634,3.2423,3.2406,3.2406,3.2406,3.2406,3.2406,3.2406,3.2406,3.2406,3.2406,3.2406,3.2406,3.2406,3.2406,3.2406,3.2406,3.2406,3.2406,3.2406,3.2406,3.2406,3.2353,3.2019,3.1335,3.0562,2.9808,2.9018,2.8193,2.7894,2.7701,2.7701,2.7701,2.7701,2.7701,2.7683,2.7631,2.7701,2.742,2.7245,2.7578,2.7332,2.7368,2.7332,2.7227,2.7174,2.7297,2.742,2.749,2.7578,2.7666,2.7701,2.7701,2.7701,2.7701,2.7701,2.7701,2.7701,4.9528,4.8803,4.801,4.7286,4.6631,4.5786,4.5441,4.5441,4.5441,4.5441,4.5441,4.5441,4.5441,4.5441,4.5441,4.5441,4.5441,4.5441,4.5061,4.444,4.4389,4.4027,4.3406,4.3473,4.3387,4.3232,4.3214,4.3232,4.3214,4.3214,4.2819,4.2213,4.2233,4.1888,4.1209,4.1453,4.1604,4.1604,4.1604,4.1604,4.1604,4.1604,4.1569,4.1446,4.0709,3.9656,3.8269,3.7479,3.7023,3.6917,3.6917,3.6584,3.5846,3.5092,3.4389,3.3828,3.3547,3.3143,3.2564,3.2441,3.2406,3.2406,3.2406,3.2406,3.2406,3.2406,3.2406,3.2406,3.2406,3.2406,3.2406,3.2406,3.2406,3.2406,3.2406,3.2406,3.2406,3.2406,3.2406,3.2406,3.23,3.2019,3.1282,3.0527,2.9755,2.8895,2.8263,2.7806,2.7736,2.7701,2.7701,2.7701,2.7701,2.7701,2.7701,2.7683,2.7683,2.7631,2.7087,2.6806,2.6683,2.6578,2.6384,2.6472,2.6876,2.6999,2.7332,2.7438,2.7666,2.7701,2.7701,2.7701,2.7701,2.7701,2.7701,4.9045,4.8665,4.7476,4.682,4.651,4.5768,4.5441,4.5441,4.5441,4.5441,4.5441,4.5441,4.5441,4.5441,4.5441,4.5441,4.5441,4.5423,4.5285,4.5096,4.5061,4.4923,4.4734,4.4699,4.4458,4.4009,4.3974,4.3923,4.3923,4.3991,4.3544,4.2921,4.251,4.1992,4.1279,4.1471,4.1604,4.1604,4.1604,4.1604,4.1604,4.1604,4.1604,4.1516,4.0867,4.02,3.9726,3.8462,3.7532,3.704,3.697,3.6865,3.6531,3.5881,3.539,3.5039,3.4038,3.3441,3.3161,3.2704,3.2406,3.2406,3.2406,3.2406,3.2406,3.2406,3.2406,3.2406,3.2406,3.2406,3.2406,3.2406,3.2406,3.2406,3.2406,3.2406,3.2406,3.2406,3.2406,3.2406,3.2406,3.2055,3.1423,3.0896,3.0317,2.9228,2.8702,2.8351,2.7859,2.7736,2.7701,2.7701,2.7701,2.7701,2.7701,2.7701,2.7701,2.7543,2.7052,2.663,2.642,2.5858,2.5665,2.5752,2.6174,2.663,2.6964,2.7245,2.7455,2.7666,2.7701,2.7701,2.7701,2.7701,2.7701,4.8648,4.8269,4.7113,4.6424,4.613,4.5613,4.5441,4.5441,4.5441,4.5441,4.5441,4.5441,4.5441,4.5441,4.5441,4.5441,4.5441,4.5441,4.5441,4.5441,4.5441,4.5441,4.5441,4.5441,4.5216,4.4803,4.4716,4.4699,4.4716,4.4682,4.432,4.3611,4.3016,4.2397,4.1679,4.1565,4.156,4.1604,4.1604,4.1604,4.1604,4.1604,4.1604,4.1534,4.113,4.0779,4.0428,3.9217,3.8199,3.7496,3.7145,3.6987,3.6935,3.6496,3.6127,3.5618,3.4688,3.3828,3.3476,3.2809,3.2406,3.2406,3.2406,3.2406,3.2406,3.2406,3.2406,3.2406,3.2406,3.2406,3.2406,3.2406,3.2406,3.2406,3.2406,3.2406,3.2406,3.2406,3.2406,3.2406,3.2406,3.2125,3.1791,3.1265,3.0878,2.9895,2.9246,2.8825,2.821,2.7894,2.7789,2.7701,2.7701,2.7701,2.7701,2.7701,2.7701,2.7438,2.7087,2.6771,2.6525,2.5489,2.4927,2.5138,2.5472,2.6209,2.6595,2.6911,2.7174,2.7385,2.7631,2.7701,2.7701,2.7701,2.7701,4.8355,4.7648,4.6855,4.6096,4.5527,4.5441,4.5441,4.5441,4.5441,4.5441,4.5441,4.5441,4.5441,4.5441,4.5441,4.5441,4.5441,4.5441,4.5441,4.5441,4.5441,4.5441,4.5441,4.5441,4.5372,4.5337,4.5337,4.5372,4.5303,4.5285,4.5027,4.4233,4.366,4.3065,4.2449,4.1841,4.1733,4.1753,4.1745,4.1727,4.1622,4.1604,4.1604,4.1604,4.1534,4.1236,4.0621,3.9708,3.8831,3.8058,3.7286,3.697,3.697,3.697,3.6601,3.5969,3.5162,3.4354,3.3634,3.2862,3.2423,3.2406,3.2406,3.2406,3.2406,3.2406,3.2406,3.2406,3.2406,3.2406,3.2406,3.2406,3.2406,3.2406,3.2406,3.2406,3.2406,3.2406,3.2406,3.2406,3.2406,3.2388,3.2283,3.1721,3.1352,3.0826,2.9878,2.9176,2.8667,2.8228,2.7806,2.7701,2.7701,2.7701,2.7701,2.7701,2.7701,2.7578,2.7245,2.6964,2.6455,2.5349,2.4295,2.4471,2.484,2.5595,2.6156,2.6402,2.6841,2.721,2.7438,2.7613,2.7701,2.7701,2.7701,4.7889,4.7579,4.6286,4.5613,4.5441,4.5441,4.5441,4.5441,4.5441,4.5441,4.5441,4.5441,4.5441,4.5441,4.5441,4.5441,4.5441,4.5441,4.5441,4.5441,4.5441,4.5441,4.5441,4.5441,4.5441,4.5441,4.5441,4.5441,4.5441,4.5441,4.5044,4.432,4.418,4.3779,4.3117,4.3014,4.2806,4.2433,4.2437,4.2148,4.1657,4.1604,4.1604,4.1604,4.1604,4.1481,4.1165,4.0024,3.8655,3.7409,3.715,3.697,3.697,3.697,3.6865,3.6513,3.5425,3.4635,3.4196,3.3125,3.2476,3.2406,3.2406,3.2406,3.2406,3.2406,3.2406,3.2406,3.2406,3.2406,3.2406,3.2406,3.2406,3.2406,3.2406,3.2406,3.2406,3.2406,3.2406,3.2406,3.2406,3.2406,3.2353,3.2195,3.1809,3.1247,3.0457,2.9562,2.9088,2.8386,2.7894,2.7736,2.7701,2.7701,2.7701,2.7701,2.7701,2.7683,2.7455,2.721,2.642,2.5331,2.4295,2.3699,2.4137,2.4805,2.5314,2.57,2.6262,2.6946,2.7385,2.7648,2.7683,2.7701,2.7701,4.7545,4.7148,4.5924,4.5441,4.5441,4.5441,4.5441,4.5441,4.5441,4.5441,4.5441,4.5441,4.5441,4.5441,4.5441,4.5441,4.5441,4.5441,4.5441,4.5441,4.5441,4.5441,4.5441,4.5441,4.5441,4.5441,4.5441,4.5441,4.5441,4.5441,4.5165,4.4785,4.4543,4.4196,4.3848,4.353,4.3271,4.2707,4.2643,4.2367,4.1674,4.1604,4.1604,4.1604,4.1587,4.1499,4.1086,4.0278,3.9241,3.8169,3.7409,3.697,3.697,3.697,3.697,3.6917,3.5548,3.4688,3.4424,3.3283,3.2476,3.2406,3.2406,3.2406,3.2406,3.2406,3.2406,3.2406,3.2406,3.2406,3.2406,3.2406,3.2406,3.2406,3.2406,3.2406,3.2406,3.2406,3.2406,3.2406,3.2406,3.2406,3.2406,3.2406,3.2177,3.1721,3.1089,3.0282,2.9579,2.8737,2.8052,2.7912,2.7736,2.7701,2.7701,2.7701,2.7701,2.7683,2.7631,2.7385,2.6297,2.5261,2.4418,2.3699,2.3786,2.3979,2.4541,2.5191,2.5981,2.663,2.721,2.7613,2.7683,2.7701,2.7701,4.7269,4.6544,4.5768,4.5441,4.5441,4.5441,4.5441,4.5441,4.5441,4.5441,4.5441,4.5441,4.5441,4.5441,4.5441,4.5441,4.5441,4.5441,4.5441,4.5441,4.5441,4.5441,4.5441,4.5441,4.5441,4.5441,4.5441,4.5441,4.5441,4.5441,4.5441,4.5216,4.4716,4.4526,4.4473,4.4004,4.3287,4.287,4.2812,4.2398,4.1753,4.1604,4.1604,4.1648,4.1692,4.1454,4.1082,4.0641,4.0182,3.9388,3.7923,3.7277,3.7136,3.7027,3.7027,3.6837,3.5799,3.4937,3.4549,3.3442,3.2493,3.2441,3.2406,3.2406,3.2406,3.2406,3.2406,3.2406,3.2406,3.2406,3.2406,3.2406,3.2406,3.2406,3.2406,3.2406,3.2406,3.2406,3.2406,3.2406,3.2406,3.2406,3.2406,3.2406,3.2388,3.209,3.1475,3.0808,3.0036,2.9246,2.8579,2.8105,2.7912,2.7701,2.7701,2.7701,2.7701,2.7701,2.7701,2.7332,2.6104,2.5138,2.4453,2.3944,2.3628,2.3646,2.3962,2.4717,2.563,2.6349,2.6964,2.7385,2.7701,2.7701,2.7701,4.7269,4.6527,4.5768,4.5441,4.5441,4.5441,4.5441,4.5441,4.5441,4.5441,4.5441,4.5441,4.5441,4.5441,4.5441,4.5441,4.5441,4.5441,4.5441,4.5441,4.5441,4.5441,4.5441,4.5441,4.5441,4.5441,4.5441,4.5441,4.5441,4.5441,4.5423,4.5337,4.513,4.513,4.5027,4.4784,4.4402,4.3426,4.3276,4.2667,4.1681,4.156,4.1648,4.1754,4.1909,4.1924,4.1682,4.125,4.0597,3.974,3.8805,3.7969,3.7418,3.722,3.722,3.7008,3.6337,3.5489,3.4799,3.397,3.3142,3.2651,3.2546,3.2406,3.2406,3.2406,3.2406,3.2406,3.2406,3.2406,3.2406,3.2406,3.2406,3.2406,3.2406,3.2406,3.2406,3.2406,3.2406,3.2406,3.2406,3.2406,3.2406,3.2406,3.2371,3.2283,3.1861,3.1247,3.051,2.9755,2.9123,2.8561,2.8175,2.7964,2.7701,2.7701,2.773,2.7748,2.7748,2.7443,2.6184,2.5253,2.4638,2.3909,2.3242,2.3383,2.3628,2.4489,2.5454,2.6086,2.67,2.7227,2.7613,2.7648,2.7748,4.6751,4.6027,4.5596,4.5441,4.5441,4.5441,4.5441,4.5441,4.5441,4.5441,4.5441,4.5441,4.5441,4.5441,4.5441,4.5441,4.5441,4.5441,4.5441,4.5441,4.5441,4.5441,4.5441,4.5441,4.5441,4.5423,4.5441,4.5441,4.5441,4.5354,4.5234,4.4906,4.4889,4.4527,4.4406,4.444,4.3798,4.2982,4.2967,4.2533,4.1618,4.1604,4.178,4.1952,4.2121,4.2246,4.2239,4.2038,4.1471,4.0699,3.9872,3.8774,3.7698,3.7447,3.741,3.723,3.6627,3.6023,3.5366,3.473,3.4094,3.353,3.3231,3.3002,3.2792,3.2651,3.2406,3.2406,3.2406,3.2406,3.2406,3.2406,3.2406,3.2406,3.2406,3.2406,3.2406,3.2406,3.2406,3.2406,3.2406,3.2406,3.2406,3.2406,3.2406,3.2335,3.2318,3.1739,3.1159,3.0404,2.9685,2.9105,2.8614,2.8228,2.7841,2.773,2.7748,2.7795,2.7842,2.7395,2.6559,2.5702,2.4936,2.4101,2.3249,2.3119,2.3453,2.4383,2.5138,2.57,2.6332,2.7052,2.7578,2.7801,2.7865,4.6148,4.5441,4.5441,4.5441,4.5441,4.5441,4.5441,4.5441,4.5441,4.5441,4.5441,4.5441,4.5354,4.5234,4.5199,4.5234,4.5216,4.5216,4.5165,4.5371,4.5441,4.5441,4.5406,4.5268,4.5147,4.5234,4.5165,4.5147,4.4975,4.5027,4.4561,4.4182,4.4113,4.3906,4.3371,4.3214,4.299,4.2396,4.2419,4.2161,4.1583,4.1648,4.1892,4.2145,4.2351,4.2512,4.2631,4.2603,4.241,4.176,4.098,3.9644,3.842,3.7721,3.7631,3.7504,3.7006,3.6577,3.6132,3.5634,3.5155,3.4906,3.4288,3.3882,3.3582,3.3266,3.2932,3.2634,3.2546,3.2406,3.2406,3.2406,3.2406,3.2406,3.2406,3.2406,3.2406,3.2406,3.2406,3.2406,3.2406,3.2406,3.2406,3.2406,3.2406,3.2406,3.2388,3.223,3.1667,3.1052,3.0346,2.9589,2.9074,2.8405,2.7994,2.7806,2.7853,2.7853,2.79,2.7452,2.6896,2.6303,2.5464,2.4108,2.3397,2.3302,2.3415,2.4091,2.4795,2.5323,2.6335,2.7419,2.7842,2.8006,2.8206,4.6148,4.5441,4.5441,4.5441,4.5441,4.5441,4.5441,4.5441,4.5406,4.5371,4.5406,4.5389,4.4958,4.4613,4.4475,4.4475,4.4475,4.4492,4.4785,4.5234,4.5337,4.5337,4.5216,4.4837,4.4527,4.4458,4.444,4.4164,4.3785,4.3526,4.368,4.3406,4.3404,4.3249,4.3128,4.3162,4.2645,4.2102,4.2141,4.1917,4.1538,4.1631,4.2002,4.2333,4.2613,4.2824,4.2994,4.3032,4.2741,4.1994,4.1211,4.0302,3.9291,3.85,3.8036,3.7895,3.7769,3.734,3.677,3.6554,3.5915,3.5278,3.4889,3.4748,3.457,3.4303,3.3793,3.3213,3.2757,3.2441,3.2406,3.2406,3.2406,3.2406,3.2406,3.2406,3.2406,3.2406,3.2406,3.244,3.2406,3.2406,3.244,3.2422,3.2422,3.2457,3.2439,3.2473,3.2174,3.1608,3.0988,3.0225,2.9496,2.8771,2.8081,2.7993,2.7957,2.794,2.7915,2.7667,2.7171,2.6871,2.6012,2.4933,2.4025,2.3647,2.3848,2.4254,2.4978,2.5968,2.6957,2.7993,2.857,2.9066,2.9361,4.5768,4.5441,4.5441,4.5441,4.5441,4.5441,4.5441,4.5354,4.501,4.482,4.4699,4.444,4.4078,4.3768,4.3749,4.3716,4.3716,4.3716,4.413,4.4699,4.4837,4.4889,4.4889,4.4509,4.3919,4.3519,4.3276,4.3366,4.3232,4.3266,4.2973,4.2711,4.2659,4.2535,4.2237,4.2064,4.1977,4.1678,4.1783,4.1736,4.1398,4.1719,4.2169,4.2552,4.2862,4.3068,4.3286,4.3358,4.3298,4.2782,4.1735,4.0965,4.0198,3.9292,3.8415,3.8252,3.8186,3.8026,3.7512,3.7406,3.709,3.6612,3.6078,3.5652,3.5384,3.4993,3.4462,3.3687,3.3301,3.2809,3.2458,3.2423,3.2406,3.2406,3.2406,3.2406,3.2406,3.2422,3.2457,3.2457,3.244,3.2422,3.2439,3.2473,3.2473,3.2473,3.2507,3.2523,3.2557,3.2166,3.1565,3.0783,2.9999,2.913,2.8521,2.8326,2.8255,2.823,2.8017,2.7769,2.7565,2.7263,2.6854,2.6108,2.5308,2.4768,2.4825,2.5401,2.6012,2.6703,2.784,2.8898,2.9603,3.0149,3.0386,4.5441,4.5441,4.5441,4.5441,4.5406,4.5234,4.5165,4.5044,4.4371,4.4112,4.4026,4.3542,4.3197,4.2955,4.2834,4.28,4.2888,4.2923,4.3354,4.3991,4.4112,4.4163,4.4196,4.4019,4.3496,4.2728,4.2258,4.2384,4.2552,4.2639,4.2414,4.2133,4.2025,4.1764,4.1389,4.1424,4.1209,4.1255,4.1363,4.1471,4.1631,4.1977,4.2391,4.2822,4.3049,4.3286,4.3497,4.36,4.3468,4.3,4.2129,4.1182,4.0831,3.9686,3.8799,3.8501,3.8437,3.8336,3.8234,3.8099,3.7923,3.7679,3.7146,3.6738,3.6273,3.5667,3.4833,3.4091,3.3511,3.3265,3.2809,3.2511,3.2423,3.2406,3.2388,3.2422,3.2457,3.2473,3.2523,3.2489,3.2439,3.2473,3.2523,3.2523,3.2523,3.2557,3.2539,3.2641,3.2623,3.2657,3.2107,3.1324,3.0503,2.958,2.8994,2.8692,2.8667,2.866,2.834,2.8002,2.7861,2.7692,2.7415,2.737,2.7289,2.6851,2.6712,2.6561,2.7085,2.7853,2.8933,2.9758,3.0327,3.0815,3.1142,4.5441,4.5423,4.5406,4.5441,4.5268,4.4682,4.4406,4.432,4.3663,4.3352,4.3285,4.3113,4.2681,4.2147,4.1492,4.1595,4.1957,4.2181,4.2612,4.3387,4.3506,4.3556,4.3415,4.2819,4.2827,4.2265,4.1725,4.1418,4.1667,4.1685,4.1528,4.1406,4.1441,4.1296,4.129,4.13,4.1209,4.1255,4.1453,4.178,4.2163,4.2391,4.267,4.2994,4.3286,4.3497,4.36,4.3682,4.3527,4.2696,4.1846,4.0979,4.0258,3.9427,3.8984,3.8803,3.8743,3.8701,3.8609,3.8465,3.835,3.8223,3.7889,3.7736,3.7167,3.6466,3.5731,3.5548,3.446,3.3582,3.3248,3.2792,3.2529,3.244,3.2457,3.2473,3.2507,3.2574,3.259,3.2606,3.259,3.259,3.2606,3.2606,3.2606,3.2606,3.2606,3.269,3.274,3.2773,3.2503,3.1662,3.1146,3.0273,2.9744,2.9423,2.9315,2.9262,2.8969,2.8621,2.8676,2.8748,2.8865,2.882,2.8792,2.8693,2.8386,2.8252,2.8368,2.9053,3.0243,3.0677,3.0939,3.1384,3.1856,4.4147,4.4165,4.4147,4.4165,4.4096,4.3785,4.3698,4.3542,4.2837,4.2492,4.2388,4.2026,4.1664,4.1384,4.0974,4.1108,4.1319,4.1436,4.2078,4.299,4.3262,4.3377,4.3374,4.3171,4.2917,4.202,4.1663,4.1541,4.1408,4.1255,4.1209,4.1318,4.13,4.138,4.1391,4.148,4.1542,4.1631,4.1762,4.2061,4.2391,4.2613,4.2844,4.3196,4.341,4.3582,4.3734,4.3781,4.3458,4.2674,4.1908,4.1111,4.0314,3.9555,3.9007,3.8989,3.895,3.8881,3.881,3.8701,3.8578,3.8501,3.8289,3.8,3.7667,3.7164,3.6461,3.5887,3.5359,3.4566,3.3776,3.3284,3.2897,3.2685,3.2664,3.2574,3.2608,3.2674,3.2722,3.2705,3.2737,3.277,3.277,3.2755,3.2755,3.277,3.277,3.2802,3.282,3.2852,3.2438,3.1839,3.1464,3.1082,3.0628,3.0263,3.0227,3.0202,3.0204,2.9926,2.9935,2.9981,2.9999,3.017,3.0223,3.0104,2.993,3.0158,3.0404,3.0965,3.1564,3.1754,3.1924,3.221,3.2665,4.2866,4.2711,4.3091,4.3214,4.318,4.3074,4.297,4.2884,4.2141,4.1795,4.1657,4.1259,4.1017,4.0982,4.1029,4.1047,4.1029,4.0965,4.1778,4.2639,4.3152,4.3301,4.3398,4.3388,4.2882,4.1868,4.1683,4.1577,4.1498,4.1453,4.1363,4.1426,4.1471,4.1498,4.1648,4.1736,4.178,4.1977,4.2145,4.2409,4.2688,4.2788,4.305,4.3321,4.3495,4.3682,4.3846,4.3632,4.32,4.2433,4.1627,4.0762,3.9993,3.9407,3.9092,3.9073,3.9036,3.9007,3.8939,3.8851,3.8799,3.8658,3.8483,3.8186,3.788,3.7613,3.7287,3.6535,3.6091,3.5294,3.4534,3.4147,3.3635,3.3263,3.2995,3.2818,3.276,3.2948,3.2977,3.2852,3.2866,3.293,3.293,3.2916,3.2934,3.2948,3.2948,3.293,3.293,3.2948,3.2711,3.2253,3.2163,3.1978,3.1721,3.1402,3.1294,3.1127,3.1156,3.1012,3.0857,3.0919,3.0972,3.1188,3.1539,3.1829,3.1868,3.2188,3.2465,3.2572,3.2676,3.279,3.2957,3.3222,3.3629,4.1903,4.1441,4.2705,4.3192,4.319,4.2662,4.2432,4.2362,4.1615,4.1319,4.1354,4.118,4.1163,4.1163,4.1163,4.1163,4.1163,4.1163,4.1771,4.2288,4.2626,4.3109,4.3296,4.3168,4.284,4.2447,4.1938,4.1622,4.1604,4.1542,4.156,4.156,4.156,4.1648,4.178,4.1849,4.2103,4.2292,4.2494,4.2727,4.2994,4.316,4.3303,4.3513,4.3716,4.3846,4.386,4.333,4.2619,4.185,4.107,4.0253,3.9547,3.9231,3.9101,3.9101,3.9101,3.9073,3.9017,3.895,3.891,3.8803,3.8634,3.8364,3.8101,3.7933,3.7685,3.7381,3.6827,3.631,3.574,3.5296,3.4641,3.4107,3.3819,3.3692,3.3547,3.338,3.3355,3.3086,3.3064,3.3252,3.3104,3.306,3.3011,3.3042,3.3042,3.3024,3.3024,3.3042,3.3055,3.2888,3.2955,3.2883,3.2859,3.2613,3.2281,3.2101,3.2028,3.1798,3.1539,3.1689,3.2107,3.2348,3.2718,3.3247,3.3611,3.3358,3.3271,3.358,3.3747,3.3703,3.4054,3.446,3.4899,4.1441,4.1261,4.1888,4.205,4.1985,4.1754,4.1661,4.1627,4.1331,4.1209,4.1209,4.1209,4.1209,4.1209,4.1209,4.1209,4.1209,4.1209,4.1714,4.2405,4.294,4.3156,4.3238,4.3179,4.3044,4.2271,4.1745,4.1604,4.1604,4.1604,4.1604,4.1604,4.1604,4.1675,4.1762,4.2044,4.2356,4.2652,4.2882,4.3105,4.3304,4.3444,4.3563,4.3749,4.38,4.3929,4.3849,4.3194,4.2426,4.1627,4.0828,3.9993,3.925,3.912,3.9101,3.9101,3.9101,3.9101,3.9101,3.9007,3.8968,3.8881,3.8743,3.8572,3.8364,3.8285,3.8138,3.7823,3.754,3.7128,3.6468,3.6182,3.5771,3.5162,3.482,3.4691,3.4473,3.4253,3.4074,3.3962,3.3782,3.3728,3.3471,3.3214,3.3165,3.3117,3.3117,3.3135,3.3135,3.3165,3.3165,3.3226,3.3256,3.3327,3.3302,3.3201,3.3122,3.3003,3.2908,3.2746,3.2582,3.3099,3.3488,3.3647,3.3658,3.391,3.4008,3.3957,3.4032,3.4227,3.4367,3.4419,3.4936,3.5637,3.618,4.13,4.1318,4.1426,4.1363,4.1255,4.1318,4.13,4.13,4.13,4.13,4.1318,4.13,4.13,4.13,4.13,4.1346,4.1346,4.1415,4.1904,4.2445,4.2964,4.3203,4.3249,4.3156,4.2921,4.2043,4.1657,4.1604,4.1604,4.1604,4.1648,4.1648,4.1648,4.1736,4.1952,4.231,4.2652,4.2938,4.316,4.3358,4.3513,4.3649,4.3716,4.3865,4.3929,4.3942,4.3769,4.3225,4.2426,4.1627,4.081,3.9993,3.9417,3.9101,3.9101,3.9101,3.9101,3.9101,3.9073,3.9045,3.9007,3.8939,3.8892,3.8773,3.8664,3.8603,3.8478,3.8234,3.8114,3.7899,3.7202,3.7184,3.6859,3.6262,3.6049,3.5883,3.5489,3.5214,3.5038,3.4893,3.4622,3.422,3.39,3.3587,3.3286,3.3256,3.3256,3.3256,3.3226,3.3256,3.3286,3.3345,3.3422,3.352,3.3597,3.3561,3.3558,3.3688,3.3635,3.3827,3.39,3.4245,3.4293,3.4149,3.4176,3.4413,3.4394,3.4282,3.4502,3.482,3.524,3.5885,3.611,3.6827,3.7488,4.1471,4.1604,4.1604,4.1515,4.1426,4.156,4.1542,4.1542,4.156,4.156,4.156,4.1542,4.1542,4.156,4.1498,4.1498,4.1498,4.1577,4.1928,4.2507,4.2858,4.3173,4.3272,4.3114,4.2798,4.2605,4.2043,4.1604,4.1604,4.1648,4.1692,4.1823,4.1866,4.1952,4.2072,4.2508,4.2899,4.3104,4.3358,4.3532,4.3634,4.3767,4.3865,4.3929,4.3961,4.3974,4.3838,4.3225,4.25,4.185,4.0884,4.0067,3.9435,3.9175,3.9101,3.9101,3.9101,3.9101,3.9101,3.9101,3.9064,3.9007,3.8979,3.895,3.8892,3.8862,3.8815,3.8585,3.8585,3.8523,3.8355,3.8237,3.7758,3.7484,3.7252,3.7057,3.6692,3.6479,3.637,3.6012,3.5314,3.4743,3.4382,3.4025,3.3549,3.3375,3.3393,3.3364,3.3364,3.3345,3.3375,3.3462,3.3549,3.3716,3.3807,3.3939,3.403,3.4167,3.4245,3.4316,3.4363,3.4409,3.445,3.4495,3.4517,3.4517,3.458,3.462,3.5083,3.5698,3.7014,3.7657,3.7793,3.7925,3.845,4.156,4.1604,4.1604,4.156,4.156,4.156,4.1604,4.1604,4.1604,4.1604,4.1604,4.1604,4.1604,4.1604,4.1604,4.1604,4.1604,4.1604,4.1903,4.2043,4.2482,4.2464,4.2552,4.2658,4.25,4.2078,4.1657,4.1648,4.1736,4.1736,4.1866,4.1995,4.2187,4.2369,4.2508,4.2822,4.3104,4.3323,4.3569,4.3738,4.3771,4.3865,4.3942,4.3942,4.3974,4.4005,4.3968,4.3262,4.2723,4.2203,4.1274,4.0383,3.9863,3.9621,3.9157,3.912,3.9101,3.9101,3.9129,3.9129,3.9129,3.912,3.912,3.912,3.9045,3.9166,3.9092,3.8989,3.8931,3.8884,3.8836,3.8807,3.8501,3.8519,3.8379,3.8302,3.8088,3.7973,3.7814,3.7223,3.6611,3.5593,3.4987,3.4217,3.3686,3.352,3.3491,3.3452,3.3393,3.3452,3.3462,3.3587,3.3698,3.386,3.3991,3.4124,3.424,3.4358,3.4427,3.4495,3.4539,3.4539,3.4539,3.4539,3.458,3.4602,3.4695,3.494,3.5803,3.6704,3.7624,3.8525,3.8751,3.8869,3.9169,4.1604,4.1604,4.1604,4.1604,4.1604,4.1604,4.1604,4.1604,4.1648,4.1692,4.1692,4.1692,4.1692,4.1648,4.1604,4.1604,4.1604,4.1604,4.1604,4.1674,4.2096,4.2061,4.2008,4.2096,4.2026,4.1674,4.1604,4.1648,4.178,4.1823,4.2037,4.231,4.2609,4.2747,4.29,4.3068,4.3233,4.3446,4.3652,4.3804,4.3851,4.3929,4.4005,4.4005,4.4005,4.4005,4.3856,4.3522,4.3076,4.2575,4.1906,4.1033,4.068,4.0104,3.9602,3.9528,3.9212,3.9333,3.9528,3.9686,3.9742,3.9704,3.948,3.9248,3.9229,3.9328,3.932,3.9248,3.9229,3.9202,3.9175,3.9147,3.9147,3.9101,3.9055,3.8933,3.8886,3.8736,3.8633,3.8095,3.744,3.6472,3.5423,3.4541,3.3771,3.3671,3.3633,3.3549,3.3509,3.3549,3.3615,3.3707,3.3842,3.3998,3.4173,3.4293,3.4427,3.4536,3.458,3.4602,3.4602,3.4561,3.4602,3.4602,3.4602,3.4639,3.4808,3.524,3.5878,3.6648,3.753,3.845,3.9414,3.962,3.962,4.1604,4.1604,4.1604,4.1604,4.1604,4.1648,4.1648,4.1604,4.1754,4.178,4.178,4.1797,4.1797,4.178,4.1692,4.1648,4.1648,4.1648,4.1648,4.1648,4.1886,4.1701,4.1701,4.1754,4.1816,4.1719,4.1648,4.1754,4.1823,4.2019,4.2269,4.2609,4.2936,4.3087,4.3214,4.3304,4.3411,4.3584,4.3701,4.3818,4.3897,4.3961,4.4005,4.4005,4.4005,4.4005,4.3949,4.3838,4.3485,4.3095,4.2686,4.2222,4.1646,4.0866,4.0568,4.0141,3.9575,3.9853,4.0179,4.0337,4.0429,4.028,3.9904,3.9605,3.9418,3.9425,3.9425,3.9425,3.9406,3.9399,3.9399,3.9399,3.9354,3.9328,3.9283,3.921,3.9183,3.9137,3.9064,3.8628,3.7978,3.7042,3.5832,3.4874,3.3947,3.3895,3.3842,3.3807,3.3753,3.3716,3.3807,3.3895,3.4049,3.4197,3.4335,3.445,3.4495,3.458,3.458,3.4602,3.4602,3.4602,3.4602,3.4602,3.4602,3.4658,3.4752,3.5127,3.5709,3.6535,3.7418,3.8094,3.8939,3.9508,3.962,4.1902,4.1902,4.1858,4.1858,4.1902,4.1952,4.1866,4.1797,4.1884,4.1945,4.1962,4.1962,4.197,4.1945,4.1902,4.1902,4.1902,4.1902,4.1902,4.1902,4.1884,4.1884,4.1902,4.1902,4.1902,4.1902,4.1902,4.1927,4.2079,4.231,4.267,4.3031,4.3251,4.3375,4.3479,4.3566,4.3652,4.3701,4.38,4.3865,4.3929,4.3992,4.4005,4.4005,4.4005,4.4005,4.4005,4.4005,4.3745,4.367,4.3058,4.2593,4.2482,4.1683,4.1155,4.0524,4.0281,4.0373,4.0616,4.1137,4.1258,4.0836,4.0431,4.0019,3.9745,3.952,3.9546,3.9546,3.9527,3.952,3.952,3.9502,3.9502,3.9476,3.9432,3.9406,3.938,3.9354,3.9309,3.9021,3.8369,3.7299,3.6112,3.4946,3.4148,3.4105,3.408,3.4049,3.3998,3.3947,3.3972,3.4074,3.4197,3.4335,3.4427,3.4517,3.4558,3.4602,3.4602,3.4602,3.4602,3.4602,3.4602,3.4602,3.4602,3.4602,3.462,3.509,3.5653,3.6423,3.7268,3.785,3.845,3.9107,3.9602,4.1831,4.2097,4.2097,4.2115,4.2139,4.2205,4.2003,4.1748,4.2062,4.2222,4.2222,4.2287,4.2287,4.2287,4.2246,4.2205,4.2163,4.2163,4.2163,4.2115,4.2157,4.2115,4.2115,4.2097,4.2097,4.2115,4.2139,4.2121,4.231,4.2688,4.3067,4.3269,4.3444,4.3548,4.3667,4.3753,4.3851,4.3865,4.3897,4.3929,4.3961,4.3974,4.4005,4.4005,4.4005,4.4005,4.4005,4.4005,4.4005,4.4005,4.3392,4.333,4.3211,4.2608,4.1818,4.126,4.1064,4.1361,4.1725,4.1715,4.1592,4.129,4.0922,4.0321,3.989,3.9552,3.9596,3.9596,3.9596,3.9596,3.962,3.962,3.962,3.9596,3.9596,3.9571,3.9571,3.9546,3.9408,3.9214,3.844,3.7386,3.6259,3.5114,3.4381,3.4316,3.4293,3.4269,3.4221,3.4173,3.4173,3.4245,3.434,3.445,3.4517,3.4561,3.4602,3.4602,3.4602,3.4602,3.4602,3.4602,3.4602,3.4602,3.4602,3.4639,3.4695,3.5108,3.5653,3.6479,3.7286,3.7943,3.8544,3.907,3.947,4.1471,4.2119,4.2149,4.2065,4.2154,4.2127,4.183,4.1479,4.2019,4.2415,4.2343,4.2438,4.2384,4.2307,4.2322,4.2386,4.244,4.2436,4.2432,4.2369,4.2409,4.2409,4.2409,4.2369,4.2409,4.2369,4.2369,4.2472,4.2591,4.288,4.3196,4.3411,4.3532,4.3667,4.3786,4.3883,4.3947,4.3961,4.3961,4.3961,4.3992,4.4005,4.4005,4.4005,4.4005,4.4005,4.4005,4.4005,4.4005,4.3986,4.3999,4.4011,4.3793,4.3322,4.2548,4.2221,4.1968,4.2239,4.2491,4.2481,4.2115,4.1728,4.1267,4.0459,3.9896,3.9614,3.962,3.962,3.962,3.962,3.962,3.962,3.962,3.962,3.9596,3.9596,3.9596,3.9571,3.9514,3.9133,3.8214,3.7258,3.6691,3.5562,3.4491,3.4473,3.4473,3.445,3.4409,3.4363,3.4363,3.4404,3.4473,3.4536,3.4558,3.4602,3.4602,3.4602,3.4602,3.4602,3.4602,3.4602,3.4602,3.4602,3.4602,3.4752,3.4921,3.5334,3.5897,3.6723,3.7493,3.8131,3.8694,3.9201,3.9408,4.0762,4.0924,4.0924,4.0942,4.0924,4.0998,4.0963,4.0835,4.1141,4.1197,4.1053,4.1089,4.1451,4.1959,4.2067,4.221,4.2643,4.2772,4.275,4.2768,4.2729,4.2747,4.2747,4.2729,4.2729,4.2729,4.2768,4.2806,4.2975,4.3123,4.3322,4.3532,4.3667,4.3786,4.3883,4.3929,4.3992,4.4005,4.3974,4.3992,4.4005,4.4005,4.4005,4.4005,4.4005,4.4005,4.4005,4.4005,4.4055,4.4135,4.4153,4.4214,4.4218,4.3558,4.3138,4.2922,4.2893,4.3071,4.2996,4.2873,4.2441,4.1804,4.1191,4.044,3.9915,3.9733,3.9639,3.9639,3.962,3.962,3.962,3.962,3.962,3.962,3.962,3.962,3.962,3.962,3.962,3.8906,3.7962,3.7305,3.6817,3.5991,3.4974,3.458,3.458,3.458,3.4539,3.4517,3.4495,3.4517,3.4539,3.4602,3.4602,3.4602,3.4602,3.4602,3.4602,3.4602,3.4602,3.4602,3.4602,3.4602,3.4639,3.4846,3.5165,3.5634,3.6273,3.7117,3.785,3.8582,3.8995,3.947,3.9545,4.0411,4.0702,4.0704,4.0669,4.0688,4.0704,4.0539,4.0349,4.0412,4.0193,3.9999,4.0495,4.1097,4.1643,4.1862,4.212,4.2704,4.3068,4.3159,4.316,4.3105,4.305,4.305,4.3032,4.3013,4.305,4.3032,4.3123,4.3322,4.3358,4.3463,4.3686,4.3786,4.3851,4.3897,4.3961,4.4005,4.4005,4.4005,4.4005,4.4005,4.4005,4.4005,4.4005,4.4005,4.4005,4.4055,4.4036,4.4135,4.4214,4.4274,4.4304,4.4288,4.4055,4.3858,4.3783,4.3755,4.367,4.3332,4.29,4.2431,4.1605,4.0741,3.984,3.9915,3.9789,3.9877,3.9877,3.9658,3.962,3.962,3.962,3.962,3.962,3.962,3.962,3.962,3.962,3.962,3.9376,3.8362,3.7268,3.6629,3.5653,3.4808,3.4602,3.4602,3.4602,3.4602,3.4602,3.4602,3.4602,3.4602,3.4602,3.4602,3.4602,3.4602,3.4602,3.4602,3.4602,3.4602,3.4602,3.4602,3.462,3.4752,3.5052,3.5409,3.6066,3.6855,3.7737,3.8413,3.907,3.9414,3.962,3.962,4.011,4.0703,4.0694,4.0628,4.0665,4.0562,4.0229,3.9827,3.9753,3.9479,3.9183,4.0314,4.0917,4.1391,4.1796,4.2138,4.2529,4.2923,4.3217,4.3461,4.341,4.3391,4.3356,4.3304,4.3322,4.3322,4.3304,4.3375,4.3532,4.3532,4.3618,4.3786,4.3851,4.3915,4.3929,4.3961,4.4005,4.4005,4.4005,4.4005,4.4005,4.4005,4.4005,4.4005,4.4005,4.4005,4.4055,4.4104,4.4184,4.4255,4.4344,4.4401,4.4411,4.4327,4.4374,4.4299,4.428,4.3933,4.3369,4.2581,4.1792,4.0929,4.0065,3.9789,3.9877,4.0103,4.0234,4.0309,4.0084,4.0015,4.0015,3.9996,3.9996,3.9902,3.9902,3.9677,3.9658,3.9639,3.9602,3.9583,3.8625,3.746,3.6558,3.5562,3.4999,3.4773,3.4623,3.4602,3.4602,3.4602,3.4602,3.4602,3.4602,3.4602,3.4602,3.4602,3.4602,3.4602,3.4602,3.4602,3.4602,3.4602,3.462,3.4639,3.4827,3.5334,3.6047,3.6761,3.7568,3.8338,3.8826,3.9357,3.9476,3.9645,3.9645,3.9314,3.948,3.9452,3.9431,3.939,3.9361,3.925,3.911,3.9091,3.9021,3.9024,3.9172,3.9679,4.0332,4.0425,4.0985,4.2147,4.259,4.3217,4.3627,4.3502,4.3575,4.3667,4.3584,4.3671,4.3652,4.3618,4.3686,4.3701,4.3719,4.3786,4.3883,4.3883,4.3929,4.3992,4.4005,4.4005,4.4005,4.4005,4.4005,4.4005,4.4005,4.4005,4.4005,4.4005,4.4055,4.4135,4.4184,4.4255,4.4325,4.4411,4.444,4.4468,4.4468,4.4496,4.4496,4.4496,4.3933,4.32,4.2449,4.1642,4.0872,4.0253,4.0103,4.0365,4.0797,4.1079,4.1586,4.1454,4.1436,4.1417,4.1323,4.1267,4.0985,4.0854,4.0184,3.9789,3.9695,3.9602,3.9363,3.8823,3.7939,3.7209,3.6268,3.5383,3.508,3.4701,3.4682,3.4645,3.4623,3.4623,3.4623,3.4623,3.4602,3.4602,3.4602,3.4602,3.4602,3.4623,3.4623,3.4623,3.4602,3.4642,3.4682,3.5262,3.5919,3.6652,3.7314,3.8193,3.893,3.9245,3.9583,3.9669,3.9693,3.9698]},{"header":{"parameterUnit":"m.s-1","parameterCategory":1,"la1":31.0,"la2":29.5877,"lo1":-88.7671,"lo2":-86.6584,"dy":0.0162,"dx":0.0185,"nx":115,"ny":88,"refTime":"2023-09-12T12:00:00:Z","depth":0,"parameterNumber":3,"parameterNumberName":"V-component_of_WINDS"},"data":[0.0,0.0,0.0,0.0,0.0,0.0,0.0,0.0,0.0,0.0,0.0,0.0,0.0,0.0,0.0,0.0,0.0,0.0,0.0,0.0,0.0,0.0,0.0,0.0,0.0,0.0,0.0,0.0,0.0,0.0,0.0,0.0,0.0,0.0,0.0,0.0,0.0,0.0,0.0,0.0,0.0,0.0,0.0,0.0,0.0,0.0,0.0,0.0,0.0,0.0,0.0,0.0,0.0,0.0,0.0,0.0,0.0,0.0,0.0,0.0,0.0,0.0,0.0,0.0,0.0,0.0,0.0,0.0,0.0,0.0,0.0,0.0,0.0,0.0,0.0,0.0,0.0,0.0,0.0,0.0,0.0,0.0,0.0,0.0,0.0,0.0,0.0,0.0,0.0,0.0,0.0,0.0,0.0,0.0,0.0,0.0,0.0,0.0,0.0,0.0,0.0,0.0,0.0,0.0,0.0,0.0,0.0,0.0,0.0,0.0,0.0,0.0,0.0,0.0,0.0,0.0,0.0,0.0,0.0,0.0,0.0,0.0,0.0,0.0,0.0,0.0,0.0,0.0,0.0,0.0,0.0,0.0,0.0,0.0,0.0,0.0,0.0,0.0,0.0,0.0,0.0,0.0,0.0,0.0,0.0,0.0,0.0,0.0,0.0,0.0,0.0,0.0,0.0,0.0,0.0,0.0,0.0,0.0,0.0,0.0,0.0,0.0,0.0,0.0,0.0,0.0,0.0,0.0,0.0,0.0,0.0,0.0,0.0,0.0,0.0,0.0,0.0,0.0,0.0,0.0,0.0,0.0,0.0,0.0,0.0,0.0,0.0,0.0,0.0,0.0,0.0,0.0,0.0,0.0,0.0,0.0,0.0,0.0,0.0,0.0,0.0,0.0,0.0,0.0,0.0,0.0,0.0,0.0,0.0,0.0,0.0,0.0,0.0,0.0,0.0,0.0,0.0,0.0,0.0,0.0,0.0,0.0,0.0,0.0,0.0,0.0,0.0,0.0,0.0,0.0,0.0,0.0,0.0,0.0,0.0,0.0,0.0,0.0,0.0,0.0,0.0,0.0,0.0,0.0,0.0,0.0,0.0,0.0,0.0,0.0,0.0,0.0,0.0,0.0,0.0,0.0,0.0,0.0,0.0,0.0,0.0,0.0,0.0,0.0,0.0,0.0,0.0,0.0,0.0,0.0,0.0,0.0,0.0,0.0,0.0,0.0,0.0,0.0,0.0,0.0,0.0,0.0,0.0,0.0,0.0,0.0,0.0,0.0,0.0,0.0,0.0,0.0,0.0,0.0,0.0,0.0,0.0,0.0,0.0,0.0,0.0,0.0,0.0,0.0,0.0,0.0,0.0,0.0,0.0,0.0,0.0,0.0,0.0,0.0,0.0,0.0,0.0,0.0,0.0,0.0,0.0,0.0,0.0,0.0,0.0,0.0,0.0,0.0,0.0,0.0,0.0,0.0,0.0,0.0,0.0,0.0,0.0,0.0,0.0,0.0,0.0,0.0,0.0,0.0,0.0,0.0,0.0,0.0,0.0,0.0,0.0,0.0,0.0,0.0,0.0,0.0,0.0,0.0,0.0,0.0,0.0,0.0,0.0,0.0,0.0,0.0,0.0,0.0,0.0,0.0,0.0,0.0,0.0,0.0,0.0,0.0,0.0,0.0,0.0,0.0,0.0,0.0,0.0,0.0,0.0,0.0,0.0,0.0,0.0,0.0,0.0,0.0,0.0,0.0,0.0,0.0,0.0,0.0,0.0,0.0,0.0,0.0,0.0,0.0,0.0,0.0,0.0,0.0,0.0,0.0,0.0,0.0,0.0,0.0,0.0,0.0,0.0,0.0,0.0,0.0,0.0,0.0,0.0,0.0,0.0,0.0,0.0,0.0,0.0,0.0,0.0,0.0,0.0,0.0,0.0,0.0,0.0,0.0,0.0,0.0,0.0,0.0,0.0,0.0,0.0,0.0,0.0,0.0,0.0,0.0,0.0,0.0,0.0,0.0,0.0,0.0,0.0,0.0,0.0,0.0,0.0,0.0,0.0,0.0,0.0,0.0,0.0,0.0,0.0,0.0,0.0,0.0,0.0,0.0,0.0,0.0,0.0,0.0,0.0,0.0,0.0,0.0,0.0,0.0,0.0,0.0,0.0,0.0,0.0,0.0,0.0,0.0,0.0,0.0,0.0,0.0,0.0,0.0,0.0,0.0,0.0,0.0,0.0,0.0,0.0,0.0,0.0,0.0,0.0,0.0,0.0,0.0,0.0,0.0,0.0,0.0,0.0,0.0,0.0,0.0,0.0,0.0,0.0,0.0,0.0,0.0,0.0,0.0,0.0,0.0,0.0,0.0,0.0,0.0,0.0,0.0,0.0,0.0,0.0,0.0,0.0,0.0,0.0,0.0,0.0,0.0,0.0,0.0,0.0,0.0,0.0,0.0,0.0,0.0,0.0,0.0,0.0,0.0,0.0,0.0,0.0,0.0,0.0,0.0,0.0,0.0,0.0,0.0,0.0,0.0,0.0,0.0,0.0,0.0,0.0,0.0,0.0,0.0,0.0,0.0,0.0,0.0,0.0,0.0,0.0,0.0,0.0,0.0,0.0,0.0,0.0,0.0,0.0,0.0,0.0,0.0,0.0,0.0,0.0,0.0,0.0,0.0,0.0,0.0,0.0,0.0,0.0,0.0,0.0,0.0,0.0,0.0,0.0,0.0,0.0,0.0,0.0,0.0,0.0,0.0,0.0,0.0,0.0,0.0,0.0,0.0,0.0,0.0,0.0,0.0,0.0,0.0,0.0,0.0,0.0,0.0,0.0,0.0,0.0,0.0,0.0,0.0,0.0,0.0,0.0,0.0,0.0,0.0,0.0,0.0,0.0,0.0,0.0,0.0,0.0,0.0,0.0,0.0,0.0,0.0,0.0,0.0,0.0,0.0,0.0,0.0,0.0,0.0,0.0,0.0,0.0,0.0,0.0,0.0,0.0,0.0,0.0,0.0,0.0,0.0,0.0,0.0,0.0,0.0,0.0,0.0,0.0,0.0,0.0,0.0,0.0,0.0,0.0,0.0,0.0,0.0,0.0,0.0,0.0,0.0,0.0,0.0,0.0,0.0,0.0,0.0,0.0,0.0,0.0,0.0,0.0,0.0,0.0,0.0,0.0,0.0,0.0,0.0,0.0,0.0,0.0,0.0,0.0,0.0,0.0,0.0,0.0,0.0,0.0,0.0,0.0,0.0,0.0,0.0,0.0,0.0,0.0,0.0,0.0,0.0,0.0,0.0,0.0,0.0,0.0,0.0,0.0,0.0,0.0,0.0,0.0,0.0,0.0,0.0,0.0,0.0,0.0,0.0,0.0,0.0,0.0,0.0,0.0,0.0,0.0,0.0,0.0,0.0,0.0,0.0,0.0,0.0,0.0,0.0,0.0,0.0,0.0,0.0,0.0,0.0,0.0,0.0,0.0,0.0,0.0,0.0,0.0,0.0,0.0,0.0,0.0,0.0,0.0,0.0,0.0,0.0,0.0,0.0,0.0,0.0,0.0,0.0,0.0,0.0,0.0,0.0,0.0,0.0,0.0,0.0,0.0,0.0,0.0,0.0,0.0,0.0,0.0,0.0,0.0,0.0,0.0,0.0,0.0,0.0,0.0,0.0,0.0,0.0,0.0,0.0,0.0,0.0,0.0,0.0,0.0,0.0,0.0,0.0,0.0,0.0,0.0,0.0,0.0,0.0,0.0,0.0,0.0,0.0,0.0,0.0,0.0,0.0,0.0,0.0,0.0,0.0,0.0,0.0,0.0,0.0,0.0,0.0,0.0,0.0,0.0,0.0,0.0,0.0,0.0,0.0,0.0,0.0,0.0,0.0,0.0,0.0,0.0,0.0,0.0,0.0,0.0,0.0,0.0,0.0,0.0,0.0,0.0,0.0,0.0,0.0,0.0,0.0,0.0,0.0,0.0,0.0,0.0,0.0,0.0,0.0,0.0,0.0,0.0,0.0,0.0,0.0,0.0,0.0,0.0,0.0,0.0,0.0,0.0,0.0,0.0,0.0,0.0,0.0,0.0,0.0,0.0,0.0,0.0,0.0,0.0,0.0,0.0,0.0,0.0,0.0,0.0,0.0,0.0,0.0,0.0,0.0,0.0,0.0,0.0,0.0,0.0,0.0,0.0,0.0,0.0,0.0,0.0,0.0,0.0,0.0,0.0,0.0,0.0,0.0,0.0,0.0,0.0,0.0,0.0,0.0,0.0,0.0,0.0,0.0,0.0,0.0,0.514,0.0,0.0,0.0,0.0,0.0,0.0,0.0,0.0,0.0,0.0,0.0,0.0,0.0,0.0,0.0,0.0,0.0,0.0,0.0,0.0,0.0,0.0,0.0,0.0,0.0,0.0,0.0,0.0,0.0,0.0,0.0,0.0,0.0,0.0,0.0,0.0,0.0,0.0,0.0,0.0,0.0,0.0,0.0,0.0,0.0,0.0,0.0,0.0,0.0,0.0,0.0,0.0,0.0,0.0,0.0,0.0,0.0,0.0,0.0,0.0,0.0,0.0,0.0,0.0,0.0,0.0,0.0,0.0,0.0,0.0,0.0,0.0,0.0,0.0,0.0,0.0,0.0,0.0,0.0,0.0,0.0,0.0,0.0,0.0,0.0,0.0,0.0,0.0,0.0,0.0,0.0,0.0,0.0,0.0,0.0,0.0,0.0,0.0,0.0,0.0,0.0,0.0,0.0,0.0,0.0,0.0,0.0,0.0,0.0,0.0,0.5244,0.5244,0.5237,0.5298,0.5414,0.0,0.0,0.0,0.0,0.0,0.0,0.0,0.0,0.0,0.0,0.0,0.0,0.0,0.0,0.0,0.0,0.0,0.0,0.0,0.0,0.0,0.0,0.0,0.0,0.0,0.0,0.0,0.0,0.0,0.0,0.0,0.0,0.0,0.0,0.0,0.0,0.0,0.0,0.0,0.0,0.0,0.0,0.0,0.0,0.0,0.0,0.0,0.0,0.0,0.0,0.0,0.0,0.0,0.0,0.0,0.0,0.0,0.0,0.0,0.0,0.0,0.0,0.0,0.0,0.0,0.0,0.0,0.0,0.0,0.0,0.0,0.0,0.0,0.0,0.0,0.0,0.0,0.0,0.0,0.0,0.0,0.0,0.0,0.0,0.0,0.0,0.0,0.0,0.0,0.0,0.0,0.0,0.0,0.0,0.0,0.0,0.0,0.0,0.0,0.0,0.0,0.0,0.0,0.0,0.0,0.0,0.0,0.0,0.0,0.0,0.0,0.0,0.5596,0.5626,0.5693,0.0,0.0,0.0,0.0,0.0,0.0,0.0,0.0,0.0,0.0,0.0,0.0,0.0,0.0,0.0,0.0,0.0,0.0,0.0,0.0,0.0,0.0,0.0,0.0,0.0,0.0,0.0,0.0,0.0,0.0,0.0,0.0,0.0,0.0,0.0,0.0,0.0,0.0,0.0,0.0,0.0,0.0,0.0,0.0,0.0,0.0,0.0,0.0,0.0,0.0,0.0,0.0,0.0,0.0,0.0,0.0,0.0,0.0,0.0,0.0,0.0,0.0,0.0,0.0,0.0,0.0,0.0,0.0,0.0,0.0,0.0,0.0,0.0,0.0,0.0,0.0,0.0,0.0,0.0,0.0,0.0,0.0,0.0,0.0,0.0,0.0,0.0,0.0,0.0,0.0,0.0,0.0,0.0,0.0,0.0,0.0,0.0,0.0,0.0,0.0,0.0,0.0,0.0,0.0,0.0,0.0,0.0,0.0,0.0,0.0,0.5353,0.5584,0.5602,0.0,0.5948,0.0,0.0,0.0,0.0,0.0,0.0,0.0,0.0,0.0,0.0,0.0,0.0,0.0,0.0,0.0,0.0,0.0,0.0,0.0,0.0,0.0,0.0,0.0,0.0,0.0,0.0,0.0,0.0,0.0,0.0,0.0,0.0,0.0,0.0,0.0,0.0,0.0,0.0,0.0,0.0,0.0,0.0,0.0,0.0,0.0,0.0,0.0,0.0,0.0,0.0,0.0,0.0,0.0,0.0,0.0,0.0,0.0,0.0,0.0,0.0,0.0,0.0,0.0,0.0,0.0,0.0,0.0,0.0,0.0,0.0,0.0,0.0,0.0,0.0,0.0,0.0,0.0,0.0,0.0,0.0,0.0,0.0,0.0,0.0,0.0,0.0,0.0,0.0,0.0,0.0,0.0,0.0,0.0,0.0,0.0,0.0,0.0,0.0,0.0,0.0,0.0,0.0,0.0,0.0,0.0,0.0,0.0,0.0,0.0,0.0,0.5803,0.6076,0.6082,0.6137,0.0,0.0,0.0,0.0,0.0,0.0,0.0,0.0,0.0,0.0,0.0,0.0,0.0,0.0,0.0,0.0,0.0,0.0,0.0,0.0,0.0,0.0,0.0,0.0,0.0,0.0,0.0,0.0,0.0,0.0,0.0,0.0,0.0,0.0,0.0,0.0,0.0,0.0,0.0,0.0,0.0,0.0,0.0,0.0,0.0,0.0,0.0,0.0,0.0,0.0,0.0,0.0,0.0,0.0,0.0,0.0,0.0,0.0,0.0,0.0,0.0,0.0,0.0,0.0,0.0,0.0,0.0,0.0,0.0,0.0,0.0,0.0,0.0,0.0,0.0,0.0,0.0,0.0,0.0,0.0,0.0,0.0,0.0,0.0,0.0,0.0,0.0,0.0,0.0,0.0,0.0,0.0,0.0,0.0,0.0,0.0,0.0,0.0,0.0,0.0,0.0,0.0,0.0,0.0,0.0,0.0,0.0,0.0,0.0,0.0,0.5748,0.6052,0.6392,0.641,0.641,0.641,0.0,0.0,0.0,0.0,0.0,0.0,0.0,0.0,0.0,0.0,0.0,0.0,0.0,0.0,0.0,0.0,0.0,0.0,0.0,0.0,0.0,0.0,0.0,0.0,0.0,0.0,0.0,0.0,0.0,0.0,0.0,0.0,0.0,0.0,0.0,0.0,0.0,0.0,0.0,0.0,0.0,0.0,0.0,0.0,0.0,0.0,0.0,0.0,0.0,0.0,0.0,0.0,0.0,0.0,0.0,0.0,0.0,0.0,0.0,0.0,0.0,0.0,0.0,0.0,0.0,0.0,0.0,0.0,0.0,0.0,0.0,0.0,0.0,0.0,0.0,0.0,0.0,0.0,0.0,0.0,0.0,0.0,0.0,0.0,0.0,0.0,0.0,0.0,0.0,0.0,0.0,0.0,0.0,0.0,0.0,0.0,0.0,0.0,0.0,0.0,0.0,0.0,0.0,0.0,0.0,0.0,0.0,0.0,0.5225,0.5493,0.5875,0.6386,0.641,0.641,0.0,0.0,0.0,0.0,0.0,0.0,0.0,0.0,0.0,0.0,0.0,0.0,0.0,0.0,0.0,0.0,0.0,0.0,0.0,0.0,0.0,0.0,0.0,0.0,0.0,0.0,0.0,0.0,0.0,0.0,0.0,0.0,0.0,0.0,0.0,0.0,0.0,0.0,0.0,0.0,0.0,0.0,0.0,0.0,0.0,0.0,0.0,0.0,0.0,0.0,0.0,0.0,0.0,0.0,0.0,0.0,0.0,0.0,0.0,0.0,0.0,0.0,0.0,0.0,0.0,0.0,0.0,0.0,0.0,0.0,0.0,0.0,0.0,0.0,0.0,0.0,0.0,0.0,0.0,0.0,0.0,0.0,0.0,0.0,0.0,0.0,0.0,0.0,0.0,0.0,0.0,0.0,0.0,0.0,0.0,0.0,0.0,0.0,0.0,0.0,0.0,0.0,0.0,0.0,0.0,0.0,0.0,0.0,0.0,0.545,0.5888,0.6125,0.6149,0.6149,0.6143,0.0,0.0,0.0,0.0,0.0,0.0,0.0,0.0,0.0,0.0,0.0,0.0,0.0,0.0,0.0,0.0,0.0,0.0,0.0,0.0,0.0,0.0,0.0,0.0,0.0,0.0,0.0,0.0,0.0,0.0,0.0,0.0,0.0,0.0,0.0,0.0,0.0,0.0,0.0,0.0,0.0,0.0,0.0,0.0,0.0,0.0,0.0,0.0,0.0,0.0,0.0,0.0,0.0,0.0,0.0,0.0,0.0,0.0,0.0,0.0,0.0,0.0,0.0,0.0,0.0,0.0,0.0,0.0,0.0,0.0,0.0,0.0,0.0,0.0,0.0,0.0,0.0,0.0,0.0,0.0,0.0,0.0,0.0,0.0,0.0,0.0,0.0,0.0,0.0,0.0,0.0,0.0,0.0,0.0,0.0,0.0,0.0,0.0,0.0,0.0,0.0,0.0,0.0,0.0,0.0,0.0,0.0,0.0,0.0,0.5584,0.0,0.6228,0.6137,0.6131,0.6088,0.0,0.0,0.0,0.0,0.0,0.0,0.0,0.0,0.0,0.0,0.0,0.0,0.0,0.0,0.0,0.0,0.0,0.0,0.0,0.0,0.0,0.0,0.0,0.0,0.0,0.0,0.0,0.0,0.0,0.0,0.0,0.0,0.0,0.0,0.0,0.0,0.0,0.0,0.0,0.0,0.0,0.0,0.0,0.0,0.0,0.0,0.0,0.0,0.0,0.0,0.0,0.0,0.0,0.0,0.0,0.0,0.0,0.0,0.0,0.0,0.0,0.0,0.0,0.0,0.0,0.0,0.0,0.0,0.0,0.0,0.0,0.0,0.0,0.0,0.0,0.0,0.0,0.0,0.0,0.0,0.0,0.0,0.0,0.0,0.0,0.0,0.0,0.0,0.0,0.0,0.0,0.0,0.0,0.0,0.0,0.0,0.0,0.0,0.0,0.0,0.0,0.0,0.0,0.0,0.0,0.0,0.0,0.0,0.5092,0.5602,0.5882,0.6161,0.6404,0.6398,0.627,0.0,0.0,0.0,0.0,0.0,0.0,0.0,0.0,0.0,0.0,0.0,0.0,0.0,0.0,0.0,0.0,0.0,0.0,0.0,0.0,0.0,0.0,0.0,0.0,0.0,0.0,0.0,0.0,0.0,0.0,0.0,0.0,0.0,0.0,0.0,0.0,0.0,0.0,0.0,0.0,0.0,0.0,0.0,0.0,0.0,0.0,0.0,0.0,0.0,0.0,0.0,0.0,0.0,0.0,0.0,0.0,0.0,0.0,0.0,0.0,0.0,0.0,0.0,0.0,0.0,0.0,0.0,0.0,0.0,0.0,0.0,0.0,0.0,0.0,0.0,0.0,0.0,0.0,0.0,0.0,0.0,0.0,0.0,0.0,0.0,0.0,0.0,0.0,0.0,0.0,0.0,0.0,0.0,0.0,0.0,0.0,0.0,0.0,0.0,0.0,0.0,0.0,0.0,0.0,0.0,0.0,0.0,0.0,0.0,0.6149,0.6416,0.6507,0.6422,0.641,0.6198,0.0,0.0,0.0,0.0,0.0,0.0,0.0,0.0,0.0,0.0,0.0,0.0,0.0,0.0,0.0,0.0,0.0,0.0,0.0,0.0,0.0,0.0,0.0,0.0,0.0,0.0,0.0,0.0,0.0,0.0,0.0,0.0,0.0,0.0,0.0,0.0,0.0,0.0,0.0,0.0,0.0,0.0,0.0,0.0,0.0,0.0,0.0,0.0,0.0,0.0,0.0,0.0,0.0,0.0,0.0,0.0,0.0,0.0,0.0,0.0,0.0,0.0,0.0,0.0,0.0,0.0,0.0,0.0,0.0,0.0,0.0,0.0,0.0,0.0,0.0,0.0,0.0,0.0,0.0,0.0,0.0,0.0,0.0,0.0,0.0,0.0,0.0,0.0,0.0,0.0,0.0,0.0,0.0,0.0,0.0,0.0,0.0,0.0,0.0,0.0,0.0,0.0,0.0,0.0,0.0,0.0,0.0,0.0,0.0,0.708,0.7068,0.7072,0.6965,0.6914,0.6693,0.6197,0.0,0.0,0.0,0.0,0.0,0.0,0.0,0.0,0.0,0.0,0.0,0.0,0.0,0.0,0.0,0.0,0.0,0.0,0.0,0.0,0.0,0.0,0.0,0.0,0.0,0.0,0.0,0.0,0.0,0.0,0.0,0.0,0.0,0.0,0.0,0.0,0.0,0.0,0.0,0.0,0.0,0.0,0.0,0.0,0.0,0.0,0.0,0.0,0.0,0.0,0.0,0.0,0.0,0.0,0.0,0.0,0.0,0.0,0.0,0.0,0.0,0.0,0.0,0.0,0.0,0.0,0.0,0.0,0.0,0.0,0.0,0.0,0.0,0.0,0.0,0.0,0.0,0.0,0.0,0.0,0.0,0.0,0.0,0.0,0.0,0.0,0.0,0.0,0.0,0.0,0.0,0.0,0.0,0.0,0.0,0.0,0.0,0.0,0.0,0.0,0.0,0.0,0.0,0.0,0.0,0.0,0.0,0.0,0.8315,0.799,0.7868,0.8003,0.7899,0.7536,0.0,0.0,0.0,0.0,0.0,0.0,0.0,0.0,0.0,0.0,0.0,0.0,0.0,0.0,0.0,0.0,0.0,0.0,0.0,0.0,0.0,0.0,0.0,0.0,0.0,0.0,0.0,0.0,0.0,0.0,0.0,0.0,0.0,0.0,0.0,0.0,0.0,0.0,0.0,0.0,0.0,0.0,0.0,0.0,0.0,0.0,0.0,0.0,0.0,0.0,0.0,0.0,0.0,0.0,0.0,0.0,0.0,0.0,0.0,0.0,0.0,0.0,0.0,0.0,0.0,0.0,0.0,0.0,0.0,0.0,0.0,0.0,0.0,0.0,0.0,0.0,0.0,0.0,0.0,0.0,0.0,0.0,0.0,0.0,0.0,0.0,0.0,0.0,0.0,0.0,0.0,0.0,0.0,0.0,0.0,0.0,0.0,0.0,0.0,0.0,0.0,0.0,0.0,0.0,0.0,0.0,0.0,0.0,0.0,0.8884,0.9556,0.9612,0.9014,0.8608,0.8105,0.0,0.0,0.0,0.0,0.0,0.0,0.0,0.0,0.0,0.0,0.0,0.0,0.0,0.0,0.0,0.0,0.0,0.0,0.0,0.0,0.0,0.0,0.0,0.0,0.0,0.0,0.0,0.0,0.0,0.0,0.0,0.0,0.0,0.0,0.0,0.0,0.0,0.0,0.0,0.0,0.0,0.0,0.0,0.0,0.0,0.0,0.0,0.0,0.0,0.0,0.0,0.0,0.0,0.0,0.0,0.0,0.0,0.0,0.0,0.0,0.0,0.0,0.0,0.0,0.0,0.0,0.0,0.0,0.0,0.0,0.0,0.0,0.0,0.0,0.0,0.0,0.0,0.0,0.0,0.0,0.0,0.0,0.0,0.0,0.0,0.0,0.0,0.0,0.0,0.0,0.0,0.0,0.0,0.0,0.0,0.0,0.0,0.0,0.0,0.0,0.0,0.0,0.0,0.0,0.0,0.0,0.0,0.0,0.885,1.004,1.0829,1.1144,1.1032,1.0028,0.9157,0.0,0.0,0.0,0.0,0.0,0.0,0.0,0.0,0.0,0.0,0.0,0.0,0.0,0.0,0.0,0.0,0.0,0.0,0.0,0.0,0.0,0.0,0.0,0.0,0.0,0.0,0.0,0.0,0.0,0.0,0.0,0.0,0.0,0.0,0.0,0.0,0.0,0.0,0.0,0.0,0.0,0.0,0.0,0.0,0.0,0.0,0.0,0.0,0.0,0.0,0.0,0.0,0.0,0.0,0.0,0.0,0.0,0.0,0.0,0.0,0.0,0.0,0.0,0.0,0.0,0.0,0.0,0.0,0.0,0.0,0.0,0.0,0.0,0.0,0.0,0.0,0.0,0.0,0.0,0.0,0.0,0.0,0.0,0.0,0.0,0.0,0.0,0.0,0.0,0.0,0.0,0.0,0.0,0.0,0.0,0.0,0.0,0.0,0.0,0.0,0.0,0.0,0.0,0.0,0.0,0.0,0.0,0.0,0.9895,1.1384,1.1872,1.2508,1.3281,1.1709,1.0412,0.0,0.0,0.0,0.0,0.0,0.0,0.0,0.0,0.0,0.0,0.0,0.0,0.0,0.0,0.0,0.0,0.0,0.0,0.0,0.0,0.0,0.0,0.0,0.0,0.0,0.0,0.0,0.0,0.0,0.0,0.0,0.0,0.0,0.0,0.0,0.0,0.0,0.0,0.0,0.0,0.0,0.0,0.0,0.0,0.0,0.0,0.0,0.0,0.0,0.0,0.0,0.0,0.0,0.0,0.0,0.0,0.0,0.0,0.0,0.0,0.0,0.0,0.0,0.0,0.0,0.0,0.0,0.0,0.0,0.0,0.0,0.0,0.0,0.0,0.0,0.0,0.0,0.0,0.0,0.0,0.0,0.0,0.0,0.0,0.0,0.0,0.0,0.0,0.0,0.0,0.0,0.0,0.0,0.0,0.0,0.0,0.0,0.0,0.0,0.0,0.0,0.0,0.0,0.0,0.0,0.0,0.0,0.0,1.0507,1.1458,1.2696,1.3438,1.3633,1.2185,1.1066,0.0,0.0,0.0,0.0,0.0,0.0,0.0,0.0,0.0,0.0,0.0,0.0,0.0,0.0,0.0,0.0,0.0,0.0,0.0,0.0,0.0,0.0,0.0,0.0,0.0,0.0,0.0,0.0,0.0,0.0,0.0,0.0,0.0,0.0,0.0,0.0,0.0,0.0,0.0,0.0,0.0,0.0,0.0,0.0,0.0,0.0,0.0,0.0,0.641,0.0,0.0,0.0,0.0,0.0,0.0,0.0,0.0,0.0,0.0,0.0,0.0,0.0,0.0,0.0,0.0,0.0,0.0,0.0,0.0,0.0,0.0,0.0,0.0,0.0,0.0,0.0,0.0,0.0,0.0,0.0,0.0,0.0,0.0,0.0,0.0,0.0,0.0,0.0,0.0,0.0,0.0,0.0,0.0,0.0,0.0,0.0,0.0,0.0,0.0,0.0,0.0,0.0,0.0,0.0,0.0,0.0,0.0,0.0,1.1119,1.2434,1.3483,1.4097,1.4262,1.3041,1.1886,0.0,0.0,0.0,0.0,0.0,0.0,0.0,0.0,0.0,0.0,0.0,0.0,0.0,0.0,0.0,0.0,0.0,0.0,0.0,0.0,0.0,0.0,0.0,0.0,0.0,0.0,0.0,0.0,0.0,0.0,0.0,0.0,0.0,0.0,0.0,0.0,0.0,0.0,0.0,0.0,0.0,0.0,0.0,0.0,0.0,0.0,0.0,0.0,0.0,0.0,0.0,0.0,0.0,0.0,0.0,0.0,0.0,0.0,0.0,0.0,0.0,0.0,0.0,0.0,0.0,0.0,0.0,0.0,0.0,0.0,0.0,0.0,0.0,0.0,0.0,0.0,0.0,0.0,0.0,0.0,0.0,0.0,0.0,0.0,0.0,0.0,0.0,0.0,0.0,0.0,0.0,0.0,0.0,0.0,0.0,0.0,0.0,0.0,0.0,0.0,0.0,0.0,0.0,0.0,0.0,0.0,0.0,1.0253,1.1683,1.3499,1.4045,1.446,1.4863,1.3754,1.2465,1.1035,0.0,0.0,0.0,0.0,0.0,0.0,0.0,0.0,0.0,0.0,0.0,0.0,0.0,0.0,0.0,0.0,0.0,0.0,0.0,0.0,0.0,0.0,0.0,0.0,0.0,0.0,0.0,0.0,0.0,0.0,0.0,0.0,0.0,0.0,0.0,0.0,0.0,0.0,0.6143,0.6744,0.0,0.0,0.0,0.0,0.0,0.0,0.0,0.0,0.6501,0.0,0.0,0.0,0.0,0.0,0.0,0.0,0.0,0.0,0.0,0.0,0.0,0.0,0.0,0.0,0.0,0.0,0.0,0.0,0.0,0.0,0.0,0.0,0.0,0.0,0.0,0.0,0.0,0.0,0.0,0.0,0.0,0.0,0.0,0.0,0.0,0.0,0.0,0.0,0.0,0.0,0.0,0.0,0.0,0.0,0.0,0.0,0.0,0.0,0.0,0.0,0.0,0.0,0.0,0.0,0.0,0.9017,1.0507,1.1952,1.3362,1.4137,1.4455,1.4563,1.344,1.2251,1.1022,0.0,0.0,0.0,0.0,0.0,0.0,0.0,0.0,0.0,0.0,0.0,0.0,0.0,0.0,0.0,0.0,0.0,0.0,0.0,0.0,0.0,0.0,0.0,0.0,0.0,0.0,0.0,0.0,0.0,0.0,0.0,0.0,0.0,0.0,0.0,0.0,0.0,0.0,0.0,0.6981,0.7297,0.0,0.0,0.0,0.0,0.0,0.0,0.0,0.0,0.6744,0.0,0.0,0.0,0.0,0.0,0.0,0.0,0.0,0.0,0.0,0.0,0.0,0.0,0.0,0.0,0.0,0.0,0.0,0.0,0.0,0.0,0.0,0.0,0.0,0.0,0.0,0.0,0.0,0.0,0.0,0.0,0.0,0.0,0.0,0.0,0.0,0.0,0.0,0.0,0.0,0.0,0.0,0.0,0.0,0.0,0.0,0.0,0.0,0.0,0.0,0.0,0.0,0.0,0.0,0.0,0.959,1.0923,1.2231,1.3444,1.413,1.4442,1.4275,1.3225,1.2121,0.0,0.0,0.0,0.0,0.0,0.0,0.0,0.0,0.0,0.0,0.0,0.0,0.0,0.0,0.0,0.0,0.0,0.0,0.0,0.0,0.0,0.0,0.0,0.0,0.0,0.0,0.0,0.0,0.0,0.0,0.0,0.0,0.0,0.0,0.0,0.0,0.0,0.0,0.0,0.0,0.7328,0.7504,0.7725,0.0,0.0,0.0,0.0,0.0,0.0,0.7097,0.7012,0.0,0.0,0.0,0.0,0.0,0.0,0.0,0.0,0.0,0.0,0.0,0.0,0.0,0.0,0.0,0.0,0.0,0.0,0.0,0.0,0.0,0.0,0.0,0.0,0.0,0.0,0.0,0.0,0.0,0.0,0.0,0.0,0.0,0.0,0.0,0.0,0.0,0.0,0.0,0.0,0.0,0.0,0.0,0.0,0.0,0.0,0.0,0.0,0.0,0.0,0.0,0.0,0.0,0.0,0.0,1.0107,1.1276,1.2445,1.3601,1.4102,1.4202,1.3901,1.2919,1.1874,0.0,0.0,0.0,0.0,0.0,0.0,0.0,0.0,0.0,0.0,0.0,0.0,0.0,0.0,0.0,0.0,0.0,0.0,0.0,0.0,0.0,0.0,0.0,0.0,0.0,0.0,0.0,0.0,0.0,0.0,0.0,0.0,0.0,0.0,0.0,0.0,0.0,0.0,0.0,0.0,0.0,0.7725,0.7943,0.7846,0.0,0.0,0.0,0.0,0.7516,0.7437,0.0,0.0,0.0,0.0,0.0,0.0,0.0,0.0,0.0,0.0,0.0,0.0,0.0,0.0,0.0,0.0,0.0,0.0,0.0,0.0,0.0,0.0,0.0,0.0,0.0,0.0,0.0,0.0,0.0,0.0,0.0,0.0,0.0,0.0,0.0,0.0,0.0,0.0,0.0,0.0,0.0,0.0,0.0,0.0,0.0,0.0,0.0,0.0,0.0,0.0,0.0,0.0,0.0,0.0,0.0,0.0,1.0107,1.1269,1.2452,1.3574,1.3632,1.3607,1.3307,1.2462,1.1397,0.0,0.0,0.0,0.0,0.0,0.0,0.0,0.0,0.0,0.0,0.0,0.0,0.0,0.0,0.0,0.0,0.0,0.0,0.0,0.0,0.0,0.0,0.0,0.0,0.0,0.0,0.0,0.0,0.0,0.0,0.0,0.0,0.0,0.0,0.0,0.0,0.0,0.0,0.0,0.0,0.0,0.7943,0.8207,0.8213,0.8279,0.0,0.0,0.8231,0.8522,0.8111,0.0,0.0,0.0,0.0,0.0,0.0,0.0,0.0,0.0,0.0,0.0,0.0,0.0,0.0,0.0,0.0,0.0,0.0,0.0,0.0,0.0,0.0,0.0,0.0,0.0,0.0,0.0,0.0,0.0,0.0,0.0,0.0,0.0,0.0,0.0,0.0,0.0,0.0,0.0,0.0,0.0,0.0,0.0,0.0,0.0,0.0,0.0,0.0,0.0,0.0,0.0,0.0,0.0,0.0,0.0,0.9198,1.0361,1.1523,1.2532,1.3367,1.3561,1.342,1.3128,1.2234,1.127,0.0,0.0,0.0,0.0,0.0,0.0,0.0,0.0,0.0,0.0,0.0,0.0,0.0,0.0,0.0,0.0,0.0,0.0,0.0,0.0,0.0,0.0,0.0,0.0,0.0,0.0,0.0,0.0,0.0,0.0,0.0,0.0,0.0,0.0,0.0,0.0,0.0,0.0,0.0,0.0,0.0,0.0,0.8273,0.8417,0.0,0.0,0.0,0.8771,0.8878,0.0,0.0,0.0,0.0,0.0,0.0,0.0,0.0,0.0,0.0,0.0,0.0,0.0,0.0,0.0,0.0,0.0,0.0,0.0,0.0,0.0,0.0,0.0,0.0,0.0,0.0,0.0,0.0,0.0,0.0,0.0,0.0,0.0,0.0,0.0,0.0,0.0,0.0,0.0,0.0,0.0,0.0,0.0,0.0,0.0,0.0,0.0,0.0,0.0,0.0,0.0,0.0,0.0,0.0,0.0,0.0,0.0,1.0618,1.1706,1.2492,1.3073,1.33,1.3218,1.277,1.1943,0.0,0.0,0.0,0.0,0.0,0.0,0.0,0.0,0.0,0.0,0.0,0.0,0.0,0.0,0.0,0.0,0.0,0.0,0.0,0.0,0.0,0.0,0.0,0.0,0.0,0.0,0.0,0.641,0.0,0.0,0.0,0.0,0.0,0.0,0.0,0.0,0.0,0.0,0.0,0.0,0.0,0.0,0.8513,0.8579,0.8867,0.9076,0.0,0.0,0.9506,0.9503,0.9436,0.9284,0.0,0.0,0.0,0.0,0.0,0.0,0.0,0.0,0.0,0.0,0.0,0.0,0.0,0.0,0.0,0.0,0.0,0.0,0.0,0.0,0.0,0.0,0.0,0.0,0.0,0.0,0.0,0.0,0.0,0.0,0.0,0.0,0.0,0.0,0.0,0.0,0.0,0.0,0.0,0.0,0.0,0.0,0.0,0.0,0.0,0.0,0.0,0.0,0.0,0.0,0.0,0.0,0.0,0.0,0.0,1.0787,1.1512,1.2184,1.2829,1.2876,1.2593,1.2145,1.1657,1.093,0.0,0.0,0.0,0.0,0.0,0.0,0.0,0.0,0.0,0.0,0.0,0.0,0.0,0.0,0.0,0.0,0.0,0.0,0.0,0.0,0.0,0.0,0.0,0.0,0.0,0.0,0.0,0.0,0.0,0.0,0.0,0.0,0.0,0.0,0.0,0.0,0.0,0.0,0.0,0.0,0.0,0.9168,0.9364,0.9904,1.0218,0.0,0.0,1.0603,1.0491,1.0306,1.0043,0.9703,0.0,0.0,0.0,0.0,0.0,0.0,0.0,0.0,0.0,0.0,0.0,0.0,0.0,0.0,0.0,0.0,0.0,0.0,0.0,0.0,0.0,0.0,0.0,0.0,0.0,0.0,0.0,0.0,0.0,0.0,0.0,0.0,0.0,0.0,0.0,0.0,0.0,0.0,0.0,0.0,0.0,0.0,0.0,0.0,0.0,0.0,0.0,0.0,0.0,0.0,0.0,0.0,0.0,0.9596,1.0787,1.1621,1.2297,1.2864,1.2898,1.2831,1.2579,1.2,1.1405,0.0,0.0,0.0,0.0,0.0,0.0,0.0,0.0,0.0,0.0,0.0,0.0,0.0,0.0,0.0,0.0,0.0,0.0,0.0,0.0,0.0,0.0,0.0,0.0,0.0,0.0,0.0,0.0,0.641,0.641,0.641,0.0,0.0,0.0,0.0,0.0,0.0,0.0,0.0,0.0,0.0,0.9228,0.9442,1.0062,0.0,0.0,1.0833,1.0985,1.0861,1.0722,1.0413,0.9754,0.9214,0.0,0.0,0.0,0.0,0.0,0.0,0.0,0.0,0.0,0.0,0.0,0.0,0.0,0.0,0.0,0.0,0.0,0.0,0.0,0.0,0.0,0.0,0.0,0.0,0.0,0.0,0.0,0.0,0.0,0.0,0.0,0.0,0.0,0.0,0.0,0.0,0.0,0.0,0.0,0.0,0.0,0.0,0.0,0.0,0.0,0.0,0.0,0.0,0.0,0.0,0.0,0.0,0.9722,1.0975,1.1653,1.2287,1.2969,1.3064,1.2994,1.2793,1.2273,1.1763,0.0,0.0,0.0,0.0,0.0,0.0,0.0,0.0,0.0,0.0,0.0,0.0,0.0,0.0,0.0,0.0,0.0,0.0,0.0,0.0,0.0,0.0,0.0,0.0,0.0,0.0,0.0,0.0,0.6459,0.641,0.641,0.0,0.0,0.0,0.0,0.0,0.0,0.0,0.0,0.0,0.0,0.9355,0.9691,1.0178,1.0673,1.0742,1.1115,1.1275,1.1125,1.1086,1.0888,1.0194,0.0,0.0,0.0,0.0,0.0,0.0,0.0,0.0,0.0,0.0,0.0,0.0,0.0,0.0,0.0,0.0,0.0,0.0,0.0,0.0,0.0,0.0,0.0,0.0,0.0,0.0,0.0,0.0,0.0,0.0,0.6999,0.0,0.0,0.0,0.0,0.0,0.0,0.0,0.0,0.0,0.0,0.0,0.0,0.0,0.0,0.0,0.0,0.0,0.0,0.0,0.0,0.0,0.0,0.9782,1.1454,1.1524,1.1997,1.2879,1.3127,1.2985,1.2555,1.2337,1.1925,1.1317,0.0,0.0,0.0,0.0,0.0,0.0,0.0,0.0,0.0,0.0,0.0,0.0,0.0,0.0,0.0,0.0,0.0,0.0,0.0,0.0,0.0,0.0,0.0,0.0,0.0,0.0,0.6787,0.6568,0.641,0.0,0.0,0.0,0.0,0.0,0.0,0.0,0.0,0.0,0.0,0.913,0.9633,1.0091,1.043,1.0742,1.108,1.1333,1.1488,1.1594,1.1614,1.1491,0.0,0.0,0.0,0.0,0.0,0.0,0.0,0.0,0.0,0.0,0.0,0.0,0.0,0.0,0.0,0.0,0.0,0.0,0.0,0.0,0.0,0.0,0.0,0.0,0.0,0.0,0.0,0.8187,0.7936,0.0,0.0,0.0,0.0,0.0,0.0,0.0,0.0,0.0,0.0,0.0,0.8474,0.8559,0.0,0.0,0.0,0.0,0.0,0.0,0.0,0.0,0.0,0.0,0.0,0.0,1.0155,1.1432,1.1949,1.2517,1.3244,1.3499,1.3469,1.323,1.3147,1.2662,1.1721,0.0,0.0,0.0,0.0,0.0,0.0,0.0,0.0,0.0,0.0,0.0,0.0,0.0,0.0,0.0,0.0,0.0,0.0,0.0,0.0,0.0,0.0,0.0,0.0,0.0,0.6911,0.0,0.0,0.0,0.0,0.0,0.0,0.0,0.0,0.0,0.0,0.0,0.8478,0.91,0.95,0.9833,1.0296,1.077,1.1217,0.0,0.0,0.0,0.0,0.0,0.0,0.0,0.0,0.0,0.0,0.0,0.0,0.0,0.0,1.008,0.9161,0.9232,0.9398,0.9092,0.0,0.0,0.0,0.0,0.0,0.0,0.0,0.0,0.0,0.0,0.0,0.0,0.0,0.0,0.9288,0.0,0.9197,0.0,0.0,0.0,0.0,0.0,0.0,0.0,0.0,0.917,0.9336,0.9564,0.9726,0.9758,0.0,0.9662,0.9385,0.0,0.0,0.0,0.0,0.0,0.0,0.0,0.0,1.0429,1.1757,1.2275,1.2929,1.3665,1.3928,1.3901,1.364,1.3474,1.2946,1.1931,1.178,1.1306,0.0,0.0,0.0,0.0,0.0,0.0,0.0,0.0,0.0,0.0,0.0,0.0,0.0,0.0,0.0,0.0,0.0,0.0,0.0,0.0,0.0,0.0,0.0,0.7122,0.0,0.0,0.0,0.0,0.0,0.0,0.0,0.0,0.0,0.8066,0.8384,0.8789,0.9423,0.9806,1.0123,1.0425,0.0,0.0,0.0,0.0,0.0,0.0,0.0,1.253,1.224,1.2315,1.242,1.2664,1.2645,1.2664,1.2714,0.0,0.0,1.059,1.0569,1.0682,1.0307,1.0437,1.0422,0.9995,0.9792,0.9742,0.0,0.0,0.0,0.0,0.0,0.0,0.0,0.0,1.0706,1.0774,0.0,1.039,0.0,0.0,0.0,0.0,0.0,0.9341,0.0,0.0,1.0478,1.0788,1.0883,1.1178,1.1296,1.1263,1.1129,1.1019,1.0808,0.9622,0.0,0.0,0.0,0.0,0.0,0.0,1.057,1.2282,1.2567,1.3148,1.4091,1.4418,1.4315,1.3691,1.3414,1.2882,1.2013,1.2072,1.1776,1.0975,1.0579,0.0,0.0,0.0,0.0,0.0,0.0,0.0,0.0,0.0,0.0,0.0,0.0,0.0,0.0,0.0,0.0,0.0,0.0,0.0,0.0,0.7859,0.0,0.0,0.0,0.0,0.0,0.0,0.0,0.0,0.0,0.0,0.8545,0.8946,0.9394,0.9701,0.0,0.0,0.0,0.0,1.1738,1.2137,1.2712,1.3184,1.34,1.3608,1.3683,1.3506,0.0,0.0,1.4482,1.4536,1.4539,1.4601,1.4705,1.4236,1.2266,1.2047,1.2072,1.1869,1.2002,1.2041,1.1854,1.1792,1.1792,1.2986,0.0,0.0,0.0,0.0,1.1869,1.2018,1.1977,1.2247,1.2195,1.1847,1.1819,0.0,0.0,0.0,0.0,0.0,0.0,1.1117,1.1623,1.2179,1.2579,1.2804,1.3151,1.3171,1.292,1.29,1.2597,1.2071,1.1851,1.0886,0.944,0.0,0.0,0.0,0.0,1.1456,1.2624,1.3388,1.3955,1.4418,1.4999,1.5074,1.4667,1.4197,1.3798,1.3332,1.281,1.231,1.1794,1.1398,0.0,0.0,0.0,0.0,0.0,0.0,0.0,0.0,0.0,0.0,0.0,0.0,0.0,0.0,0.0,0.0,0.0,0.0,0.0,0.8085,0.7865,0.7709,0.0,0.0,0.0,0.0,0.0,0.0,0.0,0.0,0.0,1.0114,1.0181,1.0352,0.0,0.0,1.1724,1.1983,1.2343,1.2661,1.2986,1.3255,0.0,1.4258,1.4367,1.4547,1.507,1.5365,1.5634,1.5731,1.5815,1.5774,1.5806,1.5822,1.5675,1.5146,1.4487,1.4122,1.3968,1.4037,1.4114,1.383,1.3761,1.3677,1.6129,1.4452,1.3988,1.3637,1.3469,1.3851,1.392,1.3848,1.4111,1.4149,1.38,1.3621,1.3282,1.2818,1.2022,0.0,0.0,0.0,1.2935,1.3403,1.4065,1.4436,1.4561,1.4958,1.5,1.4724,1.4597,1.4252,1.3702,1.3777,1.2966,1.1314,0.0,0.0,1.1104,1.1559,1.2374,1.3515,1.438,1.4923,1.5194,1.5367,1.5411,1.5189,1.4773,1.435,1.3901,1.3415,1.2936,1.2383,1.1929,1.1481,0.0,0.0,0.0,0.0,0.0,0.0,0.0,0.0,0.0,0.0,0.0,0.8196,0.8361,0.0,0.0,0.0,0.8504,0.8531,0.8262,0.8235,0.0,0.0,0.0,0.0,0.0,0.0,0.0,0.9919,1.014,1.0502,1.1194,1.1574,1.1774,1.1717,1.2181,1.2586,1.2856,0.0,1.3807,1.4005,1.4445,1.4907,1.5413,1.5518,1.5735,1.6255,1.6513,1.6721,1.6854,1.6941,1.6949,1.6949,1.6957,1.6949,1.6957,1.6513,1.603,1.5553,1.5569,1.5569,1.534,1.5267,1.5193,1.909,1.8522,1.6558,1.5685,1.5552,1.5813,1.5928,1.5913,1.6214,1.6337,1.626,1.5556,1.5081,1.4757,1.3855,0.0,1.3901,1.4579,1.4981,1.5083,1.6042,1.641,1.6253,1.6477,1.6618,1.6669,1.6285,1.5973,1.5484,1.5529,1.4996,1.387,1.2744,1.2192,1.2166,1.2572,1.3439,1.4703,1.539,1.5833,1.6164,1.5782,1.5557,1.5458,1.5151,1.4623,1.3928,1.3846,1.347,1.2761,1.2287,1.1951,1.1508,0.0,0.0,0.0,0.0,0.0,0.0,0.0,0.0,0.0,0.0,0.0,0.0,0.0,0.0,0.0,0.8385,0.0,0.8841,0.8841,0.0,0.0,0.0,1.0083,1.0337,1.0714,1.099,1.0905,0.0,0.0,1.2056,1.3017,1.3401,1.2737,1.3017,1.3375,1.3616,1.4463,1.5072,1.5144,1.5914,1.6581,1.6556,1.6784,1.7013,1.7198,1.7299,1.7409,1.7671,1.7827,1.7942,1.7908,1.8023,1.8014,1.8023,1.7865,1.7649,1.6629,1.6598,1.6682,1.6445,1.6403,1.6362,2.1377,2.1188,2.0382,1.9321,1.8226,1.833,1.8145,1.7731,1.7722,1.7342,1.6891,1.6477,1.597,1.5489,1.5504,1.542,1.5296,1.6048,1.6487,1.6521,1.7431,1.7791,1.7799,1.8135,1.8068,1.7819,1.7822,1.7518,1.7107,1.6985,1.6657,1.6133,1.5711,1.4829,1.3504,1.3941,1.4499,1.5155,1.6007,1.6604,1.6909,1.6519,1.6066,1.5643,1.5533,1.5029,1.3928,1.3598,1.3204,1.2742,1.2337,1.1893,1.1508,1.1295,0.0,0.0,0.0,0.0,0.0,0.0,0.0,0.0,0.0,0.9578,0.9444,0.0,0.9154,0.0,0.8786,0.8832,0.9314,0.9416,0.0,0.0,1.0763,1.1217,1.1535,1.1873,1.2137,1.2282,1.2617,1.298,1.3371,1.3858,1.4372,1.4661,1.4846,1.509,1.5503,1.5823,1.6021,1.618,1.6397,1.6775,1.7192,1.7586,1.7766,1.7814,1.7814,1.7857,1.7934,1.7959,1.8031,1.8031,1.8031,1.8031,1.8014,1.8031,1.79,1.7641,1.7607,1.7686,1.7598,1.7369,1.7166,2.3031,2.301,2.2737,2.2108,2.1208,2.0559,2.0027,1.9559,1.9296,1.8926,1.8438,1.7938,1.7413,1.6921,1.7104,1.7096,1.6961,1.7742,1.8078,1.8102,1.8823,1.9167,1.9167,1.9372,1.9356,1.9167,1.9159,1.8968,1.869,1.8642,1.824,1.7562,1.7652,1.7022,1.566,1.5495,1.5704,1.6262,1.689,1.7331,1.7542,1.6827,1.6196,1.5707,1.5349,1.4763,1.3844,1.3395,1.3004,1.2543,1.2317,1.2027,1.1628,1.1513,1.1405,0.0,0.0,0.0,0.0,0.0,0.0,0.0,0.0,0.0,0.0,0.0,0.9744,0.981,0.9722,0.987,1.0225,1.0439,1.0849,1.1557,1.1969,1.2386,1.2945,1.3108,1.326,1.3394,1.3656,1.4015,1.4346,1.4684,1.5118,1.5762,1.5844,1.6038,1.6439,1.6598,1.6598,1.6758,1.6758,1.6818,1.7201,1.7398,1.7543,1.7543,1.7535,1.7543,1.7535,1.7543,1.7543,1.7552,1.7672,1.7723,1.7586,1.7689,1.774,1.7578,1.7543,1.7603,1.7749,1.762,1.7432,2.4386,2.4456,2.4239,2.4061,2.3972,2.2504,2.1647,2.1281,2.0855,2.0559,2.0152,1.948,1.8999,1.87,1.87,1.87,1.8812,1.9297,1.9529,1.9643,2.0138,2.0382,2.0374,2.0374,2.0382,2.0382,2.0374,2.021,1.9981,2.0105,1.9668,1.8778,1.9012,1.8855,1.8037,1.7234,1.7035,1.7658,1.7755,1.7886,1.8109,1.6991,1.6175,1.5689,1.4866,1.4227,1.3591,1.3203,1.2762,1.228,1.2201,1.2068,1.1775,1.1749,1.1766,0.0,1.2096,0.0,0.0,0.0,0.0,0.0,0.0,0.0,0.0,1.0164,1.0238,1.0645,1.0915,1.1202,1.1477,1.1678,1.2147,1.296,1.319,1.3517,1.4188,1.4313,1.4338,1.4338,1.4604,1.4888,1.5095,1.5382,1.5703,1.6161,1.6328,1.649,1.6833,1.6843,1.6843,1.6918,1.6918,1.6935,1.6953,1.6944,1.6961,1.6944,1.6978,1.6918,1.6961,1.6953,1.6944,1.697,1.7201,1.7295,1.6978,1.7201,1.7278,1.703,1.6987,1.7072,1.7312,1.7312,1.7218,2.5432,2.5563,2.4975,2.4683,2.4628,2.3963,2.3135,2.2151,2.2073,2.15,2.0721,2.0286,2.0056,1.9988,1.9988,1.9988,1.9988,2.0335,2.0451,2.0459,2.0701,2.0907,2.0907,2.0907,2.0817,2.0907,2.0817,2.0872,2.0792,2.0668,2.0575,2.035,2.0289,1.9971,1.9496,0.0,0.0,0.0,1.8209,1.8053,1.8091,1.7257,1.6364,1.5578,1.4735,0.0,1.3037,1.2636,1.2253,1.187,1.1844,0.0,0.0,0.0,0.0,0.0,0.0,0.0,0.0,0.0,0.0,0.0,1.2132,1.1916,1.1809,1.1647,1.1605,1.1691,1.1979,1.2214,1.2502,1.2862,1.332,1.3875,1.4063,1.4261,1.4609,1.4874,1.5044,1.4985,1.5385,1.5615,1.5615,1.5692,1.5854,1.6242,1.6345,1.6507,1.685,1.6893,1.691,1.6918,1.6867,1.6901,1.6918,1.6893,1.685,1.6918,1.6918,1.6901,1.6884,1.6884,1.691,1.6893,1.6978,1.7004,1.6918,1.6987,1.6995,1.6927,1.6901,1.6935,1.6995,1.6764,1.6524,2.6162,0.0,2.5408,2.5069,0.0,2.4418,2.3835,2.3225,2.2939,2.2329,2.1576,2.1299,2.1116,2.0933,2.0942,2.0828,2.0645,2.0925,2.1024,2.1024,2.1284,2.1365,2.1365,2.1365,2.1365,2.1365,2.1365,2.1365,2.1356,2.1255,2.1153,2.0944,2.082,2.0613,2.0228,2.0017,1.9512,1.8715,1.8513,1.8245,1.7942,1.7179,1.631,1.5393,1.455,0.0,0.0,0.0,0.0,0.0,0.0,0.0,0.0,1.2215,0.0,1.2602,1.2746,1.2802,1.2811,1.3139,1.3296,1.3237,1.3408,1.3202,1.2346,1.256,1.2714,1.2689,1.3183,1.3522,1.3578,1.388,1.4204,1.4622,1.474,1.4875,1.5215,1.5394,1.5497,1.5514,1.5677,1.5805,1.5805,1.5805,1.5874,1.6036,1.6079,1.6139,1.6336,1.6524,1.6593,1.6413,1.637,1.637,1.6362,1.6362,1.6379,1.637,1.637,1.637,1.6362,1.6362,1.637,1.6388,1.6499,1.6584,1.6422,1.6507,1.6576,1.6413,1.637,1.637,1.6379,1.6345,1.6285,2.6591,2.6518,2.5711,2.5372,2.5307,2.4592,2.4161,2.4125,0.0,0.0,0.0,2.2402,2.2102,2.1808,2.1799,2.1577,2.1293,2.1482,2.1545,2.1482,2.1651,2.1731,2.1731,2.1731,2.1731,2.1731,2.1731,2.1731,2.1731,2.1731,2.1566,2.1255,2.1218,2.1016,2.0649,2.0622,2.009,1.9003,1.8875,1.857,1.801,1.709,1.624,1.5411,1.4497,1.3811,1.3258,1.2867,1.2569,1.2389,1.2389,1.2449,1.2577,1.2586,1.2646,1.28,1.31,1.328,1.3288,1.3853,1.4196,1.4196,1.4495,1.4153,1.2877,1.3365,1.3663,1.3566,1.4311,1.4703,1.4571,1.478,1.4992,1.5292,1.5317,1.5454,1.5745,1.5805,1.5788,1.5805,1.5797,1.5805,1.5797,1.5728,1.5703,1.5685,1.5625,1.56,1.5668,1.5977,1.6173,1.5934,1.5908,1.5848,1.5822,1.5848,1.5805,1.5874,1.5848,1.5805,1.5805,1.5805,1.5805,1.5874,1.6062,1.6096,1.5899,1.6062,1.6211,1.5865,1.5737,1.5703,1.572,1.5882,1.5959,2.6591,2.6518,2.5711,2.5372,2.5307,2.45,2.4161,2.4125,2.3615,2.3423,2.3341,2.2917,2.2735,2.268,2.2671,2.2453,2.2154,2.2154,2.1971,2.166,2.1741,2.1731,2.1731,2.1731,2.1731,2.1731,2.1731,2.1731,2.1731,2.1731,2.1704,2.1658,2.1649,2.1438,2.1053,2.1025,2.0692,2.0042,1.9679,1.9227,1.8831,1.7564,1.6554,1.5957,1.4841,1.4021,1.3502,1.3158,1.2797,1.2406,1.2389,1.268,1.3305,1.3357,1.3656,1.4298,1.441,1.4444,1.4435,1.4547,1.4598,1.4598,1.4658,1.4581,1.4393,1.4453,1.4521,1.4547,1.4906,1.5137,1.5087,1.542,1.5625,1.5685,1.572,1.5745,1.5797,1.5805,1.5805,1.5805,1.5805,1.5797,1.5745,1.5506,1.5326,1.5266,1.5069,1.4863,1.4941,1.5437,1.5814,1.5814,1.5805,1.5805,1.5728,1.5788,1.5737,1.5805,1.5754,1.572,1.5711,1.5711,1.5711,1.5771,1.5788,1.5805,1.5754,1.5831,1.5805,1.5694,1.5497,1.5309,1.5292,1.5163,1.5155,2.6591,2.649,2.5711,2.5372,2.5307,2.45,2.4161,2.4242,2.396,2.3868,2.3859,2.3684,2.3483,2.3185,2.3272,2.3052,2.2564,2.2428,2.2226,2.2043,2.1841,2.1731,2.1731,2.1731,2.1731,2.1731,2.1731,2.1731,2.1731,2.1731,2.1731,2.1731,2.1731,2.164,2.1465,2.1447,2.1189,2.0833,2.0012,1.9308,1.8674,1.787,1.6954,1.5955,1.5402,1.4801,1.417,1.399,1.3819,1.3639,1.3639,1.3793,1.4119,1.4144,1.4316,1.4658,1.4684,1.4684,1.4684,1.4863,1.5069,1.5274,1.5292,1.5292,1.5292,1.5095,1.4975,1.4983,1.5309,1.5531,1.5531,1.5694,1.5805,1.5805,1.5805,1.5805,1.5805,1.5805,1.5805,1.5805,1.5805,1.572,1.5506,1.5326,1.5129,1.4949,1.4598,1.4307,1.4101,1.4333,1.4726,1.5095,1.5189,1.5197,1.5206,1.5197,1.5197,1.5206,1.5197,1.5197,1.5197,1.5206,1.5206,1.5197,1.5197,1.5197,1.5206,1.5189,1.5197,1.518,1.5078,1.4941,1.4898,1.4786,1.4838,2.6591,2.6518,2.5702,2.5271,2.5051,2.4427,2.4161,2.4161,2.4152,2.4161,2.4161,2.4161,2.3969,2.3694,2.3675,2.3455,2.3079,2.2749,2.2502,2.23,2.2016,2.1823,2.1741,2.1731,2.1731,2.1731,2.1731,2.1731,2.1731,2.1731,2.1731,2.1731,2.1731,2.1731,2.1731,2.1651,2.1562,2.123,2.0287,1.933,1.8615,1.8083,1.7216,1.6268,1.6096,1.5711,1.4992,1.4941,1.4863,1.4701,1.4684,1.4718,1.4804,1.4804,1.4846,1.4923,1.4941,1.4932,1.4949,1.518,1.548,1.5771,1.5805,1.5805,1.578,1.5523,1.5343,1.5377,1.5617,1.5797,1.5788,1.5797,1.5805,1.5805,1.5805,1.5805,1.5805,1.5805,1.5805,1.5805,1.5805,1.5651,1.5317,1.5137,1.4898,1.4453,1.4144,1.3845,1.3571,1.3511,1.3793,1.4213,1.4487,1.4624,1.4649,1.4709,1.4718,1.4684,1.4709,1.4752,1.4744,1.4709,1.4692,1.4744,1.4718,1.4752,1.4709,1.4709,1.4735,1.4752,1.4658,1.4521,1.4401,1.4367,1.4504,2.6591,2.6463,2.572,2.4941,2.4426,2.4198,2.4161,2.4161,2.4161,2.4161,2.4161,2.4161,2.4134,2.4106,2.4088,2.3868,2.3501,2.3446,2.3024,2.2392,2.2291,2.2089,2.1759,2.1731,2.1731,2.1731,2.1731,2.1731,2.1731,2.1731,2.1731,2.1731,2.1731,2.1741,2.1651,2.1562,2.1293,2.0988,2.0386,1.9878,1.9356,1.8175,1.7493,1.7398,1.6987,1.6465,1.5737,1.5694,1.5386,1.4761,1.4718,1.4846,1.512,1.5172,1.5317,1.5643,1.5685,1.5694,1.5694,1.5728,1.5754,1.5797,1.5805,1.5805,1.5805,1.5771,1.5745,1.5737,1.578,1.5805,1.5805,1.5805,1.5805,1.5805,1.5805,1.5805,1.5805,1.5805,1.5805,1.5805,1.5805,1.5651,1.524,1.4889,1.4418,1.3776,1.3639,1.3519,1.3408,1.3391,1.3434,1.3648,1.3896,1.4256,1.4504,1.4675,1.4555,1.459,1.4658,1.459,1.4547,1.4572,1.4658,1.4453,1.4581,1.4564,1.459,1.4675,1.4624,1.4487,1.4307,1.4059,1.3742,1.3691,1.3922,2.6591,2.6536,2.5958,2.5262,2.4556,2.4262,2.4161,2.4161,2.4161,2.4161,2.4161,2.4161,2.4161,2.4161,2.4161,2.4051,2.3886,2.3657,2.3244,2.2703,2.2447,2.2116,2.1768,2.1731,2.1731,2.1731,2.1731,2.1731,2.1731,2.1731,2.1731,2.1731,2.1731,2.1642,2.1482,2.1491,2.1203,2.0817,2.0368,1.9922,1.9592,1.868,1.7912,1.7501,1.7321,1.7013,1.6533,1.6465,1.6208,1.5711,1.566,1.5625,1.5566,1.5557,1.5625,1.5788,1.5805,1.5805,1.5805,1.5805,1.5805,1.5805,1.5805,1.5805,1.5805,1.5805,1.5805,1.5805,1.5805,1.5805,1.5805,1.5805,1.5805,1.5805,1.5805,1.5805,1.5805,1.5805,1.5805,1.5805,1.5805,1.5557,1.4966,1.4367,1.3802,1.3305,1.3202,1.3168,1.2928,1.2851,1.2954,1.3151,1.3339,1.3571,1.3905,1.3793,1.3819,1.3939,1.399,1.399,1.4024,1.399,1.3982,1.4007,1.405,1.4042,1.3947,1.399,1.3982,1.3982,1.3947,1.3691,1.3536,1.3511,1.3699,2.6591,2.6509,2.6023,2.5408,2.4757,2.4326,2.4161,2.4161,2.4161,2.4161,2.4161,2.4161,2.4161,2.4161,2.4161,2.4161,2.4115,2.384,2.3428,2.2969,2.263,2.2226,2.1777,2.1731,2.1731,2.1731,2.1731,2.1731,2.1731,2.1731,2.1731,2.1651,2.1651,2.1562,2.1401,2.1311,2.1024,2.0727,2.0384,2.0033,1.9684,1.9196,1.8545,1.786,1.7775,1.7552,1.7098,1.7072,1.6893,1.6507,1.6499,1.6319,1.5977,1.5951,1.5908,1.5814,1.5805,1.5805,1.5805,1.5805,1.5805,1.5805,1.5805,1.5805,1.5805,1.5805,1.5805,1.5805,1.5805,1.5805,1.5805,1.5805,1.5805,1.5805,1.5805,1.5805,1.5805,1.5805,1.5805,1.5805,1.5805,1.5523,1.4795,1.4144,1.3605,1.3262,1.3143,1.3048,1.2774,1.2766,1.286,1.3065,1.3057,1.3143,1.3408,1.3417,1.3288,1.3382,1.3571,1.3588,1.3511,1.3519,1.3519,1.3733,1.3571,1.3536,1.3656,1.3596,1.3545,1.3519,1.3519,1.3528,1.3511,1.3511,1.3511,2.6591,2.6481,2.5729,2.5179,2.4757,2.4335,2.4161,2.4161,2.4161,2.4161,2.4161,2.4161,2.4161,2.4161,2.4161,2.4161,2.4251,2.4115,2.3694,2.2939,2.2942,2.2409,2.1768,2.1731,2.175,2.1796,2.1796,2.1777,2.1768,2.175,2.1731,2.175,2.158,2.1392,2.1302,2.0934,2.0744,2.0645,2.043,2.0095,1.9804,1.971,1.9299,1.8622,1.8519,1.816,1.756,1.7449,1.7278,1.691,1.6884,1.6713,1.6353,1.631,1.6156,1.5874,1.5805,1.5805,1.5805,1.5805,1.5805,1.5805,1.5805,1.5805,1.5805,1.5805,1.5805,1.5805,1.5805,1.5805,1.5805,1.5805,1.5805,1.5805,1.5805,1.5805,1.5805,1.5805,1.5805,1.5797,1.5771,1.5446,1.4769,1.4333,1.3887,1.3571,1.3468,1.3425,1.3374,1.3391,1.3408,1.3357,1.3237,1.3108,1.3417,1.3348,1.3391,1.3502,1.3511,1.3511,1.3511,1.3511,1.3502,1.3511,1.3511,1.3511,1.3511,1.3511,1.3519,1.3511,1.3511,1.3511,1.3511,1.3511,1.3511,2.6591,2.6509,2.572,2.5289,2.5087,2.4445,2.4161,2.4161,2.4161,2.4161,2.4161,2.4161,2.4161,2.4161,2.4161,2.4161,2.4161,2.4161,2.3849,2.3373,2.3336,2.2948,2.2566,2.2427,2.2263,2.2135,2.2107,2.2116,2.2107,2.2116,2.2116,2.1962,2.159,2.1293,2.1096,2.0826,2.0654,2.0473,2.0283,2.0223,2.0103,2.0095,1.9838,1.9341,1.8836,1.8459,1.8186,1.7963,1.7655,1.7287,1.7278,1.7098,1.6739,1.6473,1.6375,1.6148,1.5934,1.5805,1.5805,1.5805,1.5805,1.5805,1.5805,1.5805,1.5805,1.5805,1.5805,1.5805,1.5805,1.5805,1.5805,1.5805,1.5805,1.5805,1.5805,1.5805,1.5805,1.5805,1.5805,1.5771,1.5608,1.5215,1.4812,1.435,1.3947,1.3596,1.3511,1.3511,1.3511,1.3511,1.3511,1.3494,1.3408,1.3357,1.3459,1.3288,1.322,1.3417,1.3511,1.3494,1.3485,1.3425,1.3399,1.3425,1.3451,1.3476,1.3468,1.3511,1.3511,1.3511,1.3511,1.3511,1.3511,1.3511,1.3511,2.6509,2.6289,2.5656,2.5298,2.5096,2.4445,2.4161,2.4161,2.4161,2.4161,2.4161,2.4161,2.4161,2.4161,2.4161,2.4161,2.4161,2.4152,2.3941,2.3565,2.345,2.324,2.2911,2.2866,2.272,2.2566,2.2529,2.252,2.2529,2.2529,2.2456,2.2309,2.178,2.132,2.1032,2.0736,2.0473,2.0292,2.0292,2.0292,2.0292,2.0292,2.018,1.9872,1.929,1.8819,1.8596,1.8237,1.7929,1.7697,1.7646,1.7483,1.7115,1.6747,1.6473,1.6418,1.6122,1.5917,1.5814,1.5805,1.5805,1.5805,1.5805,1.5805,1.5805,1.5805,1.5805,1.5805,1.5805,1.5805,1.5805,1.5805,1.5805,1.5805,1.5805,1.5805,1.5805,1.5805,1.5805,1.578,1.5617,1.5283,1.4906,1.4538,1.4153,1.375,1.3605,1.3511,1.3511,1.3511,1.3511,1.3511,1.3502,1.3476,1.3511,1.3374,1.3288,1.3451,1.3331,1.3348,1.3331,1.328,1.3254,1.3314,1.3374,1.3408,1.3451,1.3494,1.3511,1.3511,1.3511,1.3511,1.3511,1.3511,1.3511,2.6334,2.5949,2.5527,2.5142,2.4794,2.4345,2.4161,2.4161,2.4161,2.4161,2.4161,2.4161,2.4161,2.4161,2.4161,2.4161,2.4161,2.4161,2.396,2.3629,2.3602,2.3409,2.3079,2.2994,2.2948,2.2866,2.2857,2.2866,2.2857,2.2857,2.2767,2.2327,2.1868,2.1343,2.0997,2.0555,2.0292,2.0292,2.0292,2.0292,2.0292,2.0292,2.0275,2.0215,1.9855,1.9341,1.8665,1.828,1.8057,1.8006,1.8006,1.7843,1.7483,1.7115,1.6773,1.6499,1.6362,1.6165,1.5882,1.5822,1.5805,1.5805,1.5805,1.5805,1.5805,1.5805,1.5805,1.5805,1.5805,1.5805,1.5805,1.5805,1.5805,1.5805,1.5805,1.5805,1.5805,1.5805,1.5805,1.5805,1.5754,1.5617,1.5257,1.4889,1.4512,1.4093,1.3785,1.3562,1.3528,1.3511,1.3511,1.3511,1.3511,1.3511,1.3511,1.3502,1.3502,1.3476,1.3211,1.3074,1.3014,1.2963,1.2869,1.2911,1.3108,1.3168,1.3331,1.3382,1.3494,1.3511,1.3511,1.3511,1.3511,1.3511,1.3511,2.6078,2.5876,2.5243,2.4895,2.473,2.4335,2.4161,2.4161,2.4161,2.4161,2.4161,2.4161,2.4161,2.4161,2.4161,2.4161,2.4161,2.4152,2.4079,2.3978,2.396,2.3886,2.3785,2.3767,2.3639,2.34,2.3258,2.3354,2.3354,2.3268,2.3153,2.2701,2.2012,2.1396,2.1032,2.0564,2.0292,2.0292,2.0292,2.0292,2.0292,2.0292,2.0292,2.0249,1.9932,1.9607,1.9376,1.8759,1.8305,1.8066,1.8031,1.798,1.7817,1.7501,1.7261,1.709,1.6602,1.631,1.6173,1.5951,1.5805,1.5805,1.5805,1.5805,1.5805,1.5805,1.5805,1.5805,1.5805,1.5805,1.5805,1.5805,1.5805,1.5805,1.5805,1.5805,1.5805,1.5805,1.5805,1.5805,1.5805,1.5634,1.5326,1.5069,1.4786,1.4256,1.3999,1.3827,1.3588,1.3528,1.3511,1.3511,1.3511,1.3511,1.3511,1.3511,1.3511,1.3434,1.3194,1.2988,1.2886,1.2612,1.2518,1.256,1.2766,1.2988,1.3151,1.3288,1.3391,1.3494,1.3511,1.3511,1.3511,1.3511,1.3511,2.5867,2.5665,2.5051,2.4684,2.4528,2.4253,2.4161,2.4161,2.4161,2.4161,2.4161,2.4161,2.4161,2.4161,2.4161,2.4161,2.4161,2.4161,2.4161,2.4161,2.4161,2.4161,2.4161,2.4161,2.4042,2.3822,2.3776,2.3767,2.3776,2.3758,2.3565,2.3067,2.2393,2.1719,2.1236,2.0724,2.0382,2.0292,2.0292,2.0292,2.0292,2.0292,2.0292,2.0257,2.0061,1.9889,1.9718,1.9127,1.8631,1.8288,1.8117,1.804,1.8014,1.78,1.762,1.7372,1.6918,1.6499,1.6418,1.6002,1.5805,1.5805,1.5805,1.5805,1.5805,1.5805,1.5805,1.5805,1.5805,1.5805,1.5805,1.5805,1.5805,1.5805,1.5805,1.5805,1.5805,1.5805,1.5805,1.5805,1.5805,1.5668,1.5506,1.5249,1.506,1.4581,1.4264,1.4059,1.3759,1.3605,1.3554,1.3511,1.3511,1.3511,1.3511,1.3511,1.3511,1.3382,1.3211,1.3057,1.2937,1.2432,1.2158,1.2261,1.2423,1.2783,1.2971,1.3125,1.3254,1.3357,1.3476,1.3511,1.3511,1.3511,1.3511,2.5711,2.5335,2.4913,2.451,2.4207,2.4161,2.4161,2.4161,2.4161,2.4161,2.4161,2.4161,2.4161,2.4161,2.4161,2.4161,2.4161,2.4161,2.4161,2.4161,2.4161,2.4161,2.4161,2.4161,2.4125,2.4106,2.4106,2.4125,2.4088,2.4079,2.3941,2.3395,2.2849,2.2299,2.1746,2.109,2.0694,2.0477,2.036,2.0352,2.03,2.0292,2.0292,2.0292,2.0257,2.0112,1.9812,1.9367,1.8939,1.8562,1.8186,1.8031,1.8031,1.8031,1.7852,1.7543,1.715,1.6756,1.6405,1.6028,1.5814,1.5805,1.5805,1.5805,1.5805,1.5805,1.5805,1.5805,1.5805,1.5805,1.5805,1.5805,1.5805,1.5805,1.5805,1.5805,1.5805,1.5805,1.5805,1.5805,1.5805,1.5797,1.5745,1.5471,1.5292,1.5035,1.4572,1.423,1.3982,1.3768,1.3562,1.3511,1.3511,1.3511,1.3511,1.3511,1.3511,1.3451,1.3288,1.3151,1.2903,1.2363,1.185,1.1935,1.2115,1.2483,1.2757,1.2877,1.3091,1.3271,1.3382,1.3468,1.3511,1.3511,1.3511,2.5463,2.5298,2.4611,2.4253,2.4161,2.4161,2.4161,2.4161,2.4161,2.4161,2.4161,2.4161,2.4161,2.4161,2.4161,2.4161,2.4161,2.4161,2.4161,2.4161,2.4161,2.4161,2.4161,2.4161,2.4161,2.4161,2.4161,2.4161,2.4161,2.4161,2.395,2.3565,2.3244,2.279,2.2326,2.1799,2.1342,2.1041,2.0812,2.0557,2.0317,2.0292,2.0292,2.0292,2.0292,2.0232,2.0078,1.9521,1.8853,1.8245,1.8019,1.8031,1.8031,1.8031,1.798,1.7809,1.7278,1.6893,1.6679,1.6156,1.584,1.5805,1.5805,1.5805,1.5805,1.5805,1.5805,1.5805,1.5805,1.5805,1.5805,1.5805,1.5805,1.5805,1.5805,1.5805,1.5805,1.5805,1.5805,1.5805,1.5805,1.5805,1.578,1.5703,1.5514,1.524,1.4855,1.4418,1.4187,1.3845,1.3605,1.3528,1.3511,1.3511,1.3511,1.3511,1.3511,1.3502,1.3391,1.3271,1.2886,1.2355,1.185,1.1559,1.1773,1.2098,1.2346,1.2535,1.2809,1.3143,1.3357,1.3485,1.3502,1.3511,1.3511,2.528,2.5069,2.4418,2.4161,2.4161,2.4161,2.4161,2.4161,2.4161,2.4161,2.4161,2.4161,2.4161,2.4161,2.4161,2.4161,2.4161,2.4161,2.4161,2.4161,2.4161,2.4161,2.4161,2.4161,2.4161,2.4161,2.4161,2.4161,2.4161,2.4161,2.4015,2.3813,2.3435,2.313,2.2826,2.242,2.181,2.141,2.1145,2.0778,2.0326,2.0292,2.0292,2.0292,2.0283,2.024,1.9928,1.9536,1.9033,1.8513,1.8245,1.8031,1.8031,1.8031,1.8031,1.8006,1.7338,1.6918,1.679,1.6233,1.584,1.5805,1.5805,1.5805,1.5805,1.5805,1.5805,1.5805,1.5805,1.5805,1.5805,1.5805,1.5805,1.5805,1.5805,1.5805,1.5805,1.5805,1.5805,1.5805,1.5805,1.5805,1.5805,1.5805,1.5694,1.5471,1.5163,1.4769,1.4427,1.4016,1.3682,1.3613,1.3528,1.3511,1.3511,1.3511,1.3511,1.3502,1.3476,1.3357,1.2826,1.2321,1.191,1.1559,1.1601,1.1696,1.197,1.2286,1.2672,1.2988,1.3271,1.3468,1.3502,1.3511,1.3511,2.5133,2.4748,2.4335,2.4161,2.4161,2.4161,2.4161,2.4161,2.4161,2.4161,2.4161,2.4161,2.4161,2.4161,2.4161,2.4161,2.4161,2.4161,2.4161,2.4161,2.4161,2.4161,2.4161,2.4161,2.4161,2.4161,2.4161,2.4161,2.4161,2.4161,2.4161,2.4042,2.3776,2.3551,2.3275,2.2907,2.2294,2.1608,2.1462,2.1023,2.0477,2.0292,2.0292,2.0201,2.011,1.9884,1.9485,1.9276,1.9058,1.8998,1.8394,1.798,1.7912,1.7959,1.7959,1.7768,1.7267,1.6852,1.6757,1.622,1.5848,1.5822,1.5805,1.5805,1.5805,1.5805,1.5805,1.5805,1.5805,1.5805,1.5805,1.5805,1.5805,1.5805,1.5805,1.5805,1.5805,1.5805,1.5805,1.5805,1.5805,1.5805,1.5805,1.5805,1.5797,1.5651,1.5352,1.5026,1.4649,1.4264,1.3939,1.3708,1.3613,1.3511,1.3511,1.3511,1.3511,1.3511,1.3511,1.3331,1.2732,1.2261,1.1927,1.1678,1.1524,1.1533,1.1687,1.2055,1.25,1.2851,1.3151,1.3357,1.3511,1.3511,1.3511,2.5133,2.4739,2.4335,2.4161,2.4161,2.4161,2.4161,2.4161,2.4161,2.4161,2.4161,2.4161,2.4161,2.4161,2.4161,2.4161,2.4161,2.4161,2.4161,2.4161,2.4161,2.4161,2.4161,2.4161,2.4161,2.4161,2.4161,2.4161,2.4161,2.4161,2.4152,2.4106,2.3996,2.3996,2.3815,2.3438,2.3114,2.2366,2.1931,2.1273,2.0668,2.0382,2.0201,2.0027,1.9654,1.9438,1.9216,1.8799,1.8394,1.811,1.7992,1.7705,1.7548,1.7554,1.7554,1.7454,1.7138,1.6738,1.6598,1.6294,1.5897,1.5837,1.5874,1.5805,1.5805,1.5805,1.5805,1.5805,1.5805,1.5805,1.5805,1.5805,1.5805,1.5805,1.5805,1.5805,1.5805,1.5805,1.5805,1.5805,1.5805,1.5805,1.5805,1.5805,1.5788,1.5745,1.554,1.524,1.4881,1.4512,1.4204,1.393,1.3742,1.3639,1.3511,1.3511,1.345,1.3459,1.3459,1.3237,1.27,1.2248,1.195,1.1661,1.1336,1.1404,1.1524,1.1944,1.2415,1.2723,1.3023,1.328,1.3468,1.3485,1.3459,2.4858,2.4473,2.4244,2.4161,2.4161,2.4161,2.4161,2.4161,2.4161,2.4161,2.4161,2.4161,2.4161,2.4161,2.4161,2.4161,2.4161,2.4161,2.4161,2.4161,2.4161,2.4161,2.4161,2.4161,2.4161,2.4152,2.4161,2.4161,2.4161,2.4115,2.4051,2.3877,2.3868,2.3675,2.3611,2.3505,2.2921,2.2375,2.1893,2.1322,2.075,2.0292,1.9928,1.9563,1.9196,1.892,1.8696,1.8279,1.7817,1.7486,1.7234,1.7162,1.7081,1.7066,1.7147,1.7163,1.6885,1.6702,1.6586,1.638,1.6171,1.6173,1.6029,1.6007,1.5994,1.5925,1.5805,1.5805,1.5805,1.5805,1.5805,1.5805,1.5805,1.5805,1.5805,1.5805,1.5805,1.5805,1.5805,1.5805,1.5805,1.5805,1.5805,1.5805,1.5805,1.5771,1.5762,1.548,1.5197,1.4829,1.4478,1.4196,1.3956,1.3768,1.3579,1.345,1.3459,1.3407,1.3354,1.3067,1.2597,1.2259,1.1961,1.1625,1.1277,1.1276,1.1439,1.1893,1.2261,1.2535,1.2843,1.3194,1.3451,1.3484,1.3441,2.4537,2.4161,2.4161,2.4161,2.4161,2.4161,2.4161,2.4161,2.4161,2.4161,2.4161,2.4161,2.4115,2.4051,2.4033,2.4051,2.4042,2.4042,2.4015,2.4251,2.4161,2.4161,2.4143,2.407,2.4005,2.4051,2.4015,2.4005,2.3914,2.3941,2.3694,2.3492,2.3455,2.3345,2.3061,2.2857,2.2738,2.2188,2.1847,2.1366,2.0732,2.0201,1.9646,1.9096,1.8635,1.8265,1.7986,1.7647,1.7242,1.6766,1.6453,1.6421,1.6408,1.65,1.6558,1.6796,1.6379,1.6285,1.6371,1.6239,1.6207,1.6463,1.6263,1.6161,1.6289,1.6225,1.6062,1.5917,1.5874,1.5805,1.5805,1.5805,1.5805,1.5805,1.5805,1.5805,1.5805,1.5805,1.5805,1.5805,1.5805,1.5805,1.5805,1.5805,1.5805,1.5805,1.5797,1.572,1.536,1.5061,1.4637,1.4272,1.3946,1.3625,1.3353,1.3338,1.3285,1.3285,1.3233,1.2947,1.2613,1.2405,1.2078,1.1564,1.1285,1.1302,1.1294,1.1555,1.1893,1.2283,1.2702,1.3152,1.3354,1.3509,1.3453,2.4537,2.4161,2.4161,2.4161,2.4161,2.4161,2.4161,2.4161,2.4143,2.4251,2.4143,2.4134,2.3904,2.3721,2.3648,2.3648,2.3648,2.3657,2.3813,2.4051,2.4106,2.4106,2.4042,2.384,2.3675,2.3639,2.3505,2.3359,2.3281,2.3143,2.3103,2.3079,2.2957,2.2875,2.2811,2.2829,2.2555,2.2034,2.1704,2.1243,2.0823,2.0192,1.9363,1.8627,1.7978,1.752,1.7153,1.6951,1.6621,1.6225,1.5922,1.5673,1.5576,1.5555,1.5658,1.5794,1.5741,1.5754,1.5797,1.5705,1.5803,1.5984,1.6177,1.6295,1.6489,1.6638,1.6391,1.6199,1.5977,1.5822,1.5805,1.5805,1.5805,1.5805,1.5805,1.5805,1.5805,1.5805,1.5805,1.5735,1.5805,1.5805,1.5735,1.5726,1.5726,1.5655,1.5647,1.5576,1.5432,1.5076,1.4698,1.4255,1.3832,1.3492,1.3169,1.3128,1.3111,1.3103,1.3017,1.2901,1.267,1.253,1.2199,1.1693,1.1331,1.1216,1.1247,1.1439,1.1781,1.2247,1.2714,1.3128,1.3322,1.3553,1.3613,2.4335,2.4161,2.4161,2.4161,2.4161,2.4161,2.4161,2.4115,2.3932,2.3831,2.3767,2.3629,2.3437,2.3272,2.314,2.3244,2.3244,2.3244,2.3464,2.3767,2.384,2.3742,2.3742,2.3417,2.2985,2.2654,2.2528,2.2695,2.2866,2.2884,2.2729,2.2471,2.2444,2.226,2.1987,2.1897,2.1852,2.1581,2.129,2.1037,2.0753,2.0011,1.8996,1.8172,1.7426,1.6965,1.64,1.6211,1.5866,1.5571,1.519,1.491,1.473,1.4593,1.465,1.5068,1.5235,1.5267,1.5442,1.5494,1.5744,1.6014,1.6158,1.6436,1.6594,1.6691,1.6623,1.643,1.6242,1.6002,1.5831,1.5814,1.5805,1.5805,1.5805,1.5805,1.5805,1.5726,1.5655,1.5655,1.5735,1.5726,1.5647,1.5576,1.5576,1.5576,1.5505,1.5426,1.5355,1.5085,1.4803,1.4354,1.3909,1.3506,1.3149,1.3059,1.3026,1.294,1.2842,1.2728,1.2562,1.2425,1.2238,1.1898,1.1534,1.1353,1.151,1.1845,1.2061,1.224,1.2761,1.317,1.3413,1.3581,1.3529,2.4161,2.4161,2.4161,2.4161,2.4143,2.4051,2.4015,2.395,2.3593,2.3331,2.3286,2.303,2.2848,2.272,2.2656,2.2637,2.2804,2.2823,2.3052,2.3268,2.3331,2.3235,2.313,2.2793,2.2402,2.1888,2.1648,2.1829,2.2269,2.2315,2.2197,2.1933,2.176,2.1626,2.1203,2.122,2.0997,2.0907,2.0736,2.0564,2.0192,1.9463,1.8542,1.7628,1.7066,1.64,1.5832,1.5547,1.5393,1.5016,1.4609,1.418,1.4059,1.3665,1.3835,1.4587,1.4755,1.4908,1.5061,1.5296,1.5418,1.5703,1.5959,1.6261,1.6626,1.6727,1.6708,1.6627,1.6435,1.6315,1.6002,1.5857,1.5814,1.5805,1.5797,1.5726,1.5655,1.5576,1.5426,1.5497,1.5647,1.5576,1.5426,1.5426,1.5426,1.5355,1.5346,1.5221,1.5213,1.5141,1.4887,1.444,1.3981,1.3558,1.329,1.3151,1.3064,1.2986,1.2841,1.2687,1.2477,1.2329,1.2134,1.2043,1.1936,1.1815,1.2033,1.2035,1.2059,1.2255,1.2806,1.3016,1.303,1.308,1.3059,2.4161,2.4152,2.4143,2.4161,2.407,2.3758,2.3611,2.3565,2.3094,2.293,2.3015,2.2923,2.2694,2.241,2.2061,2.2116,2.2309,2.2428,2.2657,2.2948,2.289,2.2795,2.26,2.2053,2.1822,2.1419,2.1145,2.1103,2.1345,2.1354,2.1274,2.1212,2.1229,2.1041,2.0925,2.0817,2.0997,2.0907,2.0555,1.9928,1.9104,1.8542,1.7893,1.7153,1.64,1.5832,1.5547,1.5255,1.4988,1.4701,1.4409,1.411,1.3862,1.3576,1.3423,1.3646,1.3815,1.399,1.4243,1.4573,1.4817,1.5249,1.5501,1.5921,1.6451,1.6908,1.7139,1.7338,1.6807,1.6379,1.6216,1.5994,1.5865,1.5735,1.5655,1.5576,1.5505,1.5363,1.5284,1.5204,1.5284,1.5284,1.5204,1.5204,1.5204,1.5204,1.5204,1.507,1.5007,1.4935,1.4727,1.4263,1.403,1.3637,1.3243,1.31,1.3052,1.3028,1.2822,1.2594,1.2469,1.2351,1.2327,1.2233,1.2148,1.2032,1.1903,1.192,1.1896,1.2183,1.2527,1.255,1.2422,1.2521,1.2548,2.3474,2.3483,2.3474,2.3483,2.3446,2.3281,2.3112,2.303,2.2777,2.2593,2.2538,2.2346,2.2153,2.1889,2.1786,2.1743,2.197,2.1916,2.2373,2.2738,2.2641,2.2461,2.2339,2.1878,2.1515,2.095,2.0659,2.0598,2.0645,2.0907,2.0997,2.0826,2.0817,2.0744,2.0637,2.0456,2.0374,2.0192,1.992,1.9279,1.8542,1.7978,1.7419,1.6581,1.6015,1.554,1.5166,1.4968,1.4646,1.4279,1.3921,1.3656,1.3391,1.3139,1.3052,1.3045,1.3222,1.3483,1.3743,1.399,1.4328,1.4587,1.5082,1.5643,1.6281,1.6839,1.7196,1.731,1.7055,1.6766,1.6382,1.6144,1.5867,1.5677,1.5493,1.5363,1.5292,1.515,1.4999,1.4991,1.4919,1.4848,1.4848,1.4927,1.4927,1.4848,1.4848,1.4776,1.4784,1.4713,1.4442,1.401,1.3844,1.3596,1.3318,1.308,1.3065,1.2976,1.2821,1.2626,1.2553,1.2495,1.2349,1.2189,1.2058,1.1934,1.179,1.1956,1.213,1.2198,1.2275,1.211,1.1936,1.1724,1.1728,2.2553,2.2471,2.2671,2.2857,2.2838,2.2662,2.2608,2.2562,2.2171,2.1989,2.1917,2.1707,2.158,2.1562,2.1472,2.1482,2.1472,2.1553,2.198,2.2315,2.2344,2.2182,2.1993,2.1751,2.1147,2.042,2.0443,2.0391,2.0464,2.0555,2.0736,2.0654,2.0564,2.0464,2.0201,2.0019,1.9928,1.9463,1.9096,1.855,1.79,1.7505,1.685,1.6197,1.5724,1.5255,1.4777,1.4493,1.4245,1.389,1.3525,1.3343,1.2994,1.2899,1.2796,1.279,1.2966,1.3052,1.3313,1.3568,1.3835,1.4166,1.458,1.5235,1.5982,1.655,1.6993,1.7037,1.6926,1.674,1.6472,1.6287,1.5953,1.5688,1.5386,1.5303,1.5103,1.4928,1.4768,1.4713,1.4633,1.4489,1.4489,1.4569,1.4577,1.4497,1.4497,1.4489,1.4489,1.4497,1.4308,1.394,1.3902,1.3739,1.3546,1.3248,1.3203,1.2893,1.2667,1.2451,1.2311,1.2102,1.1967,1.1894,1.1792,1.1742,1.152,1.1954,1.2381,1.2097,1.1813,1.1611,1.1429,1.1197,1.1089,2.1697,2.1229,2.2231,2.2604,2.2483,2.1973,2.1737,2.1701,2.1318,2.1167,2.1185,2.1096,2.1087,2.1087,2.1087,2.1087,2.1087,2.1087,2.1399,2.1547,2.1485,2.1611,2.1587,2.1405,2.101,2.0703,2.0454,2.03,2.0292,2.0374,2.0382,2.0382,2.0382,2.0201,1.9928,1.9737,1.9188,1.8719,1.8257,1.7807,1.7153,1.6676,1.619,1.573,1.5159,1.4777,1.4675,1.4288,1.395,1.3598,1.3344,1.3079,1.285,1.2747,1.2705,1.2705,1.2705,1.279,1.296,1.3222,1.3398,1.3646,1.4062,1.4727,1.5394,1.5906,1.6288,1.6545,1.6589,1.6547,1.6477,1.6459,1.597,1.5634,1.5323,1.5177,1.5024,1.4775,1.459,1.4472,1.4377,1.4286,1.4137,1.4289,1.4353,1.4281,1.4281,1.4274,1.4274,1.4281,1.4201,1.4045,1.3988,1.3958,1.3863,1.3592,1.296,1.2564,1.2375,1.2047,1.1792,1.1612,1.1607,1.1455,1.1345,1.1367,1.1328,1.1405,1.1537,1.1481,1.1292,1.1114,1.0983,1.0865,1.0836,2.1229,2.1024,2.1343,2.1541,2.1624,2.139,2.1228,2.121,2.1059,2.0997,2.0997,2.0997,2.0997,2.0997,2.0997,2.0997,2.0997,2.0997,2.1254,2.149,2.1643,2.1517,2.144,2.1294,2.0994,2.0617,2.036,2.0292,2.0292,2.0292,2.0292,2.0292,2.0292,2.0102,1.992,1.9271,1.8527,1.7885,1.7326,1.6871,1.6298,1.592,1.5534,1.5064,1.4975,1.4592,1.4459,1.4139,1.3785,1.3525,1.3266,1.2994,1.2753,1.2711,1.2705,1.2705,1.2705,1.2705,1.2705,1.3052,1.3228,1.3483,1.3815,1.423,1.4727,1.4985,1.5409,1.5764,1.6032,1.5952,1.5952,1.5826,1.5646,1.538,1.514,1.4994,1.4811,1.4628,1.4551,1.4416,1.4339,1.4317,1.4122,1.3928,1.3992,1.4057,1.4057,1.4065,1.4065,1.3992,1.3992,1.3848,1.3775,1.355,1.3455,1.3078,1.2632,1.2339,1.1977,1.1676,1.1378,1.1316,1.1205,1.1095,1.0936,1.0855,1.0804,1.0707,1.073,1.0956,1.0836,1.0605,1.0515,1.0556,1.0717,2.0817,2.0826,2.0654,2.0736,2.0907,2.0826,2.0817,2.0817,2.0817,2.0817,2.0826,2.0817,2.0817,2.0817,2.0817,2.0727,2.0727,2.0762,2.1007,2.1278,2.1421,2.1423,2.1328,2.1165,2.0934,2.0506,2.0317,2.0292,2.0292,2.0292,2.0201,2.0201,2.0201,2.0019,1.9563,1.8727,1.7885,1.7239,1.6676,1.6211,1.573,1.535,1.5159,1.4783,1.4592,1.449,1.4327,1.4045,1.3785,1.3525,1.326,1.2994,1.2807,1.2705,1.2705,1.2705,1.2705,1.2705,1.279,1.2875,1.3052,1.3313,1.3392,1.373,1.3977,1.4146,1.4482,1.5061,1.5206,1.5216,1.522,1.5212,1.5079,1.4835,1.484,1.468,1.461,1.4406,1.4424,1.4364,1.4253,1.4,1.3955,1.3741,1.3702,1.3775,1.3775,1.3775,1.3848,1.3775,1.3702,1.3557,1.3419,1.3119,1.2813,1.2464,1.2131,1.1765,1.15,1.1236,1.1015,1.0962,1.0812,1.0685,1.053,1.0357,1.0351,1.0318,1.0466,1.0562,1.0522,1.0545,1.0611,1.0734,1.0838,2.0564,2.0292,2.0292,2.0473,2.0654,2.0382,2.0374,2.0374,2.0382,2.0382,2.0382,2.0374,2.0374,2.0382,2.0464,2.0464,2.0464,2.0391,2.0563,2.0847,2.1019,2.1174,2.1105,2.1028,2.0874,2.078,2.0506,2.0292,2.0292,2.0201,2.011,1.9837,1.9745,1.9563,1.9396,1.8373,1.7441,1.6979,1.6211,1.5737,1.5452,1.507,1.4783,1.4592,1.4496,1.4394,1.4244,1.4045,1.3809,1.3598,1.3284,1.3019,1.2813,1.2729,1.2705,1.2705,1.2705,1.2705,1.2705,1.2705,1.2881,1.3052,1.3137,1.3222,1.3392,1.3476,1.3555,1.4139,1.4139,1.4307,1.4531,1.4678,1.4399,1.4295,1.43,1.4318,1.4177,1.4186,1.4144,1.4095,1.3733,1.3424,1.3543,1.3489,1.347,1.3484,1.3492,1.3564,1.3564,1.3557,1.3484,1.3266,1.3046,1.2606,1.2305,1.1935,1.1552,1.1267,1.0962,1.0738,1.0588,1.0438,1.0368,1.0218,1.0143,1.0143,0.9997,0.9927,1.0226,1.0489,1.0789,1.0887,1.0837,1.0875,1.1025,2.0382,2.0292,2.0292,2.0382,2.0382,2.0382,2.0292,2.0292,2.0292,2.0292,2.0292,2.0292,2.0292,2.0292,2.0292,2.0292,2.0292,2.0292,2.0437,2.0506,2.072,2.0711,2.0754,2.0805,2.0728,2.0523,2.0317,2.0201,2.0019,2.0019,1.9745,1.9471,1.9004,1.8643,1.8373,1.7628,1.6979,1.6414,1.575,1.5274,1.5178,1.4783,1.449,1.449,1.4394,1.4298,1.4286,1.4057,1.3882,1.3713,1.3411,1.3121,1.2952,1.2874,1.2723,1.2711,1.2705,1.2705,1.2619,1.2619,1.2619,1.2711,1.2711,1.2711,1.2875,1.2631,1.2796,1.3045,1.3215,1.3294,1.3372,1.3457,1.3445,1.3452,1.3497,1.3658,1.3675,1.3821,1.3857,1.3824,1.3507,1.3219,1.3168,1.3049,1.3015,1.3119,1.3193,1.3346,1.3492,1.3346,1.3266,1.2893,1.2599,1.2157,1.1787,1.1335,1.1043,1.0669,1.0443,1.0218,1.0067,1.0067,1.0067,1.0067,0.9997,0.9922,0.9949,1.0019,1.0266,1.0525,1.0789,1.1047,1.1112,1.1054,1.1139,2.0292,2.0292,2.0292,2.0292,2.0292,2.0292,2.0292,2.0292,2.0201,2.011,2.011,2.011,2.011,2.0201,2.0292,2.0292,2.0292,2.0292,2.0292,2.0326,2.0531,2.0514,2.0489,2.0531,2.0497,2.0326,2.0292,2.0201,1.9928,1.9837,1.9379,1.8727,1.8087,1.7707,1.7333,1.6965,1.6595,1.6028,1.5458,1.5083,1.4885,1.4592,1.4298,1.4298,1.4298,1.4298,1.425,1.4141,1.3996,1.3833,1.3616,1.3332,1.3218,1.3031,1.2868,1.2843,1.2741,1.2685,1.2653,1.2608,1.2626,1.2614,1.2353,1.2375,1.2369,1.2118,1.2209,1.2375,1.2369,1.2454,1.254,1.2625,1.2625,1.2705,1.2784,1.3027,1.3105,1.3243,1.3302,1.3304,1.3166,1.2915,1.2718,1.2572,1.2459,1.2673,1.2826,1.3046,1.32,1.3046,1.282,1.2519,1.215,1.1706,1.1186,1.0812,1.0443,1.0148,0.9997,0.9922,0.9922,0.9992,0.9922,0.9922,0.9922,0.9933,0.9981,1.0105,1.0288,1.0509,1.0762,1.1025,1.1209,1.1267,1.1267,2.0292,2.0292,2.0292,2.0292,2.0292,2.0201,2.0201,2.0292,2.0027,1.9928,1.9928,1.9936,1.9936,1.9928,2.011,2.0201,2.0201,2.0201,2.0201,2.0201,2.0203,2.0226,2.0226,2.0252,2.0169,2.0235,2.0201,2.0027,1.9837,1.9371,1.8819,1.8087,1.7347,1.6864,1.648,1.6298,1.6123,1.5648,1.5261,1.4981,1.4688,1.4496,1.4298,1.4298,1.4298,1.4298,1.428,1.4244,1.4129,1.4002,1.387,1.3719,1.3532,1.3278,1.3181,1.3043,1.2763,1.2661,1.2668,1.2622,1.2457,1.2411,1.2105,1.2014,1.1957,1.1866,1.1866,1.1866,1.186,1.1952,1.1952,1.1952,1.2032,1.2118,1.2198,1.2363,1.2448,1.2528,1.2693,1.2644,1.2431,1.2215,1.2076,1.1923,1.1855,1.2003,1.215,1.2305,1.2452,1.2606,1.2305,1.2003,1.1558,1.1111,1.0743,1.0368,1.0218,0.9997,0.9997,0.9922,0.9922,0.9922,0.9922,0.9922,0.9922,0.9938,0.9965,1.0073,1.0239,1.0476,1.0729,1.0923,1.1165,1.1235,1.1267,1.9762,1.9762,1.9853,1.9853,1.9762,1.9563,1.9745,1.9936,1.9754,1.9671,1.9679,1.9679,1.9571,1.9671,1.9762,1.9762,1.9762,1.9762,1.9762,1.9762,1.9754,1.9754,1.9762,1.9762,1.9762,1.9762,1.9762,1.9662,1.9288,1.8727,1.7893,1.7059,1.6494,1.6109,1.5825,1.5642,1.5458,1.5261,1.4975,1.4783,1.4592,1.44,1.4298,1.4298,1.4298,1.4298,1.4298,1.4298,1.4214,1.4189,1.399,1.3839,1.3803,1.3544,1.3273,1.2874,1.2604,1.244,1.2514,1.2479,1.2417,1.2193,1.1976,1.1854,1.1679,1.1613,1.1527,1.1527,1.1521,1.1613,1.1613,1.1607,1.1607,1.1693,1.1774,1.186,1.1946,1.2032,1.2112,1.2116,1.1914,1.1671,1.1473,1.127,1.126,1.1329,1.1403,1.1558,1.1706,1.1855,1.1781,1.1484,1.1111,1.0743,1.0443,1.0143,1.0073,0.9922,0.9922,0.9922,0.9922,0.9922,0.9922,0.9922,0.9922,0.9922,0.9927,1.0062,1.0223,1.0444,1.0686,1.0853,1.1025,1.1214,1.1262,1.9174,1.9296,1.9296,1.9304,1.9204,1.9012,1.9031,1.9026,1.8948,1.902,1.902,1.8827,1.8827,1.8827,1.892,1.9012,1.9104,1.9104,1.9104,1.9304,1.9212,1.9304,1.9304,1.9296,1.9296,1.9304,1.9204,1.9196,1.8727,1.79,1.7073,1.6501,1.592,1.5635,1.5356,1.5172,1.4885,1.4783,1.4688,1.4592,1.4496,1.4394,1.4298,1.4298,1.4298,1.4298,1.4298,1.4298,1.4298,1.4298,1.4099,1.3974,1.3832,1.3537,1.3185,1.2811,1.2652,1.2547,1.2558,1.2456,1.232,1.2035,1.1831,1.1657,1.1532,1.1435,1.1354,1.1354,1.1354,1.1354,1.1267,1.1267,1.1267,1.1354,1.1354,1.144,1.144,1.1527,1.158,1.1616,1.1478,1.1252,1.0999,1.0735,1.0594,1.0738,1.0812,1.0887,1.1037,1.1186,1.1186,1.0962,1.0663,1.0368,1.0143,0.9992,0.9922,0.9922,0.9922,0.9922,0.9922,0.9922,0.9922,0.9922,0.9922,0.9933,0.9949,1.0067,1.0223,1.046,1.0692,1.088,1.1052,1.1203,1.1225,1.8356,1.8533,1.8656,1.8509,1.8548,1.8317,1.7972,1.75,1.7728,1.7895,1.7864,1.7687,1.7665,1.7849,1.7964,1.8211,1.8234,1.8342,1.845,1.8643,1.855,1.855,1.855,1.8643,1.855,1.8643,1.8643,1.8357,1.8079,1.7434,1.669,1.6123,1.5737,1.5356,1.5077,1.479,1.4598,1.4496,1.4496,1.4496,1.44,1.4298,1.4298,1.4298,1.4298,1.4298,1.4298,1.4298,1.4298,1.4292,1.419,1.4088,1.3808,1.3348,1.3008,1.2808,1.2631,1.2612,1.2587,1.2483,1.2275,1.2064,1.1833,1.1602,1.144,1.1359,1.1267,1.1267,1.1267,1.1267,1.1267,1.1267,1.1267,1.1267,1.1354,1.1354,1.1354,1.144,1.1424,1.1406,1.1138,1.086,1.0781,1.0534,1.0299,1.0293,1.0293,1.0368,1.0438,1.0588,1.0588,1.0519,1.0293,1.0148,1.0073,0.9922,0.9922,0.9922,0.9922,0.9922,0.9922,0.9922,0.9922,0.9922,0.9922,0.9965,1.0013,1.0132,1.0293,1.053,1.0751,1.0934,1.1095,1.1241,1.13,1.6988,1.7056,1.7056,1.7063,1.7056,1.6773,1.6654,1.6395,1.6102,1.6332,1.6795,1.681,1.6853,1.6952,1.6996,1.7268,1.7446,1.739,1.7598,1.7606,1.7699,1.7707,1.7707,1.7699,1.7699,1.7699,1.7606,1.7512,1.7145,1.677,1.6305,1.5737,1.5356,1.5077,1.479,1.4592,1.44,1.4298,1.4394,1.44,1.4298,1.4298,1.4298,1.4298,1.4298,1.4298,1.4298,1.4298,1.4208,1.4022,1.4027,1.3835,1.3624,1.311,1.288,1.2714,1.2604,1.2554,1.2532,1.2395,1.227,1.2086,1.1811,1.1596,1.1445,1.13,1.1273,1.1273,1.1267,1.1267,1.1267,1.1267,1.1267,1.1267,1.1267,1.1267,1.1267,1.1267,1.1267,1.1064,1.0885,1.0697,1.0557,1.032,1.0111,0.9997,0.9997,0.9997,1.0067,1.0143,1.0218,1.0143,1.0067,0.9922,0.9922,0.9922,0.9922,0.9922,0.9922,0.9922,0.9922,0.9922,0.9922,0.9922,0.9933,0.9992,1.0083,1.0218,1.0401,1.0643,1.0853,1.1063,1.1182,1.1225,1.1246,1.5715,1.5828,1.5931,1.602,1.6027,1.5931,1.5765,1.5388,1.5109,1.5027,1.5154,1.5443,1.5673,1.5777,1.586,1.6169,1.6392,1.6425,1.6459,1.6567,1.6763,1.685,1.685,1.6951,1.7052,1.6958,1.6951,1.677,1.6305,1.6211,1.5927,1.5363,1.5077,1.4885,1.4688,1.4496,1.4298,1.4298,1.4298,1.4298,1.4298,1.4298,1.4298,1.4298,1.4298,1.4298,1.4208,1.4202,1.4022,1.3835,1.3642,1.3545,1.3329,1.2945,1.2784,1.2762,1.265,1.2522,1.2425,1.2301,1.2167,1.193,1.1682,1.1424,1.1445,1.1316,1.1435,1.1435,1.1278,1.1267,1.1267,1.1267,1.1267,1.1267,1.1267,1.1267,1.1267,1.1267,1.1267,1.1198,1.091,1.0686,1.0503,1.0223,0.9981,0.9922,0.9922,0.9922,0.9922,0.9922,0.9922,0.9922,0.9922,0.9922,0.9922,0.9922,0.9922,0.9922,0.9922,0.9922,0.9922,0.9922,0.9922,0.9927,0.9965,1.0051,1.0153,1.0342,1.0568,1.0821,1.1015,1.1203,1.1209,1.1267,1.1267,1.4401,1.4714,1.4912,1.5089,1.5103,1.5266,1.5041,1.4496,1.4469,1.4077,1.3683,1.4177,1.4289,1.4353,1.4494,1.4819,1.506,1.5411,1.5516,1.5818,1.6015,1.6008,1.6103,1.6298,1.6305,1.6305,1.6298,1.6109,1.5737,1.5737,1.5553,1.5077,1.4885,1.4694,1.4592,1.4496,1.4298,1.4298,1.4298,1.4298,1.4298,1.4298,1.4298,1.4298,1.4298,1.4298,1.4208,1.4118,1.3931,1.3636,1.3346,1.3152,1.305,1.292,1.2829,1.2807,1.2802,1.2597,1.2436,1.221,1.1984,1.1736,1.1488,1.1316,1.1435,1.1499,1.1537,1.1558,1.1494,1.138,1.138,1.1374,1.1374,1.1348,1.1348,1.1283,1.1278,1.1273,1.1262,1.1257,1.0984,1.0653,1.0397,1.0113,0.9953,0.9889,0.9846,0.9922,0.9922,0.9922,0.9922,0.9922,0.9922,0.9922,0.9922,0.9922,0.9922,0.9922,0.9922,0.9922,0.9922,0.9922,0.9927,0.9933,0.9986,1.0132,1.0336,1.0541,1.0772,1.0993,1.1133,1.1193,1.1133,1.1181,1.1181,1.3059,1.3114,1.32,1.3385,1.3563,1.3649,1.3611,1.3658,1.3651,1.3436,1.3247,1.3297,1.3566,1.3887,1.3919,1.4212,1.4615,1.4769,1.4986,1.5235,1.5298,1.5324,1.5356,1.5648,1.5465,1.5458,1.5553,1.5363,1.5261,1.5267,1.5077,1.479,1.479,1.4592,1.44,1.4298,1.4298,1.4298,1.4298,1.4298,1.4298,1.4298,1.4298,1.4298,1.4298,1.4208,1.4022,1.3931,1.3636,1.334,1.305,1.2953,1.2856,1.2856,1.2759,1.2759,1.2759,1.2597,1.2388,1.2172,1.1941,1.172,1.1542,1.1499,1.1575,1.1698,1.1779,1.1925,1.1887,1.1881,1.1876,1.1849,1.1833,1.1752,1.1715,1.1428,1.1316,1.1289,1.1262,1.1101,1.0858,1.0611,1.0319,1.0058,0.9813,0.9811,0.9787,0.9781,0.9771,0.9846,0.9846,0.9846,0.9846,0.9922,0.9922,0.9922,0.9922,0.9922,0.9846,0.9846,0.9846,0.9922,0.9852,0.9781,1.0028,1.0215,1.0423,1.0524,1.0861,1.098,1.1161,1.1257,1.1094,1.1008,1.0916]}]]